[[{"header":{"parameterUnit":"m.s-1","parameterCategory":1,"la1":30.6,"la2":29.2853,"lo1":-89.7004,"lo2":-87.6739,"dy":0.0162,"dx":0.0183,"nx":112,"ny":82,"refTime":"2024-03-12T06:00:00:Z","depth":0,"parameterNumber":2,"parameterNumberName":"U-component_of_WINDS"},"data":[0.0,0.0,0.0,0.0,0.0,0.0,0.0,0.0,0.0,0.0,0.0,0.0,0.0,0.0,0.0,0.0,0.0,0.0,0.0,0.0,0.0,0.0,0.0,0.0,0.0,0.0,0.0,0.0,0.0,0.0,0.0,0.0,0.0,0.0,0.0,0.0,0.0,0.0,0.0,0.0,0.0,0.0,0.0,0.0,0.0,0.0,0.0,0.0,0.0,0.0,0.0,0.0,0.0,0.0,0.0,0.0,0.0,0.0,0.0,0.0,0.0,0.0,0.0,0.0,0.0,0.0,0.0,0.0,0.0,0.0,0.0,0.0,0.0,0.0,0.0,0.0,0.0,0.0,0.0,0.0,0.0,0.0,0.0,0.0,0.0,0.0,0.0,0.0,0.0,0.0,-1.0713,-1.2312,-1.5074,-1.6652,-1.6248,-1.6068,-1.4744,-1.1682,0.0,0.0,0.0,0.0,0.0,0.0,0.0,0.0,0.0,0.0,0.0,0.0,0.0,0.0,0.0,0.0,0.0,0.0,0.0,0.0,0.0,0.0,0.0,0.0,0.0,0.0,0.0,0.0,0.0,0.0,0.0,0.0,0.0,0.0,0.0,0.0,0.0,0.0,0.0,0.0,0.0,0.0,0.0,0.0,0.0,0.0,0.0,0.0,0.0,0.0,0.0,0.0,0.0,0.0,0.0,0.0,0.0,0.0,0.0,0.0,0.0,0.0,0.0,0.0,0.0,0.0,0.0,0.0,0.0,0.0,0.0,0.0,0.0,0.0,0.0,0.0,0.0,0.0,0.0,0.0,0.0,0.0,0.0,0.0,0.0,0.0,0.0,0.0,0.0,0.0,0.0,0.0,0.0,0.0,0.0,0.0,0.0,0.0,0.0,0.0,0.0,0.0,0.0,0.0,-1.053,-1.3791,-1.5496,-1.6248,-1.5826,-1.5166,-1.3846,-1.1651,0.0,0.0,0.0,0.0,0.0,0.0,0.0,0.0,0.0,0.0,0.0,0.0,0.0,0.0,0.0,0.0,0.0,0.0,0.0,0.0,0.0,0.0,0.0,0.0,0.0,0.0,0.0,0.0,0.0,0.0,0.0,0.0,0.0,0.0,0.0,0.0,0.0,0.0,0.0,0.0,0.0,0.0,0.0,0.0,0.0,0.0,0.0,0.0,0.0,0.0,0.0,0.0,0.0,0.0,0.0,0.0,0.0,0.0,0.0,0.0,0.0,0.0,0.0,0.0,0.0,0.0,0.0,0.0,0.0,0.0,0.0,0.0,0.0,0.0,0.0,0.0,0.0,0.0,0.0,0.0,0.0,0.0,0.0,0.0,0.0,0.0,0.0,0.0,0.0,0.0,0.0,0.0,0.0,0.0,0.0,0.0,0.0,0.0,0.0,0.0,0.0,0.0,0.0,-1.0136,-1.1853,-1.3937,-1.5258,-1.5808,-1.5404,-1.4433,-1.3186,-1.159,-1.0897,0.0,0.0,0.0,0.0,0.0,0.0,0.0,0.0,0.0,0.0,0.0,0.0,0.0,0.0,0.0,0.0,0.0,0.0,0.0,0.0,0.0,0.0,0.0,0.0,0.0,0.0,0.0,0.0,0.0,0.0,0.0,0.0,0.0,0.0,0.0,0.0,0.0,0.0,0.0,0.0,0.0,0.0,0.0,0.0,0.0,0.0,0.0,0.0,0.0,0.0,0.0,0.0,0.0,0.0,0.0,0.0,0.0,0.0,0.0,0.0,0.0,0.0,0.0,0.0,0.0,0.0,0.0,0.0,0.0,0.0,0.0,0.0,0.0,0.0,0.0,0.0,0.0,0.0,0.0,0.0,0.0,0.0,0.0,0.0,0.0,0.0,0.0,0.0,0.0,0.0,0.0,0.0,0.0,0.0,0.0,0.0,0.0,0.0,0.0,0.0,0.0,0.0,-1.1846,-1.3213,-1.3837,-1.4873,-1.5386,-1.5001,-1.3754,-1.2525,-1.143,-1.0144,0.0,0.0,0.0,0.0,0.0,0.0,0.0,0.0,0.0,0.0,0.0,0.0,0.0,0.0,0.0,0.0,0.0,0.0,0.0,0.0,0.0,0.0,0.0,0.0,0.0,0.0,0.0,0.0,0.0,0.0,0.0,0.0,0.0,0.0,0.0,0.0,0.0,0.0,0.0,0.0,0.0,0.0,0.0,0.0,0.0,0.0,0.0,0.0,0.0,0.0,0.0,0.0,0.0,0.0,0.0,0.0,0.0,0.0,0.0,0.0,0.0,0.0,0.0,0.0,0.0,0.0,0.0,0.0,0.0,0.0,0.0,0.0,0.0,0.0,0.0,0.0,0.0,0.0,0.0,0.0,0.0,0.0,0.0,0.0,0.0,0.0,0.0,0.0,0.0,0.0,0.0,0.0,0.0,0.0,0.0,0.0,0.0,0.0,0.0,0.0,0.0,0.0,-1.2128,-1.3856,-1.3882,-1.4634,-1.4983,-1.4579,-1.3075,-1.1834,-1.0971,-0.9465,0.0,0.0,0.0,0.0,0.0,0.0,0.0,0.0,0.0,0.0,0.0,0.0,0.0,0.0,0.0,0.0,0.0,0.0,0.0,0.0,0.0,0.0,0.0,0.0,0.0,0.0,0.0,0.0,0.0,0.0,0.0,0.0,0.0,0.0,0.0,0.0,0.0,0.0,0.0,0.0,0.0,0.0,0.0,0.0,0.0,0.0,0.0,0.0,0.0,0.0,0.0,0.0,0.0,0.0,0.0,0.0,0.0,0.0,0.0,0.0,0.0,0.0,0.0,0.0,0.0,0.0,0.0,0.0,0.0,0.0,0.0,0.0,0.0,0.0,0.0,0.0,0.0,0.0,0.0,0.0,0.0,0.0,0.0,0.0,0.0,0.0,0.0,0.0,0.0,0.0,0.0,0.0,0.0,0.0,0.0,0.0,0.0,0.0,0.0,0.0,0.0,0.0,-1.172,-1.2961,0.0,-1.3892,-1.4176,-1.3791,-1.2974,-1.1908,-1.0625,0.0,0.0,0.0,0.0,0.0,0.0,0.0,0.0,0.0,0.0,0.0,0.0,0.0,0.0,0.0,0.0,0.0,0.0,0.0,0.0,0.0,0.0,0.0,0.0,0.0,0.0,0.0,0.0,0.0,0.0,0.0,0.0,0.0,0.0,0.0,0.0,0.0,0.0,0.0,0.0,0.0,0.0,0.0,0.0,0.0,0.0,0.0,0.0,0.0,0.0,0.0,0.0,0.0,0.0,0.0,0.0,0.0,0.0,0.0,0.0,0.0,0.0,0.0,0.0,0.0,0.0,0.0,0.0,0.0,0.0,0.0,0.0,0.0,0.0,0.0,0.0,0.0,0.0,0.0,0.0,0.0,0.0,0.0,0.0,0.0,0.0,0.0,0.0,0.0,0.0,0.0,0.0,0.0,0.0,0.0,0.0,0.0,0.0,0.0,0.0,0.0,0.0,-1.0272,-1.1556,-1.2512,0.0,-1.3221,-1.347,-1.3314,-1.2588,-1.1619,-1.0385,0.0,0.0,0.0,0.0,0.0,0.0,0.0,0.0,0.0,0.0,0.0,0.0,0.0,0.0,0.0,0.0,0.0,0.0,0.0,0.0,0.0,0.0,0.0,0.0,0.0,0.0,0.0,0.0,0.0,0.0,0.0,0.0,0.0,0.0,0.0,0.0,0.0,0.0,0.0,0.0,0.0,0.0,0.0,0.0,0.0,0.0,0.0,0.0,0.0,0.0,0.0,0.0,0.0,0.0,0.0,0.0,0.0,0.0,0.0,0.0,0.0,0.0,0.0,0.0,0.0,0.0,0.0,0.0,0.0,0.0,0.0,0.0,0.0,0.0,0.0,0.0,0.0,0.0,0.0,0.0,0.0,0.0,0.0,0.0,0.0,0.0,0.0,0.0,0.0,0.0,0.0,0.0,0.0,0.0,0.0,0.0,0.0,0.0,0.0,0.0,0.0,0.0,-1.0409,-1.1756,-1.2776,-1.288,-1.2776,-1.2863,-1.3259,-1.1834,-1.0735,0.0,0.0,0.0,0.0,0.0,0.0,0.0,0.0,0.0,0.0,0.0,0.0,0.0,0.0,0.0,0.0,0.0,0.0,0.0,0.0,0.0,0.0,0.0,0.0,0.0,0.0,0.0,0.0,0.0,0.0,0.0,0.0,0.0,0.0,0.0,0.0,0.0,0.0,0.0,0.0,0.0,0.0,0.0,0.0,0.0,0.0,0.0,0.0,0.0,0.0,0.0,0.0,0.0,0.0,0.0,0.0,0.0,0.0,0.0,0.0,0.0,0.0,0.0,0.0,0.0,0.0,0.0,0.0,0.0,0.0,0.0,0.0,0.0,0.0,0.0,0.0,0.0,0.0,0.0,0.0,0.0,0.0,0.0,0.0,0.0,0.0,0.0,0.0,0.0,0.0,0.0,0.0,0.0,0.0,0.0,0.0,0.0,0.0,0.0,0.0,0.0,0.0,0.0,-1.0784,-1.2274,-1.3303,-1.3183,-1.289,-1.2735,-1.2863,-1.2183,-1.121,-0.996,0.0,0.0,0.0,0.0,0.0,0.0,0.0,0.0,0.0,0.0,0.0,0.0,0.0,0.0,0.0,0.0,0.0,0.0,0.0,0.0,0.0,0.0,0.0,0.0,0.0,0.0,0.0,0.0,0.0,0.0,0.0,0.0,0.0,0.0,0.0,0.0,0.0,0.0,0.0,0.0,0.0,0.0,0.0,0.0,0.0,0.0,0.0,0.0,0.0,0.0,0.0,0.0,0.0,0.0,0.0,0.0,0.0,0.0,0.0,0.0,0.0,0.0,0.0,0.0,0.0,0.0,0.0,0.0,0.0,0.0,0.0,0.0,0.0,0.0,0.0,0.0,0.0,0.0,0.0,0.0,0.0,0.0,0.0,0.0,0.0,0.0,0.0,0.0,0.0,0.0,0.0,0.0,0.0,0.0,0.0,0.0,0.0,0.0,0.0,0.0,0.0,0.0,-1.1043,-1.2423,-1.3398,-1.3321,-1.288,-1.2642,-1.2783,-1.2406,-1.1606,-1.0254,0.0,0.0,0.0,0.0,0.0,0.0,0.0,0.0,0.0,0.0,0.0,0.0,0.0,0.0,0.0,0.0,0.0,0.0,0.0,0.0,0.0,0.0,0.0,0.0,0.0,0.0,0.0,0.0,0.0,0.0,0.0,0.0,0.0,0.0,0.0,0.0,0.0,0.0,0.0,0.0,0.0,0.0,0.0,0.0,0.0,0.0,0.0,0.0,0.0,0.0,0.0,0.0,0.0,0.0,0.0,0.0,0.0,0.0,0.0,0.0,0.0,0.0,0.0,0.0,0.0,0.0,0.0,0.0,0.0,0.0,0.0,0.0,0.0,0.0,0.0,0.0,0.0,0.0,0.0,0.0,0.0,0.0,0.0,0.0,0.0,0.0,0.0,0.0,0.0,0.0,0.0,0.0,0.0,0.0,0.0,0.0,0.0,0.0,0.0,0.0,0.0,0.0,-1.1297,-1.2498,-1.3397,-1.3452,-1.2935,-1.2695,-1.2924,-1.2525,-1.1905,-1.0956,0.0,0.0,0.0,0.0,0.0,0.0,0.0,0.0,0.0,0.0,0.0,0.0,0.0,0.0,0.0,0.0,0.0,0.0,0.0,0.0,0.0,0.0,0.0,0.0,0.0,0.0,0.0,0.0,0.0,0.0,0.0,0.0,0.0,0.0,0.0,0.0,0.0,0.0,0.0,0.0,0.0,0.0,0.0,0.0,0.0,0.0,0.0,0.0,0.0,0.0,0.0,0.0,0.0,0.0,0.0,0.0,0.0,0.0,0.0,0.0,-1.6187,0.0,0.0,0.0,0.0,0.0,0.0,0.0,0.0,0.0,0.0,0.0,0.0,0.0,0.0,0.0,0.0,0.0,0.0,0.0,0.0,0.0,0.0,0.0,0.0,0.0,0.0,0.0,0.0,0.0,0.0,0.0,0.0,0.0,0.0,0.0,0.0,0.0,0.0,0.0,0.0,0.0,-1.1674,-1.3511,-1.4751,-1.4658,-1.3818,-1.3316,-1.3364,-1.2635,-1.1785,-1.0956,-1.0735,0.0,0.0,0.0,0.0,0.0,0.0,0.0,0.0,0.0,0.0,0.0,0.0,0.0,0.0,0.0,0.0,0.0,0.0,0.0,0.0,0.0,0.0,0.0,0.0,0.0,0.0,0.0,0.0,0.0,0.0,0.0,0.0,0.0,0.0,0.0,0.0,0.0,0.0,0.0,0.0,0.0,0.0,0.0,0.0,0.0,0.0,0.0,0.0,0.0,0.0,0.0,0.0,0.0,0.0,0.0,0.0,0.0,0.0,0.0,0.0,-1.6835,0.0,0.0,0.0,0.0,0.0,0.0,0.0,0.0,0.0,0.0,0.0,0.0,0.0,0.0,0.0,0.0,0.0,0.0,0.0,0.0,0.0,0.0,0.0,0.0,0.0,0.0,0.0,0.0,0.0,0.0,0.0,0.0,0.0,0.0,0.0,0.0,0.0,0.0,0.0,0.0,-1.2936,-1.424,-1.5169,-1.5331,-1.4421,-1.3784,-1.3757,-1.3039,-1.2302,-1.1621,-1.1145,0.0,0.0,0.0,0.0,0.0,0.0,0.0,0.0,0.0,0.0,0.0,0.0,0.0,0.0,0.0,0.0,0.0,0.0,0.0,0.0,0.0,0.0,0.0,0.0,0.0,0.0,0.0,0.0,0.0,0.0,0.0,0.0,0.0,0.0,0.0,0.0,0.0,0.0,0.0,0.0,0.0,0.0,0.0,0.0,0.0,0.0,0.0,0.0,0.0,0.0,0.0,0.0,0.0,-2.1747,-2.2005,-2.2342,-2.1909,-2.1974,-2.239,-2.0442,-1.9817,-2.0057,-1.8205,0.0,0.0,0.0,0.0,0.0,0.0,0.0,0.0,0.0,0.0,0.0,0.0,0.0,0.0,0.0,0.0,0.0,0.0,0.0,0.0,0.0,0.0,0.0,0.0,-1.9865,-1.9071,-1.7291,0.0,0.0,0.0,0.0,0.0,0.0,0.0,0.0,0.0,0.0,0.0,-1.4283,-1.4919,-1.5427,-1.5894,-1.4982,-1.4272,-1.4114,-1.3489,-1.2839,-1.2302,-1.1537,-1.1122,0.0,0.0,0.0,0.0,0.0,0.0,0.0,0.0,0.0,0.0,0.0,0.0,0.0,0.0,0.0,0.0,0.0,0.0,0.0,0.0,0.0,0.0,0.0,0.0,0.0,0.0,0.0,0.0,0.0,0.0,0.0,0.0,-1.8428,-1.9242,0.0,0.0,0.0,0.0,0.0,0.0,0.0,0.0,0.0,0.0,0.0,0.0,0.0,-2.1428,-2.3047,-2.4001,-2.4771,-2.5372,-2.6334,-2.6574,-2.6153,-2.6105,-2.6345,-2.6815,-2.5588,0.0,-2.1813,-2.1091,0.0,0.0,0.0,0.0,0.0,0.0,0.0,0.0,0.0,0.0,0.0,0.0,0.0,0.0,0.0,0.0,0.0,0.0,0.0,0.0,0.0,0.0,-2.1524,-2.1813,-2.1813,-2.1692,0.0,-1.878,-1.6451,-1.6307,-1.585,0.0,0.0,0.0,0.0,0.0,0.0,0.0,-1.4766,-1.5698,-1.6494,-1.6961,-1.6008,-1.5111,-1.4572,-1.3548,-1.2712,-1.2153,-1.2,-1.1945,-1.1945,-1.1614,0.0,0.0,0.0,0.0,0.0,0.0,0.0,0.0,0.0,0.0,0.0,0.0,0.0,0.0,0.0,0.0,0.0,0.0,0.0,0.0,0.0,0.0,0.0,0.0,0.0,0.0,0.0,0.0,0.0,-1.8477,-1.9788,-2.0141,-2.0217,-1.9827,0.0,0.0,0.0,0.0,0.0,0.0,0.0,0.0,0.0,-2.2719,-2.3039,-2.4218,-2.6406,-2.7176,-2.7969,-2.8787,-2.9581,-2.9821,-2.9581,-2.9292,-2.9268,-2.946,-2.8667,-2.7512,-2.6045,-2.4314,-2.2799,-2.1482,0.0,0.0,0.0,0.0,-1.8948,-1.9044,-1.9841,-2.0586,0.0,-2.0538,0.0,0.0,0.0,0.0,0.0,0.0,0.0,0.0,0.0,0.0,-2.2558,-2.4025,-2.4169,-2.3953,-2.3953,-2.2197,-2.0105,0.0,-1.7532,-1.6547,-1.465,0.0,0.0,0.0,0.0,-1.5403,-1.6197,-1.6677,-1.7002,-1.7181,-1.6462,-1.5512,-1.44,-1.3833,-1.3188,-1.237,-1.2258,-1.2184,-1.211,-1.2147,-1.1963,0.0,0.0,0.0,0.0,0.0,0.0,0.0,0.0,0.0,0.0,0.0,0.0,0.0,0.0,0.0,0.0,0.0,0.0,0.0,0.0,0.0,0.0,0.0,0.0,0.0,0.0,0.0,0.0,-1.9794,-2.12,-2.1258,-2.1868,-2.1692,0.0,0.0,0.0,0.0,0.0,0.0,-2.2366,-2.3039,-2.4194,-2.5901,-2.6069,-2.7176,-2.9292,-2.9845,-3.0518,-3.1312,-3.1862,-3.2126,-3.2102,-3.1717,-3.1408,-3.1264,-3.0879,-3.0326,-2.9508,-2.6959,-2.5155,-2.3929,-2.34,-2.2462,-2.1476,-2.1861,-2.2005,-2.2101,-2.2775,-2.3256,-2.3496,-2.2991,-2.2558,-2.195,-2.0634,0.0,0.0,0.0,0.0,-2.0105,-2.2246,-2.2991,-2.3713,-2.5805,-2.6021,-2.5733,-2.5733,-2.4915,-2.3384,0.0,-1.948,-1.8398,-1.6379,0.0,0.0,0.0,0.0,-1.6547,-1.7483,-1.7563,-1.7568,-1.7643,-1.7107,-1.6161,-1.4633,-1.4281,-1.3665,-1.2537,-1.2332,-1.2246,-1.2239,-1.2533,-1.2514,-1.2104,0.0,0.0,0.0,0.0,0.0,0.0,0.0,0.0,0.0,0.0,0.0,0.0,0.0,0.0,0.0,0.0,0.0,0.0,0.0,0.0,0.0,0.0,0.0,0.0,0.0,0.0,0.0,0.0,0.0,-2.2506,-2.5091,0.0,0.0,0.0,0.0,-2.1386,-2.2246,-2.3553,-2.5035,-2.6081,-2.7618,-2.9749,-3.0302,-3.0898,-3.1548,-3.2058,-3.237,-3.2418,-3.2947,-3.3212,-3.3212,-3.3188,-3.2899,-3.2418,-3.2394,-3.1769,-3.0639,-2.8498,-2.721,-2.6489,-2.4506,-2.3722,-2.3649,-2.3673,-2.3673,-2.3818,-2.4795,-2.518,-2.5348,-2.6297,-2.6609,-2.6201,-2.4145,-2.3529,0.0,0.0,-2.2734,-2.3673,-2.4242,-2.5155,-2.6069,-2.6705,-2.6825,-2.6801,-2.6801,-2.5997,-2.4747,0.0,-2.1957,-2.073,-1.9071,0.0,-1.8277,-1.6763,-1.6979,-1.7507,-1.8085,-1.8156,-1.8346,-1.8847,-1.8363,-1.7359,-1.576,-1.4977,-1.3912,-1.2395,-1.2184,-1.2275,-1.2643,-1.268,-1.3029,-1.3782,-1.3047,0.0,0.0,0.0,0.0,0.0,0.0,0.0,0.0,0.0,0.0,0.0,0.0,0.0,0.0,0.0,0.0,0.0,0.0,0.0,0.0,0.0,0.0,0.0,0.0,0.0,0.0,0.0,0.0,-2.5351,-2.7286,0.0,-2.6415,-2.6434,-2.6219,-2.5528,-2.7028,-2.8217,-2.8875,-2.9581,-3.0494,-3.1601,-3.1817,-3.2322,-3.3188,-3.3358,-3.3669,-3.4006,-3.4198,-3.4294,-3.427,-3.3933,-3.3669,-3.3406,-3.2779,-3.2274,-3.1817,-3.035,-2.9244,-2.8354,-2.7248,-2.6598,-2.631,-2.631,-2.631,-2.6406,-2.7128,-2.7152,-2.6777,-2.6502,-2.6166,-2.5721,-2.4987,-2.4771,-2.4747,-2.4723,-2.4987,-2.5468,-2.6358,-2.6863,-2.7272,-2.7825,-2.7906,-2.7714,-2.7042,-2.6585,-2.5937,-2.4723,-2.3376,-2.2029,-2.0754,-2.0538,-2.0105,-1.8855,-1.9119,-1.9408,-1.9239,-1.9215,-1.9153,-1.8963,-1.8436,-1.7603,-1.6374,-1.6045,-1.5321,-1.4001,-1.3781,-1.3574,-1.3218,-1.3368,-1.3617,-1.3882,-1.3864,-1.3332,0.0,0.0,0.0,0.0,0.0,0.0,0.0,0.0,0.0,0.0,0.0,0.0,0.0,0.0,0.0,0.0,0.0,0.0,0.0,0.0,0.0,0.0,0.0,0.0,0.0,0.0,-2.6625,-2.7879,-2.996,-3.0795,-2.9524,-2.9584,-2.9465,-2.8947,-3.0379,-3.1423,-3.1717,-3.2178,-3.2803,-3.3525,-3.338,-3.3693,-3.451,-3.4342,-3.4438,-3.4775,-3.4775,-3.4775,-3.4775,-3.4414,-3.415,-3.3958,-3.3308,-3.2827,-3.2442,-3.1721,-3.0903,-3.0013,-2.9124,-2.8667,-2.8474,-2.8114,-2.8089,-2.8282,-2.845,-2.8282,-2.7873,-2.7152,-2.6671,-2.6382,-2.6382,-2.6382,-2.6454,-2.6815,-2.6911,-2.7079,-2.7801,-2.7993,-2.8065,-2.8426,-2.8522,-2.833,-2.757,-2.7282,-2.6898,-2.5985,-2.4578,-2.3111,-2.1885,-2.138,-2.0706,-1.9432,-1.9408,-1.9408,-1.9023,-1.9143,-1.9105,-1.8701,-1.8507,-1.8016,-1.701,-1.6495,-1.5817,-1.4867,-1.4502,-1.4128,-1.3727,-1.3678,-1.3661,-1.3709,-1.3681,-1.3296,-1.2514,0.0,0.0,0.0,0.0,0.0,0.0,0.0,0.0,0.0,0.0,0.0,0.0,0.0,0.0,0.0,0.0,0.0,0.0,0.0,0.0,0.0,0.0,0.0,-2.4521,-2.7481,-2.9648,-3.0065,-3.3206,-3.4322,-3.1742,-3.2631,-3.2847,-3.1577,-3.2188,-3.2827,-3.3356,-3.3813,-3.4486,-3.5593,-3.5112,-3.5088,-3.5593,-3.5088,-3.4823,-3.4775,-3.4775,-3.4775,-3.4775,-3.4775,-3.451,-3.4006,-3.3982,-3.3452,-3.2515,-3.2491,-3.2154,-3.1548,-2.9965,-2.9653,-2.9965,-2.8931,-2.8883,-2.922,-2.8691,-2.8522,-2.8522,-2.8522,-2.8522,-2.8522,-2.8522,-2.8522,-2.8522,-2.8522,-2.8522,-2.8522,-2.8522,-2.8522,-2.8522,-2.8522,-2.8522,-2.8498,-2.8498,-2.8089,-2.7522,-2.697,-2.5601,-2.4073,-2.2534,-2.1428,-2.0201,-1.8614,-1.7917,0.0,-1.7555,-1.8013,-1.8301,-1.8253,-1.8734,-1.8622,-1.7612,-1.6364,-1.5433,-1.4919,-1.4282,-1.3962,-1.4157,-1.3574,-1.3276,-1.3341,-1.2551,-1.2533,-1.3296,0.0,0.0,0.0,0.0,0.0,0.0,0.0,0.0,0.0,0.0,0.0,0.0,0.0,0.0,0.0,0.0,0.0,0.0,0.0,0.0,0.0,-2.5234,-2.7233,-2.7648,-2.9877,-3.2364,-3.4869,-3.6391,-3.7042,-3.6577,-3.6429,-3.6183,-3.5694,-3.5259,-3.5284,-3.5818,-3.5041,-3.4871,-3.5593,-3.5259,-3.5041,-3.504,-3.5041,-3.4969,-3.4775,-3.4775,-3.4775,-3.4775,-3.4775,-3.4703,-3.451,-3.3813,-3.3332,-3.302,-3.2226,-3.1837,-3.1621,-3.0759,-3.0302,-3.0062,-2.9773,-2.9508,-2.922,-2.8691,-2.8522,-2.8522,-2.8522,-2.8522,-2.8522,-2.8522,-2.8522,-2.8522,-2.8522,-2.8522,-2.8522,-2.8522,-2.8522,-2.8522,-2.8522,-2.8522,-2.8402,-2.7978,-2.7786,-2.744,-2.6502,-2.5973,-2.5276,-2.4097,-2.3607,-2.3183,-2.2397,-2.1789,0.0,-2.1452,-2.0899,-2.0225,-1.9432,-1.9844,-1.9573,-1.8122,-1.8379,-1.82,-1.7252,-1.6525,-1.5945,-1.5578,-1.4874,-1.443,-1.4313,-1.3424,-1.3075,0.0,0.0,0.0,0.0,0.0,0.0,0.0,0.0,0.0,0.0,0.0,0.0,0.0,0.0,0.0,0.0,0.0,0.0,0.0,0.0,0.0,0.0,-2.8348,-3.106,-3.2215,-3.3495,-3.5132,-3.7441,-3.8316,-3.8642,-3.8464,-3.8064,-3.7541,-3.6973,-3.6552,-3.6402,-3.6475,-3.5843,-3.5647,-3.608,-3.5526,-3.5187,-3.516,-3.509,-3.4969,-3.4775,-3.4775,-3.4775,-3.4775,-3.4775,-3.4655,-3.4414,-3.3861,-3.3356,-3.2923,-3.2274,-3.191,0.0,0.0,0.0,0.0,0.0,-2.9436,-2.8931,-2.8619,-2.8522,-2.8522,-2.8522,-2.8522,-2.8522,-2.8522,-2.8522,-2.8522,-2.8522,-2.8522,-2.8522,-2.8522,-2.8522,-2.8522,-2.8522,-2.8522,-2.8426,-2.8114,-2.8065,-2.7801,-2.6935,-2.6598,0.0,-2.5324,-2.4458,-2.3616,-2.2895,-2.2156,-2.1675,-2.1675,-2.1145,-2.0394,-1.9579,-1.9941,-1.9796,-1.8638,-1.866,0.0,0.0,0.0,-1.6784,-1.5999,-1.5227,0.0,0.0,0.0,-1.3332,-1.3809,0.0,0.0,0.0,-1.3396,-1.3102,0.0,0.0,0.0,0.0,0.0,0.0,0.0,0.0,0.0,0.0,0.0,0.0,0.0,0.0,0.0,0.0,-3.105,-3.4469,-3.701,-3.7437,-3.7741,-3.8439,-3.9217,-3.9393,-3.8613,-3.8333,-3.7861,-3.6875,-3.6822,-3.6696,-3.6282,0.0,0.0,0.0,0.0,-3.5357,-3.557,-3.5113,-3.4872,-3.4775,-3.4775,-3.4775,-3.4775,-3.4775,-3.4486,-3.3982,-3.3934,-3.3404,-3.2491,-3.2442,-3.2106,-3.1645,-3.1115,-3.0922,-3.0759,-2.9677,-2.9003,-2.8595,-2.8522,0.0,0.0,-2.8522,-2.8522,-2.8522,-2.8522,-2.8522,-2.8522,-2.8522,-2.8522,-2.8522,-2.8522,-2.8522,-2.8522,-2.8522,-2.8522,-2.8522,-2.8522,-2.8522,-2.8354,-2.7786,-2.7306,-2.6777,-2.6214,-2.4506,-2.2919,-2.1981,-2.0971,-2.0326,-2.0254,-2.0205,-1.9916,-1.9266,0.0,0.0,-1.9047,-1.8177,-1.7804,-1.8182,-1.7749,-1.7076,-1.6199,-1.5442,-1.454,-1.3427,-1.34,-1.3857,-1.4814,-1.4743,-1.5284,-1.6381,-1.4142,-1.3681,0.0,0.0,0.0,0.0,0.0,0.0,0.0,0.0,0.0,0.0,0.0,0.0,0.0,0.0,0.0,-3.0281,-3.3847,-3.6885,-3.8391,-3.8919,-3.9295,-3.9445,-3.9622,-3.9647,-3.947,-3.9212,-3.9086,-3.9067,-3.7863,-3.7366,-3.7939,-3.6579,-3.5965,-3.6456,-3.6061,-3.567,-3.5284,-3.5381,-3.5235,-3.4775,0.0,0.0,-3.4775,-3.4775,-3.4486,-3.3958,-3.3621,-3.3068,-3.2466,-3.201,-3.1813,-3.1645,-3.1115,-3.0922,-3.0759,-2.9677,-2.9244,-2.9076,-2.8667,-2.8522,-2.8522,-2.8522,-2.8522,-2.8522,-2.8522,-2.8522,0.0,-2.8522,-2.8522,-2.8522,-2.8522,-2.8522,-2.8522,-2.8522,-2.8522,-2.8522,-2.8522,-2.8522,-2.8354,-2.7786,-2.7594,-2.7248,-2.6262,-2.542,-2.4795,-2.4578,-2.4001,-2.3448,-2.3071,-2.2662,-2.1843,-2.0446,-2.1169,-2.0971,-1.9143,-1.9597,-1.9638,-1.8863,-1.8682,-1.8486,-1.8232,-1.7962,-1.7425,-1.6627,-1.6507,-1.6537,-1.6766,-1.6059,-1.6268,-1.7337,-1.6131,-1.5918,0.0,0.0,0.0,0.0,0.0,0.0,0.0,0.0,0.0,0.0,0.0,-2.4821,-2.5477,0.0,-3.1863,-3.3244,-3.6031,-3.8316,-3.917,-3.9521,-3.9697,-3.9697,-3.9697,-3.9697,-3.9697,-3.9465,-3.9262,-3.9091,-3.8288,-3.7864,-3.7991,-3.6972,-3.6476,-3.6603,-3.6084,-3.562,-3.5235,-3.5235,-3.5066,-3.4775,-3.4775,-3.4775,-3.4775,-3.451,-3.415,-3.3645,-3.3116,-3.2587,-3.2058,-3.1813,-3.1886,-3.2034,-3.1524,-3.1163,-3.0759,-2.9677,-2.9292,-2.922,-2.8691,-2.8522,-2.8522,-2.8522,-2.8522,-2.8522,-2.8522,-2.8522,-2.8522,-2.8522,-2.8522,-2.8522,-2.8522,-2.8522,-2.8522,-2.8522,-2.8522,-2.8522,-2.8522,-2.8522,-2.8426,-2.8162,-2.7858,-2.7522,-2.7007,-2.6238,-2.5612,-2.5348,-2.4832,-2.4434,-2.4169,-2.3472,-2.259,-2.153,-2.162,-2.126,-1.9913,-2.0269,-2.0394,-1.9841,-1.978,-1.9611,-1.9276,-1.9186,-1.8885,-1.8353,-1.8291,-1.8302,-1.8404,-1.7954,-1.7848,-1.8035,-1.7589,-1.7218,0.0,0.0,0.0,0.0,0.0,0.0,0.0,0.0,-2.2989,-2.4511,-2.648,-2.8197,-2.9202,-3.2215,-3.4851,-3.5809,-3.7713,-3.9195,-3.9622,-3.9697,-3.9647,-3.9546,-3.9622,-3.9697,-3.9697,-3.949,-3.9187,-3.8739,-3.849,-3.8165,-3.7892,-3.734,-3.6964,-3.687,-3.6132,-3.562,-3.538,-3.5114,-3.5017,-3.4969,-3.4969,-3.492,-3.4872,-3.4438,-3.3957,-3.3404,-3.2875,-3.2274,-3.1717,-3.1813,-3.2034,-3.2298,-3.1886,-3.1452,-3.0946,-2.9965,-2.9532,-2.9388,-2.8955,-2.8739,-2.8667,-2.8667,-2.8595,-2.8522,-2.8522,-2.8522,-2.8522,-2.8522,-2.8522,-2.8522,-2.8522,-2.8522,-2.8522,-2.8522,-2.8522,-2.8522,-2.8522,-2.8522,-2.8522,-2.8522,-2.8162,-2.781,-2.769,-2.6983,-2.619,-2.5564,-2.5011,-2.4592,-2.4496,-2.3785,-2.3039,-2.2414,-2.1957,-2.1452,-2.0827,-2.0682,-2.0629,-2.0725,-2.0779,-2.0569,-2.0198,-2.0191,-1.9992,-1.9579,-1.9569,-1.9649,-1.9792,-1.9629,-1.9333,-1.8957,-1.8757,-1.8104,-2.0005,-1.8958,-1.8809,-2.0786,-2.1214,-2.2339,0.0,0.0,-2.7828,-3.0453,-3.1963,-3.3071,-3.3828,-3.5529,-3.701,-3.7638,-3.8793,-3.9622,-3.9697,-3.9697,-3.9521,-3.907,-3.9396,-3.9697,-3.9697,-3.9697,-3.962,-3.9545,-3.8617,-3.8241,-3.8743,-3.7287,-3.6684,-3.7161,-3.6611,-3.6168,-3.5908,-3.586,-3.5764,-3.5524,-3.5524,-3.538,-3.5163,-3.5114,-3.4655,-3.3886,-3.3428,-3.2656,-3.1741,-3.2202,-3.2154,-3.1789,-3.1741,-3.1669,-3.1548,-3.0946,-3.0398,-2.9989,-2.9941,-2.9605,-2.922,-2.922,-2.8907,-2.8522,-2.8522,-2.8522,-2.8522,-2.8522,-2.8522,-2.8522,-2.8522,-2.8522,-2.8522,-2.8522,-2.8522,-2.8522,-2.8522,-2.8522,-2.8522,-2.8522,-2.8474,-2.8282,-2.7762,-2.7594,-2.72,-2.6166,-2.5564,-2.5059,-2.4544,-2.4376,-2.3977,-2.2991,-2.2879,-2.239,-2.1404,-2.0875,-2.0803,-2.1284,-2.1308,-2.1494,-2.1889,-2.1913,-2.1572,-2.0905,-2.0873,-2.0896,-2.0933,-2.0117,-2.0052,-2.0623,-1.9759,-1.869,-2.2389,-2.1359,-2.1062,0.0,-2.4381,-2.5661,-2.8675,-2.9888,-3.0873,-3.2714,-3.451,-3.5887,-3.6486,-3.7739,-3.8718,0.0,-3.9396,-3.9697,-3.9697,-3.9421,-3.8894,-3.8039,-3.809,-3.8366,-3.8693,-3.9019,-3.922,-3.922,-3.8467,-3.8115,-3.8341,-3.7134,-3.6505,-3.6757,-3.6689,-3.6445,-3.6003,-3.6133,-3.6037,-3.562,-3.562,-3.5524,-3.5404,-3.5086,-3.4381,-3.3252,-3.2744,-3.2409,-3.2154,-3.2058,-3.2058,-3.213,-3.1837,-3.1717,-3.1645,-3.1115,-3.0778,-3.0494,-3.0206,-2.9941,-2.9701,-2.9388,-2.9148,-2.8907,-2.8595,-2.8715,-2.8907,-2.8595,-2.8739,-2.8907,-2.8595,-2.8522,-2.8522,-2.8522,-2.8522,-2.8522,-2.8522,-2.8522,-2.8522,-2.8522,-2.8522,-2.845,-2.821,-2.7921,-2.756,-2.7103,-2.631,-2.5564,-2.5035,-2.4664,-2.4121,-2.3119,-2.3023,-2.2678,-2.1933,-2.1668,-2.162,-2.1837,-2.1861,-2.1957,-2.2173,-2.2197,-2.2049,-2.1769,-2.1737,-2.1737,-2.1737,-2.1368,-2.1123,-2.1028,-2.059,-1.9911,-2.3276,0.0,0.0,-2.5611,-2.7243,-2.8725,-3.0708,-3.2064,-3.3269,-3.455,-3.6081,-3.7337,-3.7914,-3.8793,-3.9471,-3.9471,-3.9597,-3.9647,-3.9496,-3.8994,-3.8165,-3.6885,-3.6584,-3.6609,-3.686,-3.7814,-3.8467,-3.8617,-3.8241,-3.8065,-3.8241,-3.7337,-3.6933,-3.7084,-3.6991,-3.6696,-3.6322,-3.6378,-3.6207,-3.5812,-3.5812,-3.5764,-3.5692,-3.5203,-3.4421,-3.3353,-3.3113,-3.2831,-3.2557,-3.2337,-3.2268,-3.225,-3.1985,-3.1934,-3.1886,-3.1456,-3.1259,-3.1091,-3.0706,-3.0422,-3.023,-2.9677,-2.9412,-2.9196,-2.8667,-2.8883,-2.922,-2.8835,-2.9003,-2.9244,-2.9003,-2.8835,-2.8739,-2.8739,-2.8739,-2.8691,-2.8546,-2.8522,-2.8522,-2.8522,-2.8522,-2.8522,-2.8522,-2.8186,-2.7897,-2.7714,-2.7055,-2.6286,-2.5612,-2.4939,-2.4242,-2.3496,-2.328,-2.3023,-2.2462,-2.2414,-2.2342,-2.2197,-2.2197,-2.2197,-2.2197,-2.2197,-2.2197,-2.2197,-2.2197,-2.2197,-2.2197,-2.2197,-2.1925,-2.14,-2.14,-2.1146,-2.1446,0.0,-2.3226,-2.7067,-2.9277,-3.1235,-3.3947,-3.458,-3.5102,-3.6734,-3.7136,-3.7337,-3.7914,-3.8492,-3.8944,-3.8944,-3.9346,-3.9496,-3.902,-3.8391,-3.7437,-3.5734,-3.5082,-3.46,0.0,-3.5981,-3.7462,-3.799,-3.8015,-3.8241,-3.8869,-3.8291,-3.8216,-3.8818,-3.7739,-3.7186,-3.7161,-3.6634,-3.6383,-3.6358,-3.6358,-3.6241,-3.598,-3.5692,-3.5276,-3.4785,-3.5253,-3.4472,-3.2828,-3.3317,-3.2838,-3.1789,-3.2274,-3.2491,-3.2466,-3.2466,-3.2106,-3.1693,-3.1669,-3.1332,-3.0802,-3.023,-2.9725,-2.9196,-2.8667,-2.8883,-2.9292,-2.9292,-2.9292,-2.9412,-2.9917,-2.9653,-2.9268,-2.9268,-2.9268,-2.9124,-2.8619,-2.8522,-2.8522,-2.8522,-2.8522,-2.8522,-2.8522,-2.8498,-2.8306,-2.7762,-2.7642,-2.7296,-2.6214,-2.5155,-2.4506,-2.4482,-2.4049,-2.3577,-2.3047,-2.2999,-2.2727,-2.2221,-2.2197,-2.2197,-2.2197,-2.2197,-2.2197,-2.2197,-2.2197,-2.2197,-2.2197,-2.2197,-2.2197,-2.2166,-2.2166,-2.2166,-2.4362,0.0,-2.7369,-3.0131,-3.2089,-3.3627,-3.4931,-3.583,-3.6408,-3.6656,-3.6056,-3.5504,-3.5303,-3.4826,-3.4951,-3.6433,-3.7136,-3.7839,-3.8793,-3.8718,-3.7563,-3.4776,-3.4881,0.0,0.0,0.0,0.0,-3.6883,-3.7262,-3.7713,-3.8266,-3.8115,-3.809,-3.8291,-3.8291,-3.8115,-3.7739,-3.7538,-3.7262,-3.6958,-3.6581,-3.6358,-3.6263,-3.5747,-3.5332,-3.504,-3.4336,-3.3542,-3.2779,-3.2475,-3.2292,-3.2226,-3.2418,-3.2707,-3.2971,-3.2635,-3.237,-3.2178,-3.1837,-3.1597,-3.1356,-3.0826,-3.0494,-3.0254,-2.9725,-2.9941,-3.0206,-2.9484,-2.9797,-3.023,-2.9701,-2.9701,-2.9821,-2.9821,-2.9821,-2.9773,-2.9605,-2.9556,-2.9556,-2.9556,-2.9268,-2.9027,-2.9027,-2.8739,-2.845,-2.8282,-2.7618,-2.6898,-2.619,-2.5781,-2.53,-2.4568,-2.4362,-2.4049,-2.3577,-2.3216,-2.2927,-2.2727,-2.239,-2.2197,-2.2197,-2.2197,-2.2197,-2.2197,-2.2197,-2.2197,-2.2197,-2.2197,-2.2197,-2.2197,-2.2197,-2.2197,-2.6339,-2.8273,-3.0066,-3.2516,-3.4073,-3.5107,-3.5705,-3.6232,-3.6282,-3.5127,-3.4148,-3.3169,-3.2039,-3.1235,-3.1461,-3.3696,-3.455,-3.5629,-3.7737,-3.7814,-3.6885,-3.4751,-3.4731,-3.4354,0.0,0.0,0.0,-3.6028,-3.7318,-3.8197,-3.8554,-3.8962,-3.9116,-3.9116,-3.8969,-3.8592,-3.8015,-3.7814,-3.7437,-3.6885,-3.6581,-3.6405,-3.6405,-3.6006,-3.5637,-3.5248,-3.4346,-3.3531,-3.2914,-3.235,-3.2123,-3.2226,-3.2418,-3.2707,-3.2971,-3.2635,-3.2491,-3.2418,-3.191,-3.1717,-3.1621,-3.1091,-3.0922,-3.0826,-3.0254,-3.0446,-3.0778,-3.0062,-3.035,-3.0802,-3.0278,-3.0254,-3.0374,-3.0374,-3.0374,-3.0326,-3.0134,-3.0086,-3.0086,-3.0086,-2.9653,-2.9292,-2.9292,-2.8859,-2.8522,-2.8522,-2.7882,-2.7258,-2.6743,-2.6334,-2.5829,-2.5155,-2.4915,-2.4602,-2.4073,-2.3713,-2.3376,-2.3047,-2.2654,-2.239,-2.2197,-2.2197,-2.2197,-2.2197,-2.2197,-2.2197,-2.2197,-2.239,-2.2486,-2.2486,-2.2654,-2.2782,-2.7494,-2.9628,-3.1562,-3.4223,-3.5207,-3.5708,-3.6254,-3.583,-3.4705,-3.2541,-3.1512,-3.0357,0.0,0.0,-2.8624,-3.0909,-3.1838,-3.3269,-3.615,-3.6056,-3.5705,0.0,0.0,0.0,0.0,0.0,0.0,-3.5713,0.0,-3.9638,-3.9642,-4.0618,-4.1169,-4.1119,-3.9702,-3.8642,-3.809,-3.7513,-3.6935,-3.6405,-3.6405,-3.6405,-3.6405,-3.6405,-3.6056,-3.5508,-3.5273,-3.4421,-3.3187,-3.2914,-3.2374,-3.1813,-3.2298,-3.2515,-3.2539,-3.2515,-3.2491,-3.2418,-3.191,-3.1717,-3.1621,-3.1115,-3.0946,-3.0874,-3.0326,-3.0518,-3.0946,-3.0922,-3.0946,-3.1067,-3.1548,-3.1308,-3.0946,-3.0946,-3.0946,-3.0783,-3.0278,-3.0158,-3.0158,-3.0158,-2.9725,-2.9316,-2.9268,-2.8835,-2.8522,-2.8522,-2.8522,-2.833,-2.7762,-2.6791,-2.6117,-2.6093,-2.5612,-2.5107,-2.4568,-2.4496,-2.4097,-2.3144,-2.3039,-2.2799,-2.2294,-2.227,-2.227,-2.227,-2.227,-2.227,-2.227,-2.2775,-2.3047,-2.3039,-2.3577,-2.3794,-3.1512,-3.3621,-3.5253,-3.6784,-3.696,-3.6584,-3.5906,-3.4349,-3.2566,-3.0783,-2.7996,-2.5586,0.0,0.0,0.0,-2.9076,-3.1763,0.0,-3.826,-3.8708,0.0,-3.8522,0.0,-3.7946,-3.7427,-3.8405,0.0,0.0,-3.9669,-4.0081,-4.0193,-4.0827,-4.0844,-4.0134,-3.97,-3.9421,-3.927,-3.8291,-3.7312,-3.6405,-3.6405,-3.6405,-3.6405,-3.6405,-3.6056,-3.5483,-3.4853,-3.4144,-3.336,-3.2523,-3.2346,-3.2499,-3.2533,-3.2731,-3.3044,-3.2635,-3.2491,-3.2418,-3.191,-3.1717,-3.1693,-3.1548,-3.15,-3.1476,-3.1356,-3.1404,-3.1428,-3.1019,-3.1211,-3.1452,-3.1187,-3.1308,-3.15,-3.15,-3.15,-3.1476,-3.1332,-3.1308,-3.1308,-3.1308,-3.0518,-2.9629,-2.8859,-2.8595,-2.8522,-2.8522,-2.8522,-2.833,-2.7762,-2.709,-2.6513,-2.6142,-2.5612,-2.5252,-2.5131,-2.4712,-2.441,-2.4145,-2.3785,-2.3529,-2.3408,-2.3408,-2.3408,-2.3408,-2.3408,-2.3408,-2.3408,-2.3529,-2.3601,-2.3601,-2.3746,-2.3794,-3.3922,-3.583,-3.7186,-3.7563,-3.7236,-3.6282,-3.4198,-3.2491,-3.0466,-2.7178,-2.49,0.0,-2.1876,0.0,0.0,0.0,0.0,0.0,-3.792,-3.8752,-3.9306,0.0,-4.0387,0.0,-3.9697,-4.0618,-4.1367,0.0,-4.1671,-4.1469,-4.1106,-4.1595,-4.1419,-4.0415,-4.0364,-4.0134,-3.9672,-3.8312,-3.7211,-3.6405,-3.6405,-3.6405,-3.6405,-3.6405,-3.6056,-3.5458,0.0,-3.4065,-3.3449,-3.2509,-3.2352,-3.2621,-3.2354,-3.2457,-3.2675,-3.2295,-3.213,-3.2082,-3.1813,-3.1717,-3.1717,-3.1717,-3.1717,-3.1717,-3.1717,-3.1717,-3.1645,-3.1356,-3.1476,-3.1645,-3.1356,-3.1476,-3.1717,-3.1717,-3.1717,-3.1717,-3.1717,-3.1717,-3.1573,-3.1115,-3.0494,-2.9749,-2.8691,-2.8522,-2.8522,-2.8522,-2.8522,-2.8402,-2.8114,-2.7378,-2.6777,-2.6502,-2.5781,-2.53,-2.53,-2.5035,-2.4771,-2.4496,-2.4266,-2.4001,-2.3818,-2.3794,-2.3794,-2.3794,-2.3794,-2.3794,-2.3794,-2.4001,-2.4097,-2.4097,-2.4338,-2.4458,-3.5382,-3.696,-3.8015,-3.7538,-3.6933,-3.5525,-3.2064,-3.0494,-2.8324,-2.3165,0.0,-2.1667,-1.999,-2.1142,-2.3312,-2.6281,0.0,-3.2042,-3.6893,-3.7975,-3.9302,-4.2082,-4.1863,-4.1589,-4.1727,-4.2485,-4.3189,-4.3771,-4.38,-4.3388,-4.2363,-4.2733,-4.2501,-4.1468,-4.134,-4.0788,-3.9807,-3.828,-3.7315,-3.6756,-3.664,-3.6593,-3.6593,-3.6452,-3.615,-3.5642,-3.4869,-3.43,-3.377,-3.2896,-3.2542,-3.2498,-3.2162,-3.1981,-3.1981,-3.1761,-3.1717,-3.1717,-3.1717,-3.1717,-3.1717,-3.1717,-3.1717,-3.1717,-3.1717,-3.1717,-3.1717,-3.1717,-3.1717,-3.1717,-3.1717,-3.1717,-3.1717,-3.1717,-3.1717,-3.1717,-3.1717,-3.1717,-3.1404,-3.0302,-3.0086,-2.9749,-2.8691,-2.8522,-2.8522,-2.8522,-2.8522,-2.8522,-2.8522,-2.7618,-2.6994,-2.6994,-2.6069,-2.542,-2.542,-2.5348,-2.5107,-2.465,-2.4626,-2.4434,-2.4035,-2.4011,-2.4011,-2.4011,-2.4011,-2.4011,-2.4011,-2.441,-2.4626,-2.4592,-2.5083,-2.53,-3.7136,-3.814,-3.8693,-3.8642,-3.7487,-3.5403,-3.1612,-2.8522,0.0,0.0,-1.9835,-1.889,-1.9107,-2.045,-2.2977,-2.7497,0.0,0.0,0.0,0.0,-4.137,0.0,0.0,0.0,0.0,0.0,0.0,0.0,0.0,-4.5029,-4.3957,-4.3975,-4.3579,-4.255,-4.1989,-4.1423,-4.0749,-3.9945,-3.9264,-3.872,-3.7933,-3.7546,-3.7546,-3.6756,-3.6497,-3.6689,-3.5704,0.0,-3.5538,-3.3947,-3.3306,-3.3212,-3.2328,-3.1981,-3.1981,-3.1761,-3.1717,-3.1717,-3.1717,-3.1717,-3.1717,-3.1717,-3.1717,-3.1717,-3.1717,-3.1717,-3.1717,-3.1717,-3.1717,-3.1717,-3.1717,-3.1717,-3.1717,-3.1717,-3.1717,-3.1717,-3.1717,-3.1717,-3.1404,-3.0302,-3.0086,-2.9749,-2.8691,-2.8522,-2.8522,-2.8522,-2.8522,-2.8522,-2.8522,-2.7969,-2.7546,-2.7546,-2.6622,-2.5973,-2.5973,-2.5564,-2.5276,-2.518,-2.518,-2.5131,-2.5035,-2.5035,-2.5035,-2.5035,-2.5035,-2.5035,-2.5035,-2.5131,-2.518,-2.518,-2.5276,-2.53,-3.8636,-3.955,-3.9952,-3.9411,-3.8049,-3.5366,-2.9758,0.0,0.0,0.0,-1.8548,-1.8636,-1.8851,0.0,0.0,0.0,0.0,0.0,0.0,0.0,0.0,0.0,0.0,0.0,0.0,0.0,0.0,0.0,0.0,-4.5429,-4.4359,-4.3796,-4.3393,-4.3136,-4.2269,-4.1622,-4.1339,-4.0423,-3.9735,-3.921,-3.872,-3.8541,-3.8496,-3.8043,-3.7684,-3.7377,-3.6593,0.0,-3.5686,-3.457,-3.4145,-3.4075,-3.3469,-3.3236,-3.3142,-3.2536,-3.2281,-3.2188,-3.1834,-3.1717,-3.1717,-3.1717,-3.1717,-3.1717,-3.1717,-3.1717,-3.1717,-3.1717,-3.1717,-3.1717,-3.1717,-3.1717,-3.1717,-3.1717,-3.1717,-3.1717,-3.1717,-3.1717,-3.1404,-3.0302,-3.0086,-2.9749,-2.8691,-2.8522,-2.8522,-2.8522,-2.8522,-2.8522,-2.8522,-2.8282,-2.8017,-2.7714,-2.7007,-2.6406,-2.6117,-2.5877,-2.5612,-2.5324,-2.53,-2.53,-2.53,-2.53,-2.53,-2.53,-2.53,-2.53,-2.53,-2.53,-2.53,-2.53,-2.53,-2.53,-3.988,-4.0792,-4.0906,-3.9699,-3.8264,-3.5237,-2.8087,-2.5787,0.0,0.0,-1.7968,-1.8973,-1.8959,0.0,-2.272,0.0,0.0,0.0,0.0,0.0,0.0,0.0,0.0,0.0,0.0,0.0,0.0,0.0,0.0,0.0,-4.4712,-4.389,-4.3565,-4.3732,-4.2786,-4.2157,-4.1892,-4.0935,-4.025,-3.9826,-3.9607,-3.9519,-3.9519,-3.9299,-3.881,-3.8088,-3.7415,0.0,-3.5932,-3.5173,-3.4856,-3.4856,-3.4504,-3.4388,-3.4268,-3.3391,-3.2995,-3.2876,-3.2188,-3.193,-3.193,-3.1886,-3.1813,-3.1717,-3.1717,-3.1717,-3.1717,-3.1717,-3.1717,-3.1741,-3.1862,-3.1886,-3.1886,-3.1886,-3.1789,-3.1717,-3.1717,-3.1717,-3.1428,-3.0446,-3.0158,-2.9797,-2.8835,-2.8595,-2.8522,-2.8522,-2.8522,-2.8522,-2.8522,-2.8522,-2.8354,-2.7945,-2.7378,-2.6898,-2.6478,-2.6238,-2.5925,-2.5516,-2.5372,-2.53,-2.53,-2.53,-2.53,-2.53,-2.53,-2.53,-2.53,-2.53,-2.53,-2.53,-2.53,-2.53,-4.0555,-4.1404,-4.0801,-3.9223,-3.767,-3.474,-2.7884,0.0,0.0,-1.8569,-1.8147,-1.8755,-1.9309,-1.9519,-2.0996,0.0,0.0,-2.8423,0.0,0.0,0.0,0.0,0.0,0.0,0.0,0.0,0.0,0.0,0.0,0.0,-4.573,-4.564,-4.5351,-4.4775,-4.4138,-4.3502,-4.2865,-4.2231,-4.1872,-4.1814,-4.0887,-4.0475,-4.0432,-3.9607,-3.9166,-3.9033,-3.8107,0.0,0.0,-3.6003,-3.5433,-3.5382,-3.4653,-3.4388,-3.4363,-3.4016,-3.3762,-3.3438,-3.2901,-3.2686,-3.2665,-3.2509,-3.2082,-3.1717,-3.1717,-3.1717,-3.1717,-3.1717,-3.1717,-3.1813,-3.2298,-3.2418,-3.2418,-3.2418,-3.2034,-3.1717,-3.1717,-3.1717,-3.1548,-3.0946,-3.0422,-2.9893,-2.9316,-2.8835,-2.8522,-2.8522,-2.8522,-2.8522,-2.8522,-2.8522,-2.8498,-2.845,-2.7969,-2.7594,-2.7584,-2.6671,-2.6069,-2.6021,-2.5564,-2.53,-2.53,-2.53,-2.53,-2.53,-2.53,-2.53,-2.53,-2.53,-2.53,-2.53,-2.53,-2.53,-3.9787,-4.1907,-4.2617,-4.0859,-3.8978,-3.5695,-2.8663,0.0,-2.3217,-1.8719,-1.8364,-1.8883,-1.8905,-1.9055,-1.999,0.0,0.0,0.0,0.0,0.0,0.0,0.0,0.0,0.0,0.0,0.0,0.0,0.0,0.0,0.0,-4.5314,-4.5285,-4.4995,-4.4356,-4.3718,-4.3079,-4.244,-4.2208,-4.2092,-4.2092,-4.166,-4.1493,-4.1493,-4.1128,-4.0631,-4.0,-3.9033,0.0,0.0,-3.6366,-3.5821,-3.5749,-3.5503,-3.5357,-3.5332,-3.4867,-3.4558,-3.423,-3.353,-3.329,-3.3268,-3.3063,-3.2919,-3.2817,-3.268,-3.2418,-3.2178,-3.2178,-3.1958,-3.1765,-3.1982,-3.201,-3.2082,-3.2418,-3.2082,-3.1717,-3.1717,-3.1717,-3.1548,-3.1019,-3.0754,-3.0302,-2.9436,-2.9124,-2.8883,-2.857,-2.8522,-2.8522,-2.8522,-2.8522,-2.8522,-2.8522,-2.833,-2.8065,-2.7753,-2.732,-2.6935,-2.6585,-2.6093,-2.5781,-2.5781,-2.5468,-2.53,-2.53,-2.53,-2.53,-2.53,-2.53,-2.53,-2.53,-2.53,-2.53,-3.8217,-4.104,-4.2553,-4.1152,-3.8939,-3.5331,0.0,0.0,-2.2867,-1.8966,-1.8655,-1.9007,-1.8712,-1.8912,-1.9449,0.0,0.0,-2.3136,0.0,0.0,0.0,0.0,0.0,0.0,0.0,0.0,0.0,0.0,0.0,0.0,-4.5198,-4.4821,-4.4327,-4.3718,-4.3224,-4.2702,-4.2121,-4.2092,-4.2092,-4.2092,-4.2092,-4.1968,-4.1689,-4.1968,-4.1241,-3.9782,-3.9387,0.0,0.0,-3.6452,-3.6098,-3.6098,-3.6003,-3.6051,-3.6048,-3.5603,-3.5313,-3.5075,-3.4323,-3.4081,-3.4013,-3.3734,-3.3827,-3.4037,-3.3834,-3.3164,-3.2466,-3.2298,-3.2202,-3.2223,-3.2322,-3.237,-3.2418,-3.2683,-3.2322,-3.191,-3.1741,-3.1717,-3.1597,-3.1235,-3.1019,-3.0639,-2.9893,-2.9508,-2.9172,-2.8811,-2.8619,-2.8522,-2.8522,-2.8522,-2.8522,-2.8522,-2.8522,-2.8354,-2.7993,-2.7762,-2.7522,-2.7162,-2.6647,-2.6358,-2.6358,-2.5973,-2.5781,-2.5781,-2.5781,-2.5709,-2.554,-2.554,-2.5468,-2.53,-2.53,-2.53,-3.5798,-3.8393,-3.9466,-3.9043,-3.6682,-3.3038,0.0,0.0,-2.1481,-1.9488,-1.9082,-1.9101,-1.9082,-1.9101,-1.9333,-2.0001,0.0,0.0,0.0,0.0,0.0,0.0,0.0,0.0,0.0,0.0,0.0,0.0,0.0,0.0,-4.5866,-4.4676,-4.3689,-4.3021,-4.2992,-4.2702,-4.2121,-4.2092,-4.2092,-4.2092,-4.2092,-4.1577,-4.0646,-4.166,-4.0531,-3.7887,0.0,0.0,0.0,-3.6405,-3.6405,-3.6358,-3.6098,-3.6146,-3.6358,-3.6098,-3.6003,-3.5928,-3.5379,-3.5158,-3.509,-3.455,-3.4762,-3.5142,-3.4848,-3.3717,-3.2394,-3.1886,-3.2488,-3.338,-3.3838,-3.3958,-3.3838,-3.3404,-3.2875,-3.2346,-3.1837,-3.1717,-3.1717,-3.1693,-3.1284,-3.0922,-3.0898,-2.9989,-2.9292,-2.9292,-2.8835,-2.8522,-2.8522,-2.8522,-2.8522,-2.8522,-2.8522,-2.8522,-2.8498,-2.8017,-2.769,-2.7666,-2.7186,-2.6898,-2.6898,-2.6873,-2.6873,-2.6873,-2.6873,-2.6609,-2.6093,-2.6093,-2.5829,-2.53,-2.53,-2.53,-3.0594,-3.3038,-3.4501,-3.348,-3.183,-2.9493,-2.5586,0.0,-2.1452,-1.9508,-1.9101,-1.9101,-1.9101,-1.9101,-1.9595,-2.1162,-2.154,0.0,0.0,0.0,0.0,0.0,0.0,0.0,0.0,0.0,0.0,0.0,0.0,0.0,-4.5227,-4.4443,-4.3892,-4.3689,-4.2847,-4.2295,-4.2092,-4.2092,-4.2092,-4.2092,-4.2092,-4.1939,-4.1619,-4.1254,-4.056,0.0,0.0,0.0,0.0,-3.6452,-3.6146,-3.6098,-3.6003,-3.6051,-3.6146,-3.6241,-3.6146,-3.6003,-3.5804,-3.5754,-3.566,-3.5111,-3.5057,-3.5065,-3.4236,-3.4044,-3.3918,-3.3174,-3.3158,-3.3404,-3.3862,-3.3742,-3.3477,-3.3332,-3.2875,-3.2346,-3.1837,-3.1717,-3.1717,-3.1717,-3.1573,-3.1356,-3.097,-3.0302,-2.9725,-2.9364,-2.8859,-2.8522,-2.8522,-2.8522,-2.8522,-2.8522,-2.8522,-2.8522,-2.8522,-2.8354,-2.8258,-2.8258,-2.7714,-2.7426,-2.7426,-2.709,-2.6898,-2.6898,-2.6898,-2.6801,-2.6633,-2.6633,-2.6382,-2.5853,-2.5853,-2.5661,0.0,-2.8942,-3.0538,-3.0045,-2.8536,0.0,0.0,0.0,-2.0553,-1.9362,-1.9101,-1.9101,-1.9101,-1.9101,-1.9508,-2.0698,-2.1104,0.0,0.0,0.0,0.0,0.0,0.0,0.0,0.0,0.0,0.0,0.0,0.0,0.0,-4.5285,-4.4472,-4.3979,-4.3979,-4.276,-4.2092,-4.2092,-4.2092,-4.2092,-4.2092,-4.2092,-4.1897,-4.1535,-4.1296,-4.0589,0.0,0.0,0.0,0.0,-3.6452,-3.6146,-3.6146,-3.6051,-3.6051,-3.6146,-3.6241,-3.6193,-3.6146,-3.6146,-3.6146,-3.6098,-3.5668,-3.5447,-3.5244,-3.4804,-3.4462,-3.4173,-3.4108,-3.3946,-3.3974,-3.4508,-3.4387,-3.4096,-3.3902,-3.3349,-3.282,-3.2482,-3.2026,-3.1765,-3.1982,-3.1862,-3.1597,-3.1284,-3.0778,-3.0206,-2.9677,-2.9148,-2.8739,-2.8546,-2.8522,-2.8522,-2.8522,-2.8522,-2.8522,-2.8522,-2.8522,-2.8522,-2.8522,-2.821,-2.7978,-2.7978,-2.7666,-2.7498,-2.7498,-2.7498,-2.7402,-2.7186,-2.6994,-2.6705,-2.6406,-2.6406,-2.6117,0.0,-2.5723,-2.7231,-2.7839,-2.6213,-2.4099,-2.2888,0.0,0.0,-1.9101,-1.9101,-1.9101,-1.9159,-1.913,-1.9159,-1.9275,-1.9856,0.0,0.0,0.0,0.0,0.0,0.0,0.0,0.0,0.0,0.0,-4.5895,-4.5837,0.0,-4.5895,-4.4676,-4.3979,-4.3979,-4.276,-4.2092,-4.2092,-4.2092,-4.2092,-4.2092,-4.2092,-4.1619,-4.0731,-4.1577,-4.0531,0.0,0.0,-3.8088,0.0,-3.6452,-3.6405,-3.6358,-3.6146,-3.6193,-3.6358,-3.6098,-3.6193,-3.6405,-3.6405,-3.6405,-3.6358,-3.6048,-3.581,-3.5642,-3.6166,-3.4931,-3.358,-3.4588,-3.4858,-3.4981,-3.5498,-3.5596,-3.5424,-3.4883,-3.4157,-3.3557,-3.3533,-3.2596,-3.1906,-3.2391,-3.2054,-3.1717,-3.1717,-3.1259,-3.0711,-3.0206,-2.9701,-2.9172,-2.8643,-2.857,-2.8546,-2.8522,-2.8522,-2.8522,-2.8522,-2.8522,-2.8522,-2.8522,-2.8522,-2.8522,-2.8522,-2.8522,-2.8522,-2.8522,-2.8522,-2.8258,-2.7777,-2.7258,-2.6994,-2.6946,-2.6946,-2.6657,-2.0204,0.0,-2.1162,-2.1307,-2.0901,-2.0378,0.0,0.0,0.0,0.0,0.0,0.0,0.0,-1.9449,-1.9595,-2.1075,-2.1837,-2.2707,-2.3954,0.0,0.0,0.0,0.0,0.0,0.0,0.0,-4.5343,-4.5837,-4.5401,-4.5343,-4.5866,-4.4676,-4.3979,-4.3979,-4.276,-4.2092,-4.2092,-4.2092,-4.2092,-4.2092,-4.2092,-4.1968,-4.1731,-4.1212,-4.056,-3.9869,-3.8675,-3.7887,-3.7407,-3.6687,-3.6405,-3.6405,-3.631,-3.631,-3.6405,-3.631,-3.6358,-3.6405,-3.6405,-3.6405,-3.6282,-3.5787,-3.5475,-3.5335,-3.5637,-3.5382,-3.5151,-3.5612,-3.5567,-3.5448,-3.5596,-3.5325,-3.4858,-3.4318,-3.3731,-3.3195,-3.2779,-3.244,-3.2206,-3.2107,-3.2034,-3.1893,-3.1717,-3.1259,-3.0874,-3.0711,-3.023,-2.9701,-2.9172,-2.91,-2.8955,-2.8546,-2.8522,-2.8522,-2.8522,-2.8522,-2.8522,-2.8522,-2.8522,-2.8522,-2.8522,-2.8522,-2.8522,-2.8522,-2.8522,-2.845,-2.833,-2.821,-2.7882,-2.7498,-2.7498,-2.721,-1.8836,-1.9171,-1.9566,-1.9566,-1.9566,-1.9566,-1.9566,0.0,0.0,0.0,0.0,0.0,0.0,0.0,0.0,0.0,-2.2556,0.0,0.0,0.0,0.0,0.0,0.0,0.0,0.0,0.0,-4.5488,-4.5866,-4.5547,-4.5372,-4.543,-4.4501,-4.3863,-4.3544,-4.2586,-4.2092,-4.2092,-4.2092,-4.2092,-4.2092,-4.2092,-4.1947,-4.1628,-4.1076,-4.0419,-3.9676,-3.8999,-3.8051,-3.6948,-3.6991,-3.6629,-3.6006,-3.6304,-3.6405,-3.6405,-3.6405,-3.6405,-3.6405,-3.6405,-3.6405,-3.6355,-3.6006,-3.5837,-3.579,-3.5884,-3.5943,-3.6003,-3.6146,-3.6098,-3.6003,-3.6003,-3.5779,-3.536,-3.4814,-3.4202,-3.3662,-3.3321,-3.2832,-3.243,-3.2543,-3.2328,-3.2181,-3.2025,-3.1695,-3.1342,-3.1076,-3.07,-3.0254,-2.9725,-2.9436,-2.9196,-2.8907,-2.8643,-2.8522,-2.8522,-2.8522,-2.8522,-2.8522,-2.8522,-2.8522,-2.8522,-2.8522,-2.8522,-2.8522,-2.8522,-2.8522,-2.8522,-2.8522,-2.8354,-2.8089,-2.8089,-2.7762,-1.8613,-1.9444,-2.022,-1.9951,-1.9991,-2.0088,-1.9972,0.0,0.0,0.0,0.0,0.0,0.0,-1.9624,0.0,0.0,0.0,0.0,0.0,0.0,0.0,0.0,0.0,0.0,-4.5372,-4.5547,-4.5634,-4.5721,-4.5547,-4.5285,-4.4908,-4.4211,-4.3573,-4.3021,-4.2411,-4.2063,-4.1947,-4.2034,-4.2092,-4.2092,-4.2005,-4.1657,-4.1105,-4.0989,-4.021,-3.8927,0.0,0.0,-3.6471,-3.749,-3.7079,-3.5821,-3.6185,-3.6341,-3.6341,-3.6301,-3.6279,-3.6304,-3.638,-3.6405,-3.6405,-3.6405,-3.6405,-3.6405,-3.6405,-3.6405,-3.6405,-3.6405,-3.6405,-3.6405,-3.6405,-3.6355,-3.6107,-3.5508,-3.4819,-3.4284,-3.4259,-3.336,-3.2734,-3.3158,-3.2862,-3.2518,-3.24,-3.2225,-3.1923,-3.1436,-3.1191,-3.085,-3.0362,-2.9863,-2.9508,-2.9436,-2.8955,-2.8619,-2.8619,-2.857,-2.8522,-2.8522,-2.8522,-2.8522,-2.8522,-2.8522,-2.8522,-2.8522,-2.8522,-2.8522,-2.8522,-2.8522,-2.8522,-2.8522,-2.8522,-2.8282,-1.9128,-2.0147,-2.0741,-1.9135,-1.9448,-1.9943,0.0,0.0,0.0,0.0,0.0,0.0,0.0,-2.1953,-2.291,0.0,0.0,-3.1816,0.0,0.0,0.0,0.0,0.0,-4.5024,-4.3573,-4.395,-4.4501,-4.4995,-4.4037,-4.3863,-4.4821,-4.3776,-4.3108,-4.2992,-4.2411,-4.1831,-4.125,-4.1802,-4.2092,-4.2092,-4.1512,-4.1192,-4.1076,-4.0495,-4.0126,-3.9881,0.0,-3.9159,-3.827,-3.8265,-3.7752,-3.694,-3.6279,-3.6067,-3.603,-3.5755,-3.5633,-3.5683,-3.6207,-3.6405,-3.6405,-3.6405,-3.6405,-3.6405,-3.6405,-3.6405,-3.6405,-3.6405,-3.6405,-3.6405,-3.6405,-3.6006,-3.5483,-3.4931,-3.4379,-3.3978,-3.3978,-3.3809,-3.362,-3.3474,-3.338,-3.3138,-3.2518,-3.2356,-3.2332,-3.2234,-3.1991,-3.1666,-3.1107,-3.0791,-3.047,-3.0013,-2.9484,-2.9172,-2.9172,-2.8763,-2.8522,-2.8522,-2.8522,-2.8522,-2.8522,-2.8522,-2.8522,-2.8522,-2.8522,-2.8522,-2.8522,-2.8522,-2.8522,-2.8522,-2.8522,-2.8474,-1.8458,-1.9578,-2.0541,-2.0112,-2.0819,-2.1344,0.0,0.0,0.0,0.0,0.0,0.0,0.0,0.0,-2.5375,-2.9755,0.0,-3.5764,-3.8899,-4.035,-4.1482,0.0,0.0,-4.4647,-4.4066,-4.4298,-4.4443,-4.4414,-4.3863,-4.3631,-4.3863,-4.2992,-4.2353,-4.1976,-4.1686,-4.1221,-4.0554,-4.1221,-4.1366,-4.1018,-4.1076,-4.0728,-4.006,-3.9741,-3.9421,-3.9064,0.0,-3.8785,-3.777,-3.8283,-3.7853,-3.686,-3.6759,-3.6392,-3.5947,-3.5623,-3.5683,-3.6031,-3.6329,-3.6405,-3.6405,-3.6405,-3.6405,-3.6405,-3.6405,-3.6157,-3.5981,-3.6329,-3.6405,-3.6405,-3.6405,-3.5956,-3.5357,-3.4806,-3.4299,-3.3822,-3.352,-3.3445,-3.3401,-3.3314,-3.3271,-3.3196,-3.2816,-3.2636,-3.255,-3.255,-3.2332,-3.2059,-3.1685,-3.1307,-3.093,-3.0585,-2.9797,-2.9292,-2.9292,-2.8811,-2.8522,-2.8522,-2.8522,-2.8522,-2.8522,-2.8522,-2.8522,-2.8522,-2.8522,-2.8522,-2.8522,-2.8522,-2.8522,-2.8522,-2.8522,-2.8522,-1.7977,-1.8994,-2.0128,-2.0597,0.0,0.0,0.0,0.0,0.0,0.0,0.0,0.0,0.0,-2.5578,0.0,-3.4196,-3.6983,-3.9247,-4.1657,-4.2121,-4.2702,-4.4037,-4.4211,-4.4269,-4.4414,-4.4443,-4.424,-4.3805,-4.3631,-4.3398,-4.3021,-4.2266,-4.1628,-4.1105,-4.0931,-4.0554,-3.9886,-4.0525,-4.0612,-4.0089,-4.0466,-4.0147,-3.9189,-3.9044,-3.8696,-3.8231,-3.8899,-3.8342,-3.7109,-3.8286,-3.7861,-3.6443,-3.6795,-3.6332,-3.5502,-3.5355,-3.5705,-3.6182,-3.6355,-3.6405,-3.6405,-3.6405,-3.6405,-3.6405,-3.6405,-3.6081,-3.583,-3.6279,-3.6405,-3.6405,-3.6405,-3.5956,-3.5357,-3.4806,-3.4399,-3.3972,-3.3545,-3.347,-3.347,-3.347,-3.347,-3.342,-3.3294,-3.3139,-3.3034,-3.3158,-3.2766,-3.2425,-3.2308,-3.1777,-3.1307,-3.1091,-3.023,-2.9605,-2.9484,-2.91,-2.8835,-2.8691,-2.857,-2.8522,-2.8522,-2.8522,-2.8522,-2.8522,-2.8522,-2.8522,-2.8522,-2.8522,-2.8522,-2.8522,-2.8522,-2.8522,-1.8464,-1.9205,-1.9604,-1.9117,-2.0535,0.0,-2.572,-2.5919,0.0,-2.697,0.0,0.0,0.0,-3.0364,-3.3823,-3.6635,-3.9712,-4.2411,-4.4356,0.0,-4.5372,-4.4879,-4.4821,-4.4385,-4.3224,-4.3137,-4.3108,-4.3079,-4.2557,-4.244,-4.2963,-4.1831,-4.1134,-4.1105,-4.0495,-3.9886,-3.9276,-3.9857,-4.0147,-4.0089,-3.9567,-3.9305,-3.9189,-3.8551,-3.826,-3.8231,-3.8899,-3.8455,-3.7366,-3.861,-3.792,-3.6028,-3.58,-3.5042,-3.4111,-3.4575,-3.5082,-3.5633,-3.6182,-3.6405,-3.6405,-3.6405,-3.6405,-3.6405,-3.6405,-3.638,-3.6355,-3.6405,-3.6405,-3.6405,-3.6405,-3.5956,-3.5357,-3.4806,-3.47,-3.465,-3.458,-3.4555,-3.4555,-3.4555,-3.4555,-3.4449,-3.3922,-3.3847,-3.3978,-3.448,-3.3457,-3.2766,-3.3064,-3.245,-3.1889,-3.1645,-3.1139,-3.0567,-3.0062,-2.9989,-2.9773,-2.9268,-2.8787,-2.8522,-2.8522,-2.8522,-2.8522,-2.8522,-2.8522,-2.8522,-2.8522,-2.8522,-2.8522,-2.8522,-2.8522,-2.8522,-1.7606,-1.894,-2.0316,-2.1296,-2.2596,0.0,0.0,-2.6714,-2.7911,-2.9233,-2.9813,0.0,0.0,0.0,-3.6083,-3.8638,-4.0757,-4.276,-4.4618,-4.4792,-4.4763,-4.4879,-4.456,-4.3979,-4.3079,-4.2992,-4.2673,-4.1889,-4.1599,-4.1395,-4.1192,-4.0379,-3.9915,-3.9915,-3.9683,-3.9218,-3.858,-3.9218,-3.9334,-3.8928,-3.9102,-3.8986,-3.858,-3.8318,-3.8202,-3.8202,-3.8086,-3.7767,-3.7302,-3.7389,-3.7147,-3.671,-3.5928,-3.5228,-3.4709,-3.4679,-3.5031,-3.5583,-3.6182,-3.6405,-3.6405,-3.6405,-3.6405,-3.6355,-3.5956,-3.5855,-3.5855,-3.5855,-3.5855,-3.5855,-3.5855,-3.5408,-3.4856,-3.4349,-3.4198,-3.4198,-3.4198,-3.4198,-3.4299,-3.465,-3.4449,-3.4248,-3.4374,-3.4399,-3.4474,-3.47,-3.3984,-3.3408,-3.3207,-3.2631,-3.2113,-3.1761,-3.1235,-3.0663,-3.0134,-3.0086,-2.9869,-2.934,-2.91,-2.8859,-2.8522,-2.8522,-2.8522,-2.8522,-2.8522,-2.8522,-2.8522,-2.8522,-2.8522,-2.8522,-2.8522,-2.8522,-1.7259,-1.8822,-2.0667,-2.2058,0.0,0.0,-2.6975,-2.8308,-2.9879,-3.2214,-3.2716,0.0,0.0,0.0,0.0,0.0,-4.1105,-4.2905,-4.4385,-4.424,-4.4066,-4.4269,-4.3921,-4.3427,-4.276,-4.2702,-4.2266,-4.1163,-4.1105,-4.0815,-4.0147,-3.9538,-3.9189,-3.9189,-3.8986,-3.8667,-3.8202,-3.8667,-3.8551,-3.7912,-3.8376,-3.8376,-3.7912,-3.7709,-3.7593,-3.7593,-3.7157,-3.6896,-3.6664,-3.6151,-3.6008,-3.6003,-3.513,-3.4706,-3.4513,-3.4471,-3.4781,-3.5307,-3.5906,-3.6107,-3.6107,-3.6107,-3.5981,-3.578,-3.5357,-3.5357,-3.5508,-3.5508,-3.5508,-3.5508,-3.5508,-3.5232,-3.4806,-3.4299,-3.4299,-3.4424,-3.4424,-3.4424,-3.4525,-3.4856,-3.4675,-3.455,-3.4881,-3.4931,-3.5052,-3.5203,-3.4625,-3.404,-3.3637,-3.3034,-3.2396,-3.1785,-3.138,-3.1019,-3.0657,-3.0633,-3.0374,-2.9821,-2.9797,-2.9412,-2.8546,-2.8522,-2.8522,-2.8522,-2.8522,-2.8522,-2.8522,-2.8522,-2.8595,-2.8763,-2.8763,-2.8859,-1.7693,-1.9086,-2.0497,0.0,0.0,0.0,-3.1034,-3.1185,-3.1874,-3.6373,0.0,-3.5421,-3.5421,0.0,0.0,-3.7999,-4.0902,-4.3224,-4.3892,-4.3979,-4.3718,-4.3079,-4.2992,-4.2731,-4.215,-4.2092,-4.1802,-4.1134,-4.1076,-4.0786,-4.0118,-3.9509,-3.9189,-3.9189,-3.8551,-3.8202,-3.8173,-3.8173,-3.7883,-3.7302,-3.7302,-3.7302,-3.7273,-3.6606,-3.6315,-3.6315,-3.6286,-3.5938,-3.5415,-3.5273,-3.4525,-3.348,-3.3225,-3.3111,-3.3144,-3.3696,-3.4248,-3.4756,-3.5307,-3.5483,-3.5483,-3.5483,-3.5132,-3.468,-3.468,-3.5056,-3.5508,-3.5483,-3.5508,-3.5508,-3.5508,-3.5508,-3.5357,-3.4806,-3.5107,-3.5508,-3.5508,-3.5508,-3.5508,-3.5508,-3.5508,-3.5508,-3.5508,-3.5508,-3.5683,-3.6329,-3.5429,-3.4635,-3.4409,-3.3666,-3.2812,-3.1809,-3.1717,-3.1717,-3.1717,-3.1717,-3.1476,-3.0946,-3.0922,-3.0158,-2.857,-2.8522,-2.8522,-2.8522,-2.8522,-2.8522,-2.8522,-2.8522,-2.8787,-2.9292,-2.9316,-2.9581,-1.8051,-2.0175,0.0,0.0,0.0,0.0,0.0,-3.1985,0.0,0.0,0.0,-3.7215,-3.6809,0.0,0.0,-3.9421,-4.0728,-4.2034,-4.3137,-4.2934,-4.2731,-4.2963,-4.2615,-4.2121,-4.1453,-4.1395,-4.0931,-3.9857,-3.977,-3.9479,-3.8812,-3.858,-3.8289,-3.7883,-3.768,-3.7331,-3.6867,-3.6867,-3.678,-3.6606,-3.617,-3.617,-3.6606,-3.6402,-3.6315,-3.6286,-3.5822,-3.5566,-3.5381,-3.5172,-3.4175,-3.2946,-3.3716,-3.3666,-3.3144,-3.3696,-3.3997,-3.4223,-3.4731,-3.4931,-3.4931,-3.4931,-3.4806,-3.465,-3.4248,-3.4801,-3.5408,-3.5031,-3.5529,-3.6031,-3.5608,-3.583,-3.5881,-3.4951,-3.5107,-3.5508,-3.5508,-3.5508,-3.5608,-3.6031,-3.5805,-3.5608,-3.6056,-3.6107,-3.6182,-3.638,-3.5429,-3.4315,-3.3143,-3.2587,-3.222,-3.1761,-3.1717,-3.1717,-3.1717,-3.1717,-3.1476,-3.0946,-3.0922,-3.0326,-2.9124,-2.9051,-2.8883,-2.8522,-2.8522,-2.8522,-2.8522,-2.8883,-2.9148,-2.9316,-2.9677,-2.9941,-1.8428,0.0,0.0,0.0,0.0,0.0,0.0,0.0,0.0,0.0,0.0,-3.8928,-3.8841,-3.9015,0.0,-4.035,-4.1047,-4.1773,-4.2528,-4.2324,-4.2237,-4.2586,-4.2092,-4.1541,-4.1134,-4.0844,-4.0292,-3.9276,-3.9189,-3.8899,-3.8231,-3.797,-3.768,-3.7331,-3.7041,-3.6722,-3.6315,-3.6315,-3.617,-3.5938,-3.5566,-3.5479,-3.5561,-3.5561,-3.5561,-3.5532,-3.5154,-3.464,-3.4108,-3.4372,-3.353,-3.2257,-3.3415,-3.3768,-3.3607,-3.3575,-3.3958,-3.4405,-3.4407,-3.4399,-3.4349,-3.4148,-3.4073,-3.3972,-3.3395,-3.3997,-3.4831,-3.4705,-3.5203,-3.573,-3.583,-3.578,-3.5604,-3.5107,-3.5479,-3.5881,-3.5881,-3.5881,-3.5981,-3.6355,-3.6107,-3.5981,-3.6355,-3.6182,-3.6031,-3.6031,-3.5102,-3.4015,-3.297,-3.2435,-3.2069,-3.1849,-3.1761,-3.1717,-3.1717,-3.1717,-3.1573,-3.1259,-3.1235,-3.0807,-2.9965,-2.9532,-2.9244,-2.9148,-2.8931,-2.8931,-2.9148,-2.946,-2.9725,-2.9941,-3.0254,-3.0518,-1.8944,0.0,0.0,0.0,0.0,0.0,0.0,0.0,0.0,0.0,0.0,-4.0263,-4.0815,-4.0031,-3.9683,-4.0902,-4.1541,-4.1947,-4.2005,-4.1947,-4.1947,-4.2005,-4.1424,-4.0989,-4.0931,-4.0379,-3.9741,-3.9073,-3.9044,-3.8725,-3.8057,-3.7506,-3.7186,-3.7128,-3.6548,-3.6199,-3.6141,-3.6141,-3.5851,-3.5305,-3.5305,-3.5014,-3.4399,-3.4399,-3.4332,-3.4298,-3.4366,-3.3451,-3.2082,-3.3182,-3.2777,-3.1533,-3.2617,-3.3572,-3.4241,-3.3361,-3.393,-3.4923,-3.4027,-3.3746,-3.3671,-3.3169,-3.2993,-3.2893,-3.2365,-3.3018,-3.4022,-3.4575,-3.4751,-3.5027,-3.6031,-3.5554,-3.4881,-3.5382,-3.5931,-3.6355,-3.6405,-3.6405,-3.6405,-3.6405,-3.6405,-3.6405,-3.6405,-3.5956,-3.5533,-3.5433,-3.465,-3.3909,-3.3469,-3.2852,-3.2362,-3.205,-3.1849,-3.1717,-3.1789,-3.1741,-3.1741,-3.1789,-3.1741,-3.15,-3.1019,-2.9989,-2.9653,-3.0086,-2.9605,-2.9605,-3.0086,-3.0134,-3.0398,-3.0922,-3.097,-3.1259,0.0,-2.215,0.0,0.0,0.0,0.0,0.0,0.0,0.0,0.0,0.0,-4.0002,-3.9683,-3.977,-4.0176,-4.096,-4.0786,-4.0699,-4.125,-4.0873,-4.0728,-4.125,-4.0728,-4.0118,-3.9654,-3.9479,-3.8928,-3.7796,-3.7709,-3.7418,-3.6751,-3.6606,-3.6286,-3.5828,-3.5683,-3.5328,-3.4835,-3.4835,-3.4748,-3.4632,-3.4632,-3.4545,-3.4399,-3.4399,-3.4059,-3.3485,-3.4128,-3.3171,-3.1246,-3.2562,-3.2517,-3.1707,-3.2432,-3.3172,-3.3738,-3.2972,-3.3175,-3.3669,-3.2862,-3.2566,-3.2566,-3.2441,-3.239,-3.2365,-3.224,-3.3018,-3.4022,-3.4575,-3.4981,-3.5382,-3.5608,-3.5508,-3.5357,-3.5483,-3.5583,-3.583,-3.6329,-3.6405,-3.6405,-3.6405,-3.6405,-3.6405,-3.6405,-3.6304,-3.5881,-3.4981,-3.5031,-3.459,-3.3046,-3.3083,-3.2931,-3.2074,-3.1937,-3.2019,-3.2298,-3.1958,-3.191,-3.2298,-3.1958,-3.1669,-3.1548,-3.0922,-3.0398,-3.0086,-2.9989,-2.9965,-3.0086,-3.0494,-3.0802,-3.0922,-3.1356,-3.1597,0.0,0.0,0.0,0.0,0.0,0.0,0.0,0.0,0.0,0.0,0.0,-4.0002,-3.9683,-3.9886,-4.0205,-4.0554,-4.0321,-4.0205,-4.0554,-4.0321,-4.0234,-4.0583,-4.006,-3.9538,-3.9247,-3.8667,-3.8028,-3.736,-3.7012,-3.6664,-3.6315,-3.6025,-3.5741,-3.5421,-3.5101,-3.4748,-3.4399,-3.4399,-3.4399,-3.4399,-3.4399,-3.4399,-3.4399,-3.4399,-3.4162,-3.3791,-3.3825,-3.3108,-3.2028,-3.2651,-3.267,-3.2346,-3.2892,-3.3403,-3.3673,-3.2922,-3.2789,-3.293,-3.2101,-3.1813,-3.1763,-3.1537,-3.1788,-3.2164,-3.1888,-3.2616,-3.3621,-3.4173,-3.4525,-3.4781,-3.5031,-3.4906,-3.4831,-3.5382,-3.5508,-3.5658,-3.6279,-3.6405,-3.6405,-3.6405,-3.6405,-3.6405,-3.6405,-3.6132,-3.5604,-3.45,-3.4575,-3.4405,-3.3396,-3.3388,-3.3385,-3.3162,-3.2938,-3.2835,-3.3034,-3.2702,-3.2563,-3.2851,-3.237,-3.2058,-3.2058,-3.1597,-3.1163,-3.0898,-3.0591,-3.0591,-3.0898,-3.1163,-3.1308,-3.1308,-3.1573,-3.1717,0.0,0.0,0.0,0.0,0.0,0.0,0.0,0.0,0.0,0.0,0.0,-3.9642,-3.9876,-3.9739,-3.9642,-3.9876,-3.9857,-3.9799,-3.9915,-3.9857,-3.9799,-3.9915,-3.9392,-3.8986,-3.8899,-3.7912,-3.7215,-3.6983,-3.646,-3.6083,-3.5996,-3.5473,-3.5247,-3.5247,-3.469,-3.4399,-3.4399,-3.4399,-3.4399,-3.4399,-3.4399,-3.4399,-3.4399,-3.4399,-3.4332,-3.4162,-3.3624,-3.3248,-3.3023,-3.2983,-3.2954,-3.2972,-3.3311,-3.3566,-3.3642,-3.2645,-3.2411,-3.2411,-3.1559,-3.126,-3.121,-3.0859,-3.1361,-3.2014,-3.1637,-3.2265,-3.3194,-3.3746,-3.3897,-3.3997,-3.4449,-3.4248,-3.4123,-3.5006,-3.5207,-3.5454,-3.6254,-3.6405,-3.6405,-3.6405,-3.6405,-3.6405,-3.6405,-3.5981,-3.5307,-3.4349,-3.4248,-3.4248,-3.4073,-3.3945,-3.401,-3.4338,-3.3952,-3.3679,-3.3706,-3.3472,-3.3332,-3.3428,-3.2923,-3.2587,-3.2491,-3.2058,-3.1862,-3.1862,-3.1332,-3.1284,-3.1717,-3.1717,-3.1717,-3.1717,-3.1717,-3.1717,0.0,0.0,0.0,0.0,0.0,0.0,0.0,0.0,0.0,0.0,0.0,-3.7763,-3.9064,-3.8235,-3.7763,-3.9102,-3.8841,-3.8667,-3.9247,-3.8812,-3.8667,-3.9247,-3.8725,-3.8144,-3.7622,-3.7418,-3.6838,-3.5741,-3.5566,-3.5276,-3.469,-3.4574,-3.4545,-3.4545,-3.4457,-3.4399,-3.4399,-3.4399,-3.4399,-3.4399,-3.4399,-3.4399,-3.4399,-3.4399,-3.3997,-3.3416,-3.3962,-3.3485,-3.229,-3.2909,-3.315,-3.3107,-3.2545,-3.2717,-3.3112,-3.1665,-3.1444,-3.1733,-3.0961,-3.0708,-3.0783,-3.116,-3.1386,-3.1587,-3.1989,-3.2566,-3.3194,-3.3746,-3.3897,-3.3922,-3.3997,-3.3947,-3.3947,-3.4073,-3.4123,-3.4525,-3.6078,-3.6405,-3.6405,-3.6405,-3.6405,-3.6405,-3.6405,-3.6355,-3.6031,-3.5382,-3.573,-3.5726,-3.4726,-3.4981,-3.504,-3.4458,-3.4135,-3.4056,-3.4287,-3.3689,-3.3477,-3.3862,-3.3477,-3.2971,-3.2515,-3.2442,-3.2394,-3.2394,-3.1886,-3.1645,-3.1717,-3.1717,-3.1717,-3.1717,-3.1717,-3.1717,-1.856,0.0,0.0,0.0,0.0,0.0,0.0,0.0,0.0,0.0,0.0,-3.569,-3.7284,-3.7037,-3.6888,-3.7953,-3.7564,-3.7506,-3.8492,-3.7767,-3.7389,-3.8057,-3.7535,-3.7041,-3.678,-3.6431,-3.6002,-3.545,-3.5072,-3.4719,-3.4428,-3.4399,-3.4399,-3.4399,-3.4399,-3.4399,-3.4399,-3.4399,-3.4399,-3.4399,-3.4399,-3.4399,-3.4399,-3.4399,-3.4196,-3.3859,-3.3791,-3.3589,-3.3346,-3.2791,-3.2826,-3.3108,-3.2398,-3.2037,-3.1829,-3.1156,-3.0776,-3.0611,-3.0248,-3.0156,-3.0181,-3.0432,-3.0909,-3.1436,-3.1687,-3.2365,-3.3162,-3.337,-3.3445,-3.3445,-3.3445,-3.3445,-3.352,-3.3822,-3.4148,-3.465,-3.568,-3.5906,-3.5906,-3.5906,-3.6157,-3.6304,-3.5956,-3.6157,-3.6182,-3.5583,-3.5708,-3.573,-3.5207,-3.5357,-3.5533,-3.5515,-3.5282,-3.51,-3.5109,-3.4628,-3.4389,-3.4463,-3.3958,-3.3597,-3.338,-3.3092,-3.2947,-3.2947,-3.2418,-3.213,-3.213,-3.213,-3.1961,-3.1717,-3.1717,-3.1717,0.0,0.0,0.0,0.0,0.0,0.0,0.0,0.0,0.0,0.0,-3.2744,-3.3581,-3.4945,-3.5482,-3.5991,-3.6881,-3.649,-3.6418,-3.7556,-3.6896,-3.6489,-3.6983,-3.6606,-3.6257,-3.6083,-3.5683,-3.5334,-3.516,-3.469,-3.4399,-3.4399,-3.4254,-3.4254,-3.4399,-3.4109,-3.408,-3.4399,-3.4399,-3.4399,-3.4399,-3.4254,-3.4254,-3.4399,-3.4254,-3.4254,-3.4366,-3.3791,-3.3728,-3.3997,-3.2826,-3.2577,-3.2861,-3.211,-3.1415,-3.0895,-3.0696,-3.0266,-2.9818,-3.0011,-2.9972,-2.9843,-3.0163,-3.0691,-3.1235,-3.1512,-3.219,-3.2893,-3.3086,-3.3111,-3.3111,-3.3111,-3.3111,-3.3194,-3.3596,-3.4123,-3.4751,-3.5579,-3.5608,-3.5533,-3.5683,-3.5981,-3.6031,-3.5583,-3.6006,-3.6182,-3.5583,-3.5508,-3.5508,-3.5508,-3.5508,-3.5658,-3.6107,-3.6071,-3.5908,-3.5716,-3.538,-3.5114,-3.492,-3.4463,-3.4126,-3.4006,-3.3669,-3.3477,-3.3477,-3.3092,-3.2827,-3.2707,-3.2707,-3.2491,-3.2126,-3.2126,-3.2126,0.0,0.0,0.0,0.0,0.0,0.0,0.0,0.0,0.0,0.0,-3.1011,-3.131,-3.2182,-3.3254,-3.4564,-3.6093,-3.5739,-3.5528,-3.6295,-3.6344,-3.6315,-3.6344,-3.6315,-3.6083,-3.5508,-3.5421,-3.516,-3.4516,-3.4428,-3.4399,-3.4399,-3.3848,-3.379,-3.4399,-3.3238,-3.3177,-3.4399,-3.4399,-3.4399,-3.4399,-3.379,-3.3848,-3.4399,-3.379,-3.3848,-3.4399,-3.4332,-3.3928,-3.3248,-3.3178,-3.2755,-3.2074,-3.1267,-3.0932,-3.082,-3.0101,-2.9818,-2.9895,-3.0582,-3.0381,-2.9971,-3.1203,-3.1188,-3.0834,-3.1863,-3.2215,-3.2365,-3.2918,-3.3111,-3.3111,-3.3111,-3.3111,-3.3136,-3.3119,-3.3545,-3.4374,-3.6028,-3.5906,-3.5658,-3.6254,-3.5931,-3.5533,-3.5508,-3.6006,-3.6182,-3.5583,-3.5508,-3.5508,-3.5508,-3.5508,-3.5508,-3.5533,-3.5846,-3.6003,-3.5955,-3.5524,-3.5163,-3.5163,-3.4896,-3.451,-3.4006,-3.3958,-3.3958,-3.3958,-3.3934,-3.3717,-3.326,-3.326,-3.3236,-3.3212,-3.3212,-3.3212,0.0,0.0,0.0,0.0,0.0,0.0,0.0,0.0,0.0,0.0,-2.9512,-3.0734,-3.1911,-3.2426,-3.323,-3.4703,-3.4384,-3.4484,-3.6092,-3.5619,-3.5241,-3.5683,-3.5328,-3.5009,-3.4777,-3.4748,-3.4661,-3.4428,-3.4399,-3.4225,-3.3819,-3.362,-3.3416,-3.3209,-3.2745,-3.2713,-3.318,-3.3177,-3.3177,-3.3177,-3.2977,-3.318,-3.379,-3.362,-3.3819,-3.4366,-3.3859,-3.3485,-3.3143,-3.2684,-3.2037,-3.1267,-3.0495,-3.0216,-3.0216,-3.0457,-3.0216,-2.9895,-3.0658,-3.0419,-2.9907,-3.0329,-3.0542,-3.0683,-3.106,-3.1662,-3.2265,-3.2466,-3.2792,-3.3111,-3.3111,-3.3111,-3.3244,-3.3972,-3.4274,-3.4776,-3.6128,-3.6207,-3.6031,-3.5881,-3.5956,-3.5956,-3.5558,-3.5658,-3.5881,-3.6031,-3.578,-3.5633,-3.6031,-3.6081,-3.6081,-3.6081,-3.621,-3.6193,-3.6003,-3.5812,-3.5572,-3.5211,-3.5114,-3.4896,-3.451,-3.4486,-3.4486,-3.4486,-3.4486,-3.4246,-3.3765,-3.3765,-3.3597,-3.3284,-3.3284,-3.3284,0.0,0.0,0.0,0.0,0.0,0.0,0.0,0.0,0.0,0.0,-2.8196,-2.9684,-3.0596,-3.0939,-3.1712,-3.3541,-3.3282,-3.3416,-3.501,-3.475,-3.4574,-3.498,-3.4661,-3.4399,-3.4399,-3.4399,-3.4399,-3.4399,-3.4399,0.0,-3.3532,-3.33,-3.2745,-3.1903,-3.228,-3.2365,-3.2162,-3.2365,-3.2481,-3.2481,-3.2481,-3.2861,-3.3503,-3.3503,-3.3819,-3.4332,-3.3555,-3.3073,-3.2791,-3.229,-3.1489,-3.0507,-3.057,-3.0254,-2.9895,-3.062,-3.0457,-2.9895,-3.0658,-3.0419,-2.9818,-3.0101,-3.0238,-3.0382,-3.0557,-3.111,-3.1763,-3.2114,-3.2491,-3.2842,-3.3061,-3.3111,-3.3319,-3.4223,-3.46,-3.4977,-3.5881,-3.6081,-3.6031,-3.5855,-3.5956,-3.5981,-3.5558,-3.5658,-3.5881,-3.6056,-3.578,-3.5633,-3.6031,-3.6081,-3.6081,-3.6081,-3.6304,-3.631,-3.6146,-3.6051,-3.5812,-3.538,-3.5259,-3.5066,-3.4823,-3.4775,-3.4775,-3.4775,-3.4775,-3.4607,-3.427,-3.427,-3.4078,-3.3813,-3.3813,-3.3813,0.0,0.0,0.0,0.0,0.0,0.0,-2.1149,0.0,-2.4665,0.0,-2.7137,-2.8021,-2.8133,-2.8651,-2.9927,-3.2646,-3.255,-3.2371,-3.3052,-3.3865,-3.4366,-3.4366,-3.4366,-3.4399,-3.4399,-3.4399,-3.4399,-3.4399,-3.4399,-3.4138,-3.3503,-3.2832,-3.1874,-3.0656,-3.1816,-3.2133,-3.1466,-3.2135,-3.2452,-3.2452,-3.2452,-3.2832,-3.3503,-3.3503,-3.3819,-3.4332,-3.3555,-3.2791,-3.211,-3.2074,-3.1182,-2.9972,-3.1479,-3.1145,-2.9934,-3.0658,-3.0457,-2.9934,-3.0658,-3.0419,-2.9934,-3.062,-3.0381,-2.9905,-3.0432,-3.0608,-3.0859,-3.1888,-3.2215,-3.2365,-3.2943,-3.3111,-3.3262,-3.3796,-3.4324,-3.4806,-3.5382,-3.5508,-3.5658,-3.6304,-3.5931,-3.5533,-3.5533,-3.6006,-3.6157,-3.5608,-3.5508,-3.5508,-3.5508,-3.5533,-3.5533,-3.5533,-3.6031,-3.6405,-3.6405,-3.6146,-3.5908,-3.562,-3.538,-3.5066,-3.4823,-3.4775,-3.4775,-3.4775,-3.4775,-3.4775,-3.4775,-3.4775,-3.4775,-3.4775,-3.4775,-3.4775,-1.7603,0.0,0.0,0.0,0.0,0.0,-1.907,-1.9783,-2.1071,-2.4382,-2.5319,-2.6257,-2.8547,-2.8615,-2.8826,-3.0175,-3.1431,-3.2158,-3.2005,-3.3355,-3.4057,-3.3095,-3.3806,-3.4399,-3.4399,-3.4399,-3.4399,0.0,-3.4399,-3.3935,-3.2832,-3.1729,-3.0975,-3.0627,-3.0946,-3.1032,-3.0829,-3.1003,-3.1351,-3.1756,-3.1756,-3.2396,-3.3503,-3.3503,-3.3523,-3.352,-3.3283,-3.2791,-3.2037,-3.1489,-3.097,-3.0582,-3.0457,-3.0872,-3.1442,-3.1044,-3.0745,-3.062,-3.082,-3.0419,-2.9818,-3.0024,-2.9972,-2.9829,-2.998,-3.0557,-3.1235,-3.1537,-3.2215,-3.2867,-3.3086,-3.3111,-3.3319,-3.4274,-3.4299,-3.45,-3.5855,-3.583,-3.5658,-3.6304,-3.6279,-3.6132,-3.6132,-3.5931,-3.5855,-3.6107,-3.5805,-3.5633,-3.6081,-3.6132,-3.6132,-3.6132,-3.6329,-3.6405,-3.6405,-3.631,-3.6098,-3.562,-3.5524,-3.5284,-3.4823,-3.4775,-3.4775,-3.4775,-3.4775,-3.4775,-3.4775,-3.4775,-3.4775,-3.4775,-3.4775,-3.4775,0.0,0.0,0.0,0.0,0.0,0.0,-1.7873,-1.8337,-1.9471,0.0,-2.3157,-2.3954,-2.6282,-2.6198,-2.6128,-2.7314,-2.8953,-3.0178,-3.0562,-3.183,-3.2574,-3.2078,-3.2725,-3.3317,-3.3583,-3.3848,-3.4022,-3.4022,-3.4022,-3.347,-3.2133,-3.1119,-3.0598,-3.0598,-3.0598,-3.0598,-3.0598,-3.0829,-3.1148,-3.1495,-3.2077,-3.2745,-3.3503,-3.3765,-3.3816,-3.3659,-3.3346,-3.2967,-3.2506,-3.1709,-3.1415,-3.1378,-3.1257,-3.1368,-3.1563,-3.1082,-3.0733,-3.0457,-3.0457,-3.0177,-2.9804,-2.9804,-2.9804,-2.9804,-2.9804,-3.0382,-3.1191,-3.1796,-3.2772,-3.3581,-3.3197,-3.3111,-3.3244,-3.3872,-3.3972,-3.4173,-3.5127,-3.5253,-3.5429,-3.6254,-3.6405,-3.6405,-3.6405,-3.6107,-3.5981,-3.6355,-3.6081,-3.6006,-3.6355,-3.6405,-3.6405,-3.6405,-3.6405,-3.6405,-3.6405,-3.631,-3.6051,-3.562,-3.5524,-3.5235,-3.4823,-3.4775,-3.4775,-3.4775,-3.4775,-3.4775,-3.4775,-3.4775,-3.4775,-3.4775,-3.4775,-3.4775,0.0,0.0,0.0,0.0,0.0,0.0,-1.7557,-1.8093,-1.9005,-2.0758,-2.1064,-2.1372,-2.266,-2.2606,-2.2846,-2.4357,-2.5688,-2.7162,-2.8838,-2.9851,-3.0589,-3.1099,-3.1354,-3.174,-3.232,-3.3003,-3.3387,-3.3387,-3.3329,-3.2745,-3.1553,-3.0916,-3.0598,-3.0598,-3.0598,-3.0627,-3.0714,-3.1235,-3.1553,-3.1758,-3.2919,-3.3532,-3.362,-3.4167,-3.4332,-3.423,-3.3589,-3.3213,-3.3038,-3.247,-3.2182,-3.2146,-3.272,-3.2155,-3.1007,-3.082,-3.0419,-2.9895,-2.9818,-2.9804,-2.9804,-2.9804,-2.9804,-2.9804,-2.9854,-3.0256,-3.0968,-3.2354,-3.3465,-3.4063,-3.3283,-3.3111,-3.3119,-3.3244,-3.3596,-3.3947,-3.4148,-3.45,-3.5127,-3.6204,-3.6355,-3.6329,-3.6405,-3.6405,-3.6405,-3.6405,-3.6405,-3.6405,-3.6405,-3.6405,-3.6405,-3.6405,-3.6405,-3.6405,-3.6358,-3.6146,-3.586,-3.5572,-3.5332,-3.5066,-3.4823,-3.4775,-3.4775,-3.4775,-3.4775,-3.4775,-3.4775,-3.4775,-3.4775,-3.4775,-3.4775,-3.4775,0.0,0.0,0.0,0.0,0.0,0.0,-1.8926,-1.8069,-1.7946,0.0,-2.0172,-1.9675,-2.1209,-2.1506,-2.165,-2.1977,-2.3064,-2.4798,-2.7464,-2.9342,-3.0052,-2.9125,-3.0477,-3.1542,-3.1674,-3.2277,-3.2716,-3.2716,-3.2222,-3.1787,-3.1495,-3.0916,-3.0598,-3.0598,-3.0598,-3.0829,-3.1322,-3.1437,-3.2048,-3.3126,-3.3387,-3.3765,-3.4225,-3.437,-3.4031,-3.3451,-3.3962,-3.3451,-3.2362,-3.2791,-3.2648,-3.2037,-3.1563,-3.1563,-3.1709,-3.0457,-3.0305,-3.0582,-3.0011,-2.9804,-2.9804,-2.9804,-2.9804,-2.988,-3.0306,-3.0834,-3.1477,-3.2718,-3.3191,-3.3326,-3.3154,-3.3111,-3.3294,-3.4198,-3.4148,-3.4274,-3.5651,-3.5629,-3.5533,-3.6279,-3.6006,-3.5855,-3.6329,-3.6405,-3.6405,-3.6405,-3.6405,-3.6405,-3.6405,-3.6405,-3.6405,-3.6405,-3.6405,-3.631,-3.6098,-3.6003,-3.5812,-3.5332,-3.5235,-3.5066,-3.4823,-3.4775,-3.4775,-3.4775,-3.4775,-3.4775,-3.4775,-3.4775,-3.4775,-3.4775,-3.4775,-3.4775,0.0,0.0,0.0,-1.918,0.0,0.0,0.0,-1.7921,-1.763,-1.9547,-1.8832,-1.8215,-1.943,0.0,-1.9158,-2.0032,-2.0659,-2.1857,-2.4197,-2.6559,-2.7795,-2.7177,-2.8292,-2.9247,-2.962,-3.0529,-3.1358,-3.1959,-3.1669,-3.138,-3.1061,-3.0772,-3.0598,-3.0598,-3.0887,-3.1206,-3.1495,-3.2164,-3.2803,-3.3503,-3.379,-3.4109,-3.4399,-3.4399,-3.4196,-3.3825,-3.423,-3.3722,-3.2684,-3.3038,-3.2541,-3.1452,-3.1044,-3.1378,-3.1892,-3.0368,-3.0266,-3.0782,-3.0062,-2.9804,-2.9804,-2.9804,-2.998,-3.0256,-3.0532,-3.1483,-3.2542,-3.3013,-3.3411,-3.3666,-3.3197,-3.3111,-3.3294,-3.4123,-3.4098,-3.4198,-3.5303,-3.5328,-3.5257,-3.5855,-3.5683,-3.5683,-3.6329,-3.6405,-3.6405,-3.6405,-3.6405,-3.6405,-3.6405,-3.6405,-3.6405,-3.6405,-3.6405,-3.6358,-3.6193,-3.6203,-3.5964,-3.5428,-3.543,-3.521,-3.4847,-3.4775,-3.4775,-3.4775,-3.4775,-3.4775,-3.4775,-3.4775,-3.4775,-3.4775,-3.4775,-3.4775,0.0,0.0,0.0,0.0,0.0,-1.8494,0.0,0.0,0.0,0.0,0.0,0.0,0.0,0.0,0.0,0.0,0.0,0.0,0.0,-2.3071,0.0,-2.494,-2.5515,-2.6219,-2.7022,-2.8434,-2.9813,-3.1048,-3.1114,-3.0974,-3.0627,-3.0598,-3.0656,-3.0772,-3.1264,-3.1611,-3.1903,-3.298,-3.3561,-3.3678,-3.4167,-3.4399,-3.4399,-3.4399,-3.4399,-3.4366,-3.423,-3.3722,-3.3003,-3.3003,-3.2074,-3.0733,-3.1007,-3.1341,-3.1516,-3.0444,-3.0305,-3.062,-3.0011,-2.9804,-2.9804,-2.9905,-3.0382,-3.0934,-3.0934,-3.2077,-3.3359,-3.3156,-3.3624,-3.3979,-3.3283,-3.3111,-3.3262,-3.3771,-3.3972,-3.4198,-3.4731,-3.4951,-3.5177,-3.5583,-3.5658,-3.5855,-3.6329,-3.6405,-3.6405,-3.6405,-3.6405,-3.6405,-3.6405,-3.6505,-3.6556,-3.6556,-3.6656,-3.6684,-3.6636,-3.6601,-3.6333,-3.5721,-3.5672,-3.5474,-3.4943,-3.5039,-3.5087,-3.5087,-3.5087,-3.5087,-3.5087,-3.5087,-3.4967,-3.4775,-3.4775,-3.4775,0.0,0.0,0.0,0.0,-2.0057,0.0,0.0,0.0,-1.8309,-1.8409,0.0,0.0,0.0,0.0,0.0,0.0,0.0,0.0,-1.8385,-2.0039,-2.1459,-2.1941,-2.2576,-2.3412,-2.45,-2.6679,-2.8498,-2.9744,-2.9804,-3.0045,-3.0569,-3.0598,-3.0829,-3.138,-3.1437,-3.2077,-3.3271,-3.3416,-3.3794,-3.4312,-3.437,-3.4399,-3.4399,-3.4399,-3.4399,-3.4332,-3.3624,-3.2897,-3.2218,-3.2218,-3.1331,-3.0088,-3.1442,-3.1182,-3.0101,-3.0582,-3.0419,-2.9895,-2.9818,-2.9804,-2.988,-3.0357,-3.121,-3.2039,-3.2039,-3.255,-3.3122,-3.3111,-3.3154,-3.324,-3.3111,-3.3111,-3.3262,-3.3771,-3.4274,-3.4776,-3.5282,-3.583,-3.6229,-3.6304,-3.6329,-3.6329,-3.6405,-3.6405,-3.6405,-3.6405,-3.6405,-3.6405,-3.6405,-3.6832,-3.7086,-3.7086,-3.7538,-3.7715,-3.7469,-3.7469,-3.7048,-3.6088,-3.6013,-3.5841,-3.5521,-3.5978,-3.6218,-3.6218,-3.6218,-3.6218,-3.6218,-3.6218,-3.5737,-3.4775,-3.4775,-3.4775,0.0,0.0,0.0,0.0,0.0,0.0,-2.0507,0.0,-1.9153,0.0,0.0,0.0,0.0,0.0,0.0,0.0,-1.6856,0.0,0.0,0.0,-1.8818,0.0,0.0,0.0,-2.4034,-2.4751,-2.6046,-2.8266,-2.8484,-2.8797,-2.9464,-3.0191,-3.0858,-3.1466,-3.1872,-3.2542,-3.3503,-3.3848,-3.4138,-3.4399,-3.4399,-3.4399,-3.4399,-3.4399,-3.4162,-3.3659,-3.3346,-3.2791,-3.211,-3.211,-3.1736,-3.1182,-3.1856,-3.1442,-3.0495,-3.0782,-3.067,-3.0381,-2.9934,-2.9804,-2.993,-3.0783,-3.1361,-3.1863,-3.2516,-3.2893,-3.3111,-3.3111,-3.3111,-3.3111,-3.3111,-3.3111,-3.3294,-3.4173,-3.455,-3.4951,-3.583,-3.6207,-3.6405,-3.6405,-3.6405,-3.6405,-3.6405,-3.6405,-3.6405,-3.6405,-3.6405,-3.6405,-3.6405,-3.6606,-3.6757,-3.6757,-3.7211,-3.7464,-3.7366,-3.7667,-3.7515,-3.6798,-3.645,-3.6174,-3.6074,-3.629,-3.6411,-3.6411,-3.6411,-3.6411,-3.6411,-3.6411,-3.617,-3.5737,-3.5737,-3.5737,-2.4517,0.0,0.0,0.0,0.0,0.0,0.0,0.0,0.0,0.0,0.0,0.0,0.0,0.0,0.0,0.0,0.0,0.0,0.0,0.0,0.0,0.0,0.0,0.0,0.0,-2.271,-2.3738,-2.6268,0.0,-2.7297,-2.8169,-2.955,-3.071,-3.1476,-3.233,-3.3093,-3.3765,-3.3965,-3.4196,-3.4399,-3.4196,-3.4065,-3.4065,-3.4065,-3.3624,-3.2897,-3.2684,-3.229,-3.1783,-3.1783,-3.1636,-3.1516,-3.1928,-3.1489,-3.062,-3.082,-3.0745,-3.0507,-3.0011,-2.998,-3.0357,-3.1135,-3.1587,-3.2014,-3.286,-3.3111,-3.3111,-3.3111,-3.3111,-3.3111,-3.3111,-3.3111,-3.3319,-3.4274,-3.458,-3.4977,-3.5931,-3.6304,-3.6405,-3.6405,-3.6405,-3.6405,-3.6405,-3.6405,-3.6405,-3.6405,-3.6405,-3.6405,-3.6405,-3.6531,-3.6681,-3.6832,-3.7263,-3.759,-3.7766,-3.8062,-3.7978,-3.7337,-3.6882,-3.6627,-3.6627,-3.6771,-3.6843,-3.6843,-3.6843,-3.6843,-3.6843,-3.6843,-3.6843,-3.6819,-3.6531,-3.6411,0.0,0.0,0.0,-2.5359,0.0,0.0,0.0,0.0,-2.0557,0.0,0.0,0.0,0.0,0.0,0.0,0.0,0.0,0.0,0.0,0.0,0.0,0.0,0.0,0.0,0.0,-2.0558,-2.202,0.0,-2.4369,0.0,-2.6886,-2.865,-3.0208,-3.1458,-3.2799,-3.3765,-3.437,-3.3624,-3.3624,-3.4366,-3.3624,-3.3248,-3.3248,-3.3248,-3.2826,-3.2074,-3.1304,-3.097,-3.0932,-3.0932,-3.0507,-3.0011,-3.1516,-3.1145,-2.9934,-3.0658,-3.0457,-2.9818,-2.9804,-3.0482,-3.1336,-3.1386,-3.2139,-3.3061,-3.3111,-3.3111,-3.3111,-3.3111,-3.3111,-3.3111,-3.3111,-3.3111,-3.3262,-3.3796,-3.4324,-3.4831,-3.5408,-3.5981,-3.6405,-3.6405,-3.6405,-3.6405,-3.6405,-3.6405,-3.6405,-3.6405,-3.6405,-3.6405,-3.6405,-3.6835,-3.7362,-3.7889,-3.8191,-3.8587,-3.9185,-3.8948,-3.8414,-3.7618,-3.7336,-3.7156,-3.7156,-3.7661,-3.7926,-3.7926,-3.7926,-3.7926,-3.7926,-3.7926,-3.7926,-3.7902,-3.6867,-3.6411,0.0,0.0,-2.6785,-2.6869,0.0,0.0,0.0,0.0,0.0,0.0,0.0,0.0,0.0,0.0,0.0,0.0,0.0,0.0,0.0,0.0,0.0,0.0,0.0,0.0,0.0,0.0,0.0,0.0,0.0,0.0,-2.5539,-2.7846,-2.9628,-3.0663,-3.2535,-3.3298,-3.2861,-3.3073,-3.3318,-3.3589,-3.2826,-3.272,-3.3178,-3.2684,-3.2037,-3.1304,-3.1007,-3.0895,-3.0895,-3.0895,-3.1044,-3.1331,-3.1304,-3.097,-3.0545,-3.082,-3.0457,-2.9804,-2.9804,-3.003,-3.0457,-3.116,-3.1637,-3.2089,-3.2842,-3.3111,-3.3111,-3.3111,-3.3111,-3.3169,-3.352,-3.3621,-3.3847,-3.4731,-3.5082,-3.5382,-3.5956,-3.6279,-3.6405,-3.6405,-3.6405,-3.6405,-3.6405,-3.6405,-3.6405,-3.6405,-3.6405,-3.6405,-3.6405,-3.6883,-3.7213,-3.7218,-3.7941,-3.8386,-3.8455,-3.8463,-3.8323,-3.7891,-3.7762,-3.7709,-3.7709,-3.7878,-3.7974,-3.7974,-3.7974,-3.7974,-3.7974,-3.7974,-3.7974,-3.7974,-3.7613,-3.7445,-2.8412,-2.8312,0.0,-2.8163,-2.7076,0.0,-2.5147,0.0,0.0,0.0,0.0,0.0,0.0,0.0,0.0,0.0,0.0,0.0,0.0,-1.6878,0.0,0.0,0.0,0.0,0.0,0.0,0.0,0.0,0.0,0.0,0.0,-2.6754,-2.8691,-2.9912,-3.2196,-3.2986,-3.211,-3.2577,-3.2791,-3.2791,-3.2037,-3.1928,-3.2398,-3.1892,-3.123,-3.0507,-3.0507,-3.0507,-3.0507,-3.0507,-3.0809,-3.122,-3.0696,-3.0507,-3.0507,-3.0507,-3.0216,-2.9829,-3.0005,-3.0206,-3.0507,-3.1386,-3.1813,-3.2114,-3.291,-3.3111,-3.3162,-3.3319,-3.337,-3.3495,-3.4048,-3.4198,-3.4424,-3.5282,-3.5508,-3.5658,-3.6279,-3.6405,-3.6405,-3.6405,-3.6405,-3.6405,-3.6405,-3.6405,-3.6405,-3.6405,-3.6405,-3.6405,-3.6405,-3.6883,-3.7138,-3.6969,-3.7817,-3.8335,-3.8145,-3.8202,-3.8185,-3.8027,-3.7974,-3.7974,-3.7974,-3.7974,-3.807,-3.8286,-3.8094,-3.807,-3.8286,-3.807,-3.7974,-3.7974,-3.7974,-3.7974]},{"header":{"parameterUnit":"m.s-1","parameterCategory":1,"la1":30.6,"la2":29.2853,"lo1":-89.7004,"lo2":-87.6739,"dy":0.0162,"dx":0.0183,"nx":112,"ny":82,"refTime":"2024-03-12T06:00:00:Z","depth":0,"parameterNumber":3,"parameterNumberName":"V-component_of_WINDS"},"data":[0.0,0.0,0.0,0.0,0.0,0.0,0.0,0.0,0.0,0.0,0.0,0.0,0.0,0.0,0.0,0.0,0.0,0.0,0.0,0.0,0.0,0.0,0.0,0.0,0.0,0.0,0.0,0.0,0.0,0.0,0.0,0.0,0.0,0.0,0.0,0.0,0.0,0.0,0.0,0.0,0.0,0.0,0.0,0.0,0.0,0.0,0.0,0.0,0.0,0.0,0.0,0.0,0.0,0.0,0.0,0.0,0.0,0.0,0.0,0.0,0.0,0.0,0.0,0.0,0.0,0.0,0.0,0.0,0.0,0.0,0.0,0.0,0.0,0.0,0.0,0.0,0.0,0.0,0.0,0.0,0.0,0.0,0.0,0.0,0.0,0.0,0.0,0.0,0.0,0.0,2.0096,2.3095,2.8351,3.1317,3.0558,3.03,2.773,2.197,0.0,0.0,0.0,0.0,0.0,0.0,0.0,0.0,0.0,0.0,0.0,0.0,0.0,0.0,0.0,0.0,0.0,0.0,0.0,0.0,0.0,0.0,0.0,0.0,0.0,0.0,0.0,0.0,0.0,0.0,0.0,0.0,0.0,0.0,0.0,0.0,0.0,0.0,0.0,0.0,0.0,0.0,0.0,0.0,0.0,0.0,0.0,0.0,0.0,0.0,0.0,0.0,0.0,0.0,0.0,0.0,0.0,0.0,0.0,0.0,0.0,0.0,0.0,0.0,0.0,0.0,0.0,0.0,0.0,0.0,0.0,0.0,0.0,0.0,0.0,0.0,0.0,0.0,0.0,0.0,0.0,0.0,0.0,0.0,0.0,0.0,0.0,0.0,0.0,0.0,0.0,0.0,0.0,0.0,0.0,0.0,0.0,0.0,0.0,0.0,0.0,0.0,0.0,0.0,1.9751,2.5937,2.9144,3.0558,2.9765,2.8523,2.604,2.1854,0.0,0.0,0.0,0.0,0.0,0.0,0.0,0.0,0.0,0.0,0.0,0.0,0.0,0.0,0.0,0.0,0.0,0.0,0.0,0.0,0.0,0.0,0.0,0.0,0.0,0.0,0.0,0.0,0.0,0.0,0.0,0.0,0.0,0.0,0.0,0.0,0.0,0.0,0.0,0.0,0.0,0.0,0.0,0.0,0.0,0.0,0.0,0.0,0.0,0.0,0.0,0.0,0.0,0.0,0.0,0.0,0.0,0.0,0.0,0.0,0.0,0.0,0.0,0.0,0.0,0.0,0.0,0.0,0.0,0.0,0.0,0.0,0.0,0.0,0.0,0.0,0.0,0.0,0.0,0.0,0.0,0.0,0.0,0.0,0.0,0.0,0.0,0.0,0.0,0.0,0.0,0.0,0.0,0.0,0.0,0.0,0.0,0.0,0.0,0.0,0.0,0.0,0.0,1.8766,2.2233,2.6212,2.8696,2.973,2.8972,2.7144,2.4798,2.1798,2.0441,0.0,0.0,0.0,0.0,0.0,0.0,0.0,0.0,0.0,0.0,0.0,0.0,0.0,0.0,0.0,0.0,0.0,0.0,0.0,0.0,0.0,0.0,0.0,0.0,0.0,0.0,0.0,0.0,0.0,0.0,0.0,0.0,0.0,0.0,0.0,0.0,0.0,0.0,0.0,0.0,0.0,0.0,0.0,0.0,0.0,0.0,0.0,0.0,0.0,0.0,0.0,0.0,0.0,0.0,0.0,0.0,0.0,0.0,0.0,0.0,0.0,0.0,0.0,0.0,0.0,0.0,0.0,0.0,0.0,0.0,0.0,0.0,0.0,0.0,0.0,0.0,0.0,0.0,0.0,0.0,0.0,0.0,0.0,0.0,0.0,0.0,0.0,0.0,0.0,0.0,0.0,0.0,0.0,0.0,0.0,0.0,0.0,0.0,0.0,0.0,0.0,0.0,2.2104,2.4784,2.5956,2.7971,2.8937,2.8213,2.5868,2.3557,2.144,1.9027,0.0,0.0,0.0,0.0,0.0,0.0,0.0,0.0,0.0,0.0,0.0,0.0,0.0,0.0,0.0,0.0,0.0,0.0,0.0,0.0,0.0,0.0,0.0,0.0,0.0,0.0,0.0,0.0,0.0,0.0,0.0,0.0,0.0,0.0,0.0,0.0,0.0,0.0,0.0,0.0,0.0,0.0,0.0,0.0,0.0,0.0,0.0,0.0,0.0,0.0,0.0,0.0,0.0,0.0,0.0,0.0,0.0,0.0,0.0,0.0,0.0,0.0,0.0,0.0,0.0,0.0,0.0,0.0,0.0,0.0,0.0,0.0,0.0,0.0,0.0,0.0,0.0,0.0,0.0,0.0,0.0,0.0,0.0,0.0,0.0,0.0,0.0,0.0,0.0,0.0,0.0,0.0,0.0,0.0,0.0,0.0,0.0,0.0,0.0,0.0,0.0,0.0,2.275,2.599,2.6109,2.7523,2.8178,2.742,2.4591,2.2199,2.0579,1.7707,0.0,0.0,0.0,0.0,0.0,0.0,0.0,0.0,0.0,0.0,0.0,0.0,0.0,0.0,0.0,0.0,0.0,0.0,0.0,0.0,0.0,0.0,0.0,0.0,0.0,0.0,0.0,0.0,0.0,0.0,0.0,0.0,0.0,0.0,0.0,0.0,0.0,0.0,0.0,0.0,0.0,0.0,0.0,0.0,0.0,0.0,0.0,0.0,0.0,0.0,0.0,0.0,0.0,0.0,0.0,0.0,0.0,0.0,0.0,0.0,0.0,0.0,0.0,0.0,0.0,0.0,0.0,0.0,0.0,0.0,0.0,0.0,0.0,0.0,0.0,0.0,0.0,0.0,0.0,0.0,0.0,0.0,0.0,0.0,0.0,0.0,0.0,0.0,0.0,0.0,0.0,0.0,0.0,0.0,0.0,0.0,0.0,0.0,0.0,0.0,0.0,0.0,2.1417,2.4121,0.0,2.6059,2.6661,2.5937,2.4336,2.2337,1.9878,0.0,0.0,0.0,0.0,0.0,0.0,0.0,0.0,0.0,0.0,0.0,0.0,0.0,0.0,0.0,0.0,0.0,0.0,0.0,0.0,0.0,0.0,0.0,0.0,0.0,0.0,0.0,0.0,0.0,0.0,0.0,0.0,0.0,0.0,0.0,0.0,0.0,0.0,0.0,0.0,0.0,0.0,0.0,0.0,0.0,0.0,0.0,0.0,0.0,0.0,0.0,0.0,0.0,0.0,0.0,0.0,0.0,0.0,0.0,0.0,0.0,0.0,0.0,0.0,0.0,0.0,0.0,0.0,0.0,0.0,0.0,0.0,0.0,0.0,0.0,0.0,0.0,0.0,0.0,0.0,0.0,0.0,0.0,0.0,0.0,0.0,0.0,0.0,0.0,0.0,0.0,0.0,0.0,0.0,0.0,0.0,0.0,0.0,0.0,0.0,0.0,0.0,1.7569,2.0794,2.3165,0.0,2.4735,2.5267,2.504,2.3612,2.1738,1.943,0.0,0.0,0.0,0.0,0.0,0.0,0.0,0.0,0.0,0.0,0.0,0.0,0.0,0.0,0.0,0.0,0.0,0.0,0.0,0.0,0.0,0.0,0.0,0.0,0.0,0.0,0.0,0.0,0.0,0.0,0.0,0.0,0.0,0.0,0.0,0.0,0.0,0.0,0.0,0.0,0.0,0.0,0.0,0.0,0.0,0.0,0.0,0.0,0.0,0.0,0.0,0.0,0.0,0.0,0.0,0.0,0.0,0.0,0.0,0.0,0.0,0.0,0.0,0.0,0.0,0.0,0.0,0.0,0.0,0.0,0.0,0.0,0.0,0.0,0.0,0.0,0.0,0.0,0.0,0.0,0.0,0.0,0.0,0.0,0.0,0.0,0.0,0.0,0.0,0.0,0.0,0.0,0.0,0.0,0.0,0.0,0.0,0.0,0.0,0.0,0.0,0.0,1.7715,2.1263,2.3777,2.3721,2.3777,2.4129,2.4936,2.2199,2.0084,0.0,0.0,0.0,0.0,0.0,0.0,0.0,0.0,0.0,0.0,0.0,0.0,0.0,0.0,0.0,0.0,0.0,0.0,0.0,0.0,0.0,0.0,0.0,0.0,0.0,0.0,0.0,0.0,0.0,0.0,0.0,0.0,0.0,0.0,0.0,0.0,0.0,0.0,0.0,0.0,0.0,0.0,0.0,0.0,0.0,0.0,0.0,0.0,0.0,0.0,0.0,0.0,0.0,0.0,0.0,0.0,0.0,0.0,0.0,0.0,0.0,0.0,0.0,0.0,0.0,0.0,0.0,0.0,0.0,0.0,0.0,0.0,0.0,0.0,0.0,0.0,0.0,0.0,0.0,0.0,0.0,0.0,0.0,0.0,0.0,0.0,0.0,0.0,0.0,0.0,0.0,0.0,0.0,0.0,0.0,0.0,0.0,0.0,0.0,0.0,0.0,0.0,0.0,1.8446,2.142,2.3755,2.4534,2.4115,2.3888,2.4129,2.2854,2.1027,1.8683,0.0,0.0,0.0,0.0,0.0,0.0,0.0,0.0,0.0,0.0,0.0,0.0,0.0,0.0,0.0,0.0,0.0,0.0,0.0,0.0,0.0,0.0,0.0,0.0,0.0,0.0,0.0,0.0,0.0,0.0,0.0,0.0,0.0,0.0,0.0,0.0,0.0,0.0,0.0,0.0,0.0,0.0,0.0,0.0,0.0,0.0,0.0,0.0,0.0,0.0,0.0,0.0,0.0,0.0,0.0,0.0,0.0,0.0,0.0,0.0,0.0,0.0,0.0,0.0,0.0,0.0,0.0,0.0,0.0,0.0,0.0,0.0,0.0,0.0,0.0,0.0,0.0,0.0,0.0,0.0,0.0,0.0,0.0,0.0,0.0,0.0,0.0,0.0,0.0,0.0,0.0,0.0,0.0,0.0,0.0,0.0,0.0,0.0,0.0,0.0,0.0,0.0,1.8109,2.0881,2.3207,2.4281,2.3721,2.3405,2.3729,2.3089,2.1656,1.9234,0.0,0.0,0.0,0.0,0.0,0.0,0.0,0.0,0.0,0.0,0.0,0.0,0.0,0.0,0.0,0.0,0.0,0.0,0.0,0.0,0.0,0.0,0.0,0.0,0.0,0.0,0.0,0.0,0.0,0.0,0.0,0.0,0.0,0.0,0.0,0.0,0.0,0.0,0.0,0.0,0.0,0.0,0.0,0.0,0.0,0.0,0.0,0.0,0.0,0.0,0.0,0.0,0.0,0.0,0.0,0.0,0.0,0.0,0.0,0.0,0.0,0.0,0.0,0.0,0.0,0.0,0.0,0.0,0.0,0.0,0.0,0.0,0.0,0.0,0.0,0.0,0.0,0.0,0.0,0.0,0.0,0.0,0.0,0.0,0.0,0.0,0.0,0.0,0.0,0.0,0.0,0.0,0.0,0.0,0.0,0.0,0.0,0.0,0.0,0.0,0.0,0.0,1.7396,2.0196,2.2574,2.3716,2.3156,2.3021,2.3741,2.3069,2.1983,2.0498,0.0,0.0,0.0,0.0,0.0,0.0,0.0,0.0,0.0,0.0,0.0,0.0,0.0,0.0,0.0,0.0,0.0,0.0,0.0,0.0,0.0,0.0,0.0,0.0,0.0,0.0,0.0,0.0,0.0,0.0,0.0,0.0,0.0,0.0,0.0,0.0,0.0,0.0,0.0,0.0,0.0,0.0,0.0,0.0,0.0,0.0,0.0,0.0,0.0,0.0,0.0,0.0,0.0,0.0,0.0,0.0,0.0,0.0,0.0,0.0,2.0764,0.0,0.0,0.0,0.0,0.0,0.0,0.0,0.0,0.0,0.0,0.0,0.0,0.0,0.0,0.0,0.0,0.0,0.0,0.0,0.0,0.0,0.0,0.0,0.0,0.0,0.0,0.0,0.0,0.0,0.0,0.0,0.0,0.0,0.0,0.0,0.0,0.0,0.0,0.0,0.0,0.0,1.9097,2.1728,2.413,2.6041,2.5122,2.4462,2.4614,2.3454,2.2048,2.0498,2.0084,0.0,0.0,0.0,0.0,0.0,0.0,0.0,0.0,0.0,0.0,0.0,0.0,0.0,0.0,0.0,0.0,0.0,0.0,0.0,0.0,0.0,0.0,0.0,0.0,0.0,0.0,0.0,0.0,0.0,0.0,0.0,0.0,0.0,0.0,0.0,0.0,0.0,0.0,0.0,0.0,0.0,0.0,0.0,0.0,0.0,0.0,0.0,0.0,0.0,0.0,0.0,0.0,0.0,0.0,0.0,0.0,0.0,0.0,0.0,0.0,2.1596,0.0,0.0,0.0,0.0,0.0,0.0,0.0,0.0,0.0,0.0,0.0,0.0,0.0,0.0,0.0,0.0,0.0,0.0,0.0,0.0,0.0,0.0,0.0,0.0,0.0,0.0,0.0,0.0,0.0,0.0,0.0,0.0,0.0,0.0,0.0,0.0,0.0,0.0,0.0,0.0,1.9544,2.1772,2.3869,2.5832,2.5232,2.4739,2.4754,2.3767,2.2657,2.1515,2.0796,0.0,0.0,0.0,0.0,0.0,0.0,0.0,0.0,0.0,0.0,0.0,0.0,0.0,0.0,0.0,0.0,0.0,0.0,0.0,0.0,0.0,0.0,0.0,0.0,0.0,0.0,0.0,0.0,0.0,0.0,0.0,0.0,0.0,0.0,0.0,0.0,0.0,0.0,0.0,0.0,0.0,0.0,0.0,0.0,0.0,0.0,0.0,0.0,0.0,0.0,0.0,0.0,0.0,2.7772,2.8165,2.8596,2.8042,2.8189,2.8658,2.6164,2.5364,2.5672,2.3302,0.0,0.0,0.0,0.0,0.0,0.0,0.0,0.0,0.0,0.0,0.0,0.0,0.0,0.0,0.0,0.0,0.0,0.0,0.0,0.0,0.0,0.0,0.0,0.0,2.5426,2.441,2.2182,0.0,0.0,0.0,0.0,0.0,0.0,0.0,0.0,0.0,0.0,0.0,1.9704,2.1456,2.3142,2.4889,2.4812,2.4596,2.4508,2.3964,2.3343,2.2657,2.1472,2.0808,0.0,0.0,0.0,0.0,0.0,0.0,0.0,0.0,0.0,0.0,0.0,0.0,0.0,0.0,0.0,0.0,0.0,0.0,0.0,0.0,0.0,0.0,0.0,0.0,0.0,0.0,0.0,0.0,0.0,0.0,0.0,0.0,2.3375,2.3975,0.0,0.0,0.0,0.0,0.0,0.0,0.0,0.0,0.0,0.0,0.0,0.0,0.0,2.7426,2.9433,3.072,3.1705,3.2475,3.3706,3.4014,3.355,3.3488,3.3796,3.4321,3.2752,0.0,2.7919,2.6995,0.0,0.0,0.0,0.0,0.0,0.0,0.0,0.0,0.0,0.0,0.0,0.0,0.0,0.0,0.0,0.0,0.0,0.0,0.0,0.0,0.0,0.0,2.755,2.7919,2.7919,2.7765,0.0,2.4092,2.1103,2.0919,2.0333,0.0,0.0,0.0,0.0,0.0,0.0,0.0,2.0511,2.1958,2.3501,2.5264,2.5187,2.478,2.4192,2.3886,2.3412,2.2737,2.2509,2.2406,2.2406,2.1785,0.0,0.0,0.0,0.0,0.0,0.0,0.0,0.0,0.0,0.0,0.0,0.0,0.0,0.0,0.0,0.0,0.0,0.0,0.0,0.0,0.0,0.0,0.0,0.0,0.0,0.0,0.0,0.0,0.0,2.3386,2.4989,2.5207,2.5645,2.5207,0.0,0.0,0.0,0.0,0.0,0.0,0.0,0.0,0.0,2.9144,2.9489,3.0997,3.3798,3.4783,3.5799,3.6846,3.7861,3.8169,3.7861,3.7492,3.7461,3.7707,3.6692,3.5214,3.3336,3.112,2.9181,2.7434,0.0,0.0,0.0,0.0,2.4307,2.4431,2.5395,2.6349,0.0,2.6287,0.0,0.0,0.0,0.0,0.0,0.0,0.0,0.0,0.0,0.0,2.8873,3.0751,3.0936,3.0658,3.0658,2.8411,2.5733,0.0,2.244,2.1227,1.8793,0.0,0.0,0.0,0.0,1.9938,2.1494,2.2744,2.4002,2.5352,2.5592,2.5313,2.4386,2.4264,2.373,2.2664,2.2636,2.2676,2.2716,2.2785,2.244,0.0,0.0,0.0,0.0,0.0,0.0,0.0,0.0,0.0,0.0,0.0,0.0,0.0,0.0,0.0,0.0,0.0,0.0,0.0,0.0,0.0,0.0,0.0,0.0,0.0,0.0,0.0,0.0,2.4884,2.6711,2.6665,2.7677,2.7517,0.0,0.0,0.0,0.0,0.0,0.0,2.8627,2.9489,3.0966,3.3152,3.3367,3.4783,3.7492,3.82,3.9062,4.0078,4.0689,4.1028,4.0997,4.0505,4.0201,4.0016,3.9524,3.8816,3.7769,3.4506,3.2198,3.0628,2.995,2.875,2.7488,2.798,2.8165,2.8288,2.915,2.9766,3.0074,2.9427,2.8873,2.8158,2.6411,0.0,0.0,0.0,0.0,2.5733,2.8473,2.9427,3.0351,3.3029,3.3306,3.2936,3.2936,3.189,2.9863,0.0,2.4933,2.3548,2.1011,0.0,0.0,0.0,0.0,2.1227,2.2428,2.3254,2.4125,2.508,2.5542,2.5368,2.4293,2.4365,2.3909,2.2617,2.2596,2.2731,2.2957,2.3509,2.3474,2.2763,0.0,0.0,0.0,0.0,0.0,0.0,0.0,0.0,0.0,0.0,0.0,0.0,0.0,0.0,0.0,0.0,0.0,0.0,0.0,0.0,0.0,0.0,0.0,0.0,0.0,0.0,0.0,0.0,0.0,2.7917,3.1402,0.0,0.0,0.0,0.0,2.7311,2.8473,3.0079,3.2044,3.3457,3.5429,3.8077,3.8785,3.9459,4.029,4.1032,4.1432,4.1494,4.2171,4.2509,4.2509,4.2479,4.2109,4.1494,4.1463,4.0662,3.9216,3.6476,3.4905,3.3981,3.1366,3.0294,3.0202,3.0233,3.0233,3.0417,3.1736,3.2228,3.2444,3.3735,3.4135,3.3611,3.0905,3.0048,0.0,0.0,2.9033,3.0233,3.1028,3.2198,3.3367,3.4258,3.4412,3.4382,3.4382,3.3275,3.1674,0.0,2.8104,2.6534,2.441,0.0,2.3394,2.1504,2.1781,2.2459,2.3148,2.3291,2.3588,2.4287,2.4704,2.4563,2.353,2.3852,2.3676,2.2651,2.2676,2.3026,2.3715,2.3784,2.4439,2.5853,2.4474,0.0,0.0,0.0,0.0,0.0,0.0,0.0,0.0,0.0,0.0,0.0,0.0,0.0,0.0,0.0,0.0,0.0,0.0,0.0,0.0,0.0,0.0,0.0,0.0,0.0,0.0,0.0,0.0,3.089,3.3546,0.0,3.2693,3.2426,3.245,3.2601,3.4055,3.5554,3.6876,3.7861,3.9031,4.0447,4.0724,4.137,4.2479,4.2792,4.3094,4.3525,4.3771,4.3895,4.3864,4.3433,4.3094,4.2854,4.1955,4.1309,4.0724,3.8846,3.743,3.6292,3.4876,3.4044,3.3675,3.3675,3.3675,3.3798,3.4722,3.4752,3.4351,3.3921,3.349,3.2995,3.1982,3.1705,3.1674,3.1643,3.1982,3.2598,3.3737,3.4383,3.4906,3.5614,3.5799,3.5552,3.469,3.4104,3.3272,3.1643,2.992,2.8196,2.6565,2.6287,2.5733,2.4133,2.4471,2.4841,2.4625,2.4594,2.4792,2.528,2.5087,2.4678,2.4105,2.4185,2.405,2.3533,2.3572,2.3871,2.4471,2.5011,2.5542,2.6109,2.6074,2.5074,0.0,0.0,0.0,0.0,0.0,0.0,0.0,0.0,0.0,0.0,0.0,0.0,0.0,0.0,0.0,0.0,0.0,0.0,0.0,0.0,0.0,0.0,0.0,0.0,0.0,0.0,3.2371,3.397,3.6507,3.7691,3.6459,3.6209,3.6305,3.672,3.8277,3.9593,4.0505,4.1186,4.1986,4.291,4.2725,4.3125,4.4271,4.4055,4.4178,4.461,4.461,4.461,4.461,4.4148,4.3809,4.3562,4.2633,4.2017,4.1524,4.0601,3.9554,3.8415,3.7277,3.6692,3.6445,3.5984,3.5953,3.6199,3.6415,3.6199,3.5676,3.4752,3.4137,3.3767,3.3767,3.3767,3.386,3.4321,3.4445,3.466,3.5584,3.583,3.5922,3.6384,3.6507,3.6261,3.5367,3.4998,3.4505,3.3334,3.1459,2.9581,2.8011,2.7365,2.6503,2.4872,2.4841,2.4841,2.4348,2.4502,2.473,2.4987,2.484,2.4571,2.4236,2.3833,2.3727,2.3966,2.3549,2.3866,2.5217,2.4932,2.503,2.5715,2.573,2.5005,2.3474,0.0,0.0,0.0,0.0,0.0,0.0,0.0,0.0,0.0,0.0,0.0,0.0,0.0,0.0,0.0,0.0,0.0,0.0,0.0,0.0,0.0,0.0,0.0,2.9549,3.3337,3.6207,3.7127,4.0462,4.1821,3.9638,4.0477,4.0654,3.952,4.083,4.2017,4.2694,4.3279,4.424,4.5557,4.4941,4.491,4.5557,4.491,4.4572,4.461,4.461,4.461,4.461,4.461,4.4271,4.3624,4.3593,4.2817,4.1617,4.1586,4.1155,4.029,3.8354,3.7954,3.8354,3.703,3.6969,3.74,3.6722,3.6507,3.6507,3.6507,3.6507,3.6507,3.6507,3.6507,3.6507,3.6507,3.6507,3.6507,3.6507,3.6507,3.6507,3.6507,3.6507,3.6476,3.6476,3.5953,3.5306,3.4597,3.2841,3.0812,2.8842,2.7426,2.5857,2.3825,2.2932,0.0,2.2521,2.3055,2.3425,2.3363,2.3979,2.4214,2.3802,2.273,2.2667,2.3934,2.2581,2.3009,2.5872,2.3511,2.3052,2.5025,2.3543,2.3509,2.5005,0.0,0.0,0.0,0.0,0.0,0.0,0.0,0.0,0.0,0.0,0.0,0.0,0.0,0.0,0.0,0.0,0.0,0.0,0.0,0.0,0.0,3.0073,3.2527,3.3096,3.5764,3.8827,4.1926,4.3658,4.4539,4.4569,4.4488,4.4285,4.4079,4.4228,4.4557,4.5231,4.4649,4.4733,4.5557,4.4826,4.455,4.4849,4.455,4.4458,4.461,4.461,4.461,4.461,4.461,4.4517,4.4271,4.3279,4.2663,4.2263,4.1247,4.0659,4.0382,3.937,3.8785,3.8477,3.8108,3.7769,3.74,3.6722,3.6507,3.6507,3.6507,3.6507,3.6507,3.6507,3.6507,3.6507,3.6507,3.6507,3.6507,3.6507,3.6507,3.6507,3.6507,3.6507,3.6353,3.5891,3.5645,3.5122,3.3921,3.3244,3.2351,3.0843,3.0284,2.9673,2.8602,2.7888,0.0,2.7457,2.6749,2.5887,2.4872,2.5342,2.5108,2.3564,2.4007,2.4484,2.4639,2.4616,2.5088,2.6185,2.5828,2.59,2.6499,2.5114,2.4591,0.0,0.0,0.0,0.0,0.0,0.0,0.0,0.0,0.0,0.0,0.0,0.0,0.0,0.0,0.0,0.0,0.0,0.0,0.0,0.0,0.0,0.0,3.3784,3.7015,3.8392,3.9918,4.1961,4.4918,4.5765,4.6256,4.6557,4.6381,4.6051,4.5556,4.5645,4.5764,4.5856,4.5161,4.5117,4.587,4.4863,4.4534,4.5003,4.4611,4.4458,4.461,4.461,4.461,4.461,4.461,4.4456,4.4148,4.334,4.2694,4.214,4.1309,4.0751,0.0,0.0,0.0,0.0,0.0,3.7677,3.703,3.663,3.6507,3.6507,3.6507,3.6507,3.6507,3.6507,3.6507,3.6507,3.6507,3.6507,3.6507,3.6507,3.6507,3.6507,3.6507,3.6507,3.6384,3.5984,3.5922,3.5584,3.4475,3.4044,0.0,3.2413,3.1305,3.0228,2.9304,2.8295,2.768,2.768,2.7003,2.6103,2.5004,2.5465,2.5281,2.3856,2.3938,0.0,0.0,0.0,2.4535,2.5054,2.5531,0.0,0.0,0.0,2.4942,2.5971,0.0,0.0,0.0,2.5129,2.4577,0.0,0.0,0.0,0.0,0.0,0.0,0.0,0.0,0.0,0.0,0.0,0.0,0.0,0.0,0.0,0.0,3.6922,4.0988,4.4107,4.4616,4.5177,4.6527,4.7049,4.7156,4.6738,4.6917,4.6546,4.5334,4.5879,4.603,4.5511,0.0,0.0,0.0,0.0,4.4649,4.5426,4.4841,4.4534,4.461,4.461,4.461,4.461,4.461,4.424,4.3593,4.3531,4.2756,4.1586,4.1524,4.1093,4.0413,3.9736,3.949,3.937,3.7984,3.7123,3.6599,3.6507,0.0,0.0,3.6507,3.6507,3.6507,3.6507,3.6507,3.6507,3.6507,3.6507,3.6507,3.6507,3.6507,3.6507,3.6507,3.6507,3.6507,3.6507,3.6507,3.6292,3.5645,3.5028,3.4351,3.3552,3.1366,2.9335,2.8134,2.6842,2.5958,2.5865,2.5804,2.5435,2.4604,0.0,0.0,2.4379,2.3423,2.3414,2.474,2.3553,2.3129,2.3847,2.4297,2.4439,2.4223,2.4237,2.5324,2.7427,2.7509,2.8593,3.0487,2.6458,2.573,0.0,0.0,0.0,0.0,0.0,0.0,0.0,0.0,0.0,0.0,0.0,0.0,0.0,0.0,0.0,3.6088,4.0337,4.3958,4.5651,4.6381,4.683,4.7113,4.7219,4.7249,4.7143,4.7357,4.731,4.6869,4.6342,4.6143,4.6331,4.497,4.4513,4.5221,4.4334,4.4048,4.4557,4.4281,4.4297,4.461,0.0,0.0,4.461,4.461,4.424,4.3562,4.3033,4.2325,4.1555,4.097,4.0628,4.0413,3.9736,3.949,3.937,3.7984,3.743,3.7215,3.6692,3.6507,3.6507,3.6507,3.6507,3.6507,3.6507,3.6507,0.0,3.6507,3.6507,3.6507,3.6507,3.6507,3.6507,3.6507,3.6507,3.6507,3.6507,3.6507,3.6292,3.5645,3.5398,3.4876,3.3614,3.2536,3.1736,3.1459,3.072,3.0012,2.9464,2.8941,2.7895,2.6111,2.7034,2.6842,2.4502,2.5139,2.5305,2.4472,2.4905,2.5679,2.6715,2.6945,2.7156,2.7469,2.7541,2.7796,2.8251,2.8748,2.9348,2.9954,2.9556,2.9937,0.0,0.0,0.0,0.0,0.0,0.0,0.0,0.0,0.0,0.0,0.0,2.991,3.043,0.0,3.7973,3.9619,4.294,4.5663,4.6681,4.71,4.7309,4.7309,4.7309,4.7309,4.7309,4.7452,4.7417,4.7001,4.655,4.6241,4.6086,4.4851,4.4348,4.48,4.4164,4.3988,4.4297,4.4297,4.4381,4.461,4.461,4.461,4.461,4.4271,4.371,4.3063,4.2386,4.1709,4.1032,4.0628,4.072,4.1001,4.0259,3.9797,3.937,3.7984,3.7492,3.74,3.6722,3.6507,3.6507,3.6507,3.6507,3.6507,3.6507,3.6507,3.6507,3.6507,3.6507,3.6507,3.6507,3.6507,3.6507,3.6507,3.6507,3.6507,3.6507,3.6507,3.6384,3.6045,3.5737,3.5306,3.4568,3.3583,3.2782,3.2444,3.1855,3.1274,3.0936,3.0043,2.8849,2.7495,2.7673,2.7211,2.5487,2.6002,2.6103,2.5395,2.5837,2.6502,2.7274,2.7337,2.7736,2.8602,2.8642,2.8867,2.931,2.9588,2.9925,3.0314,3.062,3.1143,0.0,0.0,0.0,0.0,0.0,0.0,0.0,0.0,2.7826,2.9405,3.1628,3.3604,3.4801,3.8392,4.1534,4.277,4.4945,4.6711,4.7219,4.7309,4.7249,4.713,4.7219,4.7309,4.7309,4.7482,4.7327,4.6786,4.6485,4.6195,4.5763,4.4698,4.4248,4.4529,4.4125,4.3988,4.4181,4.4343,4.4419,4.4458,4.4458,4.4496,4.4534,4.398,4.3365,4.2756,4.2078,4.1309,4.0505,4.0628,4.1001,4.134,4.072,4.0166,3.9521,3.8354,3.78,3.7615,3.7061,3.6784,3.6692,3.6692,3.6599,3.6507,3.6507,3.6507,3.6507,3.6507,3.6507,3.6507,3.6507,3.6507,3.6507,3.6507,3.6507,3.6507,3.6507,3.6507,3.6507,3.6507,3.6045,3.5675,3.5521,3.4537,3.3521,3.2721,3.2013,3.1547,3.1424,3.0443,2.9489,2.8688,2.8104,2.7457,2.6657,2.6472,2.6464,2.6587,2.6595,2.6807,2.7234,2.7287,2.7771,2.8823,2.8876,2.92,2.9903,3.001,3.0201,3.0485,3.0608,3.1044,2.416,2.2947,2.2766,2.4882,2.5338,2.6741,0.0,0.0,3.3758,3.686,3.8602,3.9763,4.0404,4.2342,4.4107,4.4855,4.6232,4.7219,4.7309,4.7309,4.71,4.6459,4.695,4.7309,4.7309,4.7309,4.7322,4.7233,4.6124,4.5675,4.6172,4.4436,4.3718,4.4287,4.3728,4.3488,4.3754,4.3793,4.3871,4.4065,4.4065,4.4181,4.4305,4.4243,4.3959,4.347,4.2786,4.1704,4.0536,4.1217,4.1155,4.0597,4.0536,4.0443,4.029,3.9521,3.8908,3.8385,3.8323,3.7892,3.74,3.74,3.6999,3.6507,3.6507,3.6507,3.6507,3.6507,3.6507,3.6507,3.6507,3.6507,3.6507,3.6507,3.6507,3.6507,3.6507,3.6507,3.6507,3.6507,3.6445,3.6199,3.5614,3.5398,3.4814,3.349,3.2721,3.2074,3.1486,3.127,3.0689,2.9427,2.9218,2.8658,2.7396,2.6718,2.6626,2.7242,2.7272,2.7573,2.8206,2.8237,2.8498,2.9039,2.9062,2.9094,2.9212,2.9685,2.9729,2.9384,2.9924,3.0649,2.6801,2.5625,2.5212,0.0,2.9056,3.0582,3.4325,3.5857,3.7121,3.9247,4.131,4.2959,4.3579,4.4975,4.6142,0.0,4.695,4.7309,4.7309,4.698,4.6352,4.5233,4.5394,4.5723,4.6112,4.6501,4.6741,4.6741,4.5843,4.5424,4.5693,4.4157,4.3409,4.3708,4.3918,4.3918,4.3675,4.4225,4.4304,4.3988,4.3988,4.4065,4.4112,4.3716,4.303,4.218,4.1536,4.1203,4.1155,4.1032,4.1032,4.1124,4.0659,4.0505,4.0413,3.9736,3.9305,3.9031,3.8662,3.8323,3.8015,3.7615,3.7307,3.6999,3.6599,3.6753,3.6999,3.6599,3.6784,3.6999,3.6599,3.6507,3.6507,3.6507,3.6507,3.6507,3.6507,3.6507,3.6507,3.6507,3.6507,3.6415,3.6107,3.5737,3.5276,3.4691,3.3675,3.2721,3.2044,3.164,3.0874,2.9525,2.9402,2.9027,2.8073,2.7734,2.7673,2.795,2.798,2.8104,2.8381,2.8411,2.8477,2.8692,2.8716,2.8716,2.8716,2.8943,2.9074,2.9143,2.9406,2.987,2.7739,0.0,0.0,3.0522,3.2467,3.4233,3.6596,3.8212,3.9649,4.1175,4.3,4.4496,4.5185,4.6232,4.704,4.704,4.7189,4.7249,4.707,4.6471,4.5484,4.3958,4.3599,4.3629,4.3928,4.5065,4.5843,4.6022,4.5574,4.5364,4.5574,4.4496,4.3917,4.4097,4.4378,4.4318,4.3867,4.4327,4.4316,4.3832,4.3832,4.3871,4.3879,4.3472,4.2697,4.165,4.1443,4.1367,4.1484,4.1111,4.1115,4.1278,4.094,4.0782,4.072,4.0262,3.992,3.9705,3.9213,3.8939,3.8692,3.7984,3.7646,3.7369,3.6692,3.6969,3.74,3.6907,3.7123,3.743,3.7123,3.6907,3.6784,3.6784,3.6784,3.6722,3.6538,3.6507,3.6507,3.6507,3.6507,3.6507,3.6507,3.6076,3.5707,3.5552,3.4629,3.3644,3.2782,3.1921,3.1028,3.0074,2.9797,2.9402,2.875,2.8688,2.8596,2.8411,2.8411,2.8411,2.8411,2.8411,2.8411,2.8411,2.8411,2.8411,2.8411,2.8411,2.8573,2.892,2.892,2.9106,2.5501,0.0,2.7679,3.2258,3.4891,3.7225,4.0457,4.1302,4.1833,4.3778,4.4257,4.4496,4.5185,4.5873,4.6309,4.6309,4.689,4.707,4.6399,4.5753,4.4616,4.268,4.1901,4.1235,0.0,4.288,4.4646,4.5274,4.5304,4.5574,4.6219,4.5633,4.5544,4.616,4.4975,4.4317,4.4287,4.3658,4.3359,4.3329,4.3329,4.3478,4.3744,4.3879,4.3563,4.2955,4.3631,4.2856,4.127,4.1979,4.1561,4.0597,4.1309,4.1586,4.1555,4.1555,4.1093,4.0474,4.0443,4.0013,3.9336,3.8692,3.8046,3.7369,3.6692,3.6969,3.7492,3.7492,3.7492,3.7646,3.8292,3.7954,3.7461,3.7461,3.7461,3.7277,3.663,3.6507,3.6507,3.6507,3.6507,3.6507,3.6507,3.6476,3.623,3.5614,3.546,3.4937,3.3552,3.2198,3.1366,3.1336,3.0782,3.0109,2.9433,2.9371,2.9089,2.8442,2.8411,2.8411,2.8411,2.8411,2.8411,2.8411,2.8411,2.8411,2.8411,2.8411,2.8411,2.8436,2.8436,2.8436,2.8969,0.0,3.2617,3.5908,3.8242,4.0164,4.1722,4.2701,4.3389,4.3589,4.297,4.2312,4.2073,4.1504,4.1654,4.3419,4.4257,4.5095,4.613,4.6142,4.4766,4.1444,4.1662,0.0,0.0,0.0,0.0,4.3858,4.4407,4.4945,4.5603,4.5424,4.5394,4.5633,4.5633,4.5424,4.4975,4.4736,4.4407,4.3947,4.3499,4.3329,4.3409,4.3076,4.2861,4.2697,4.2213,4.1699,4.1209,4.1102,4.1146,4.1247,4.1494,4.1863,4.2202,4.1771,4.1432,4.1186,4.0659,4.0351,4.0043,3.9367,3.9031,3.8723,3.8046,3.8323,3.8662,3.7738,3.8138,3.8692,3.8015,3.8015,3.8169,3.8169,3.8169,3.8108,3.7892,3.7831,3.7831,3.7831,3.7461,3.7153,3.7153,3.6784,3.6415,3.6199,3.5429,3.4505,3.3521,3.2998,3.2382,3.1516,3.1182,3.0782,3.0109,2.9648,2.9279,2.9089,2.8658,2.8411,2.8411,2.8411,2.8411,2.8411,2.8411,2.8411,2.8411,2.8411,2.8411,2.8411,2.8411,2.8411,3.139,3.3694,3.5911,3.8751,4.0606,4.1931,4.2551,4.318,4.324,4.1863,4.0696,3.9529,3.8182,3.7225,3.7494,4.0157,4.1175,4.2462,4.4874,4.5065,4.3958,4.1414,4.1482,4.1033,0.0,0.0,0.0,4.2841,4.3694,4.4329,4.4744,4.5217,4.5496,4.5496,4.6032,4.5992,4.5304,4.5065,4.4616,4.3958,4.3499,4.329,4.329,4.291,4.2659,4.2475,4.1851,4.1407,4.1102,4.0852,4.0931,4.1247,4.1494,4.1863,4.2202,4.1771,4.1586,4.1494,4.0751,4.0505,4.0382,3.9705,3.949,3.9367,3.8723,3.897,3.9305,3.8477,3.8846,3.9336,3.8754,3.8723,3.8877,3.8877,3.8877,3.8816,3.8569,3.8508,3.8508,3.8508,3.7954,3.7492,3.7492,3.6938,3.6507,3.6507,3.5768,3.4967,3.4229,3.3706,3.3059,3.2198,3.189,3.149,3.0812,3.0351,2.992,2.9433,2.8996,2.8658,2.8411,2.8411,2.8411,2.8411,2.8411,2.8411,2.8411,2.8658,2.8781,2.8781,2.8996,2.9095,3.2766,3.531,3.7614,4.0786,4.2051,4.265,4.311,4.2701,4.1452,3.8781,3.7554,3.6178,0.0,0.0,3.4113,3.6836,3.7943,3.9649,4.2891,4.297,4.2551,0.0,0.0,0.0,0.0,0.0,0.0,4.2186,0.0,4.3733,4.3835,4.5111,4.5824,4.5869,4.6178,4.6052,4.5394,4.4706,4.4018,4.329,4.329,4.329,4.329,4.329,4.297,4.241,4.2505,4.1942,4.0982,4.1102,4.0882,4.0628,4.134,4.1617,4.1648,4.1617,4.1586,4.1494,4.0751,4.0505,4.0382,3.9736,3.9521,3.9428,3.8816,3.9062,3.9521,3.949,3.9521,3.9674,4.029,3.9982,3.9521,3.9521,3.9521,3.94,3.8754,3.86,3.86,3.86,3.8046,3.7523,3.7461,3.6907,3.6507,3.6507,3.6507,3.6261,3.5614,3.4291,3.3429,3.3398,3.2782,3.2136,3.1516,3.1424,3.0843,2.9556,2.9489,2.9181,2.8535,2.8504,2.8504,2.8504,2.8504,2.8504,2.8504,2.915,2.9433,2.9489,3.0109,3.0386,3.7554,4.0068,4.2013,4.3838,4.4047,4.3599,4.2791,4.0935,3.8811,3.6686,3.3365,3.0492,0.0,0.0,0.0,3.4651,3.7853,0.0,4.3341,4.5023,0.0,4.131,0.0,4.2051,3.9874,4.0294,0.0,0.0,4.1894,4.2794,4.4443,4.5343,4.6166,4.6887,4.7,4.698,4.68,4.5633,4.4466,4.329,4.329,4.329,4.329,4.329,4.297,4.2381,4.2092,4.1512,4.074,4.0614,4.0755,4.1132,4.1454,4.1894,4.2294,4.1771,4.1586,4.1494,4.0751,4.0505,4.0474,4.029,4.0228,4.0197,4.0043,4.0105,4.0136,3.9613,3.9859,4.0166,3.9828,3.9982,4.0228,4.0228,4.0228,4.0197,4.0013,3.9982,3.9982,3.9982,3.9062,3.7923,3.6938,3.6599,3.6507,3.6507,3.6507,3.6261,3.5614,3.4751,3.4012,3.346,3.2782,3.2321,3.2167,3.1701,3.1243,3.0905,3.0443,3.0048,2.9894,2.9894,2.9894,2.9894,2.9894,2.9894,2.9894,3.0048,3.014,3.014,3.0325,3.0386,4.0427,4.2701,4.4317,4.4766,4.4377,4.324,4.0756,3.8465,3.5829,3.2318,2.9025,0.0,2.5956,0.0,0.0,0.0,0.0,0.0,4.2022,4.3897,4.4136,0.0,4.2559,0.0,4.0839,4.0974,4.1276,0.0,4.158,4.2384,4.4081,4.48,4.5598,4.6594,4.6638,4.6372,4.5739,4.5156,4.4347,4.329,4.329,4.329,4.329,4.329,4.297,4.2351,0.0,4.1324,4.0667,4.0325,4.04,4.0736,4.0948,4.1264,4.1541,4.1243,4.1124,4.1063,4.0628,4.0505,4.0505,4.0505,4.0505,4.0505,4.0505,4.0505,4.0413,4.0043,4.0197,4.0413,4.0043,4.0197,4.0505,4.0505,4.0505,4.0505,4.0505,4.0505,4.032,3.9736,3.9031,3.8077,3.6722,3.6507,3.6507,3.6507,3.6507,3.6353,3.5984,3.5121,3.4351,3.3921,3.2998,3.2382,3.2382,3.2044,3.1705,3.1424,3.1059,3.072,3.0417,3.0386,3.0386,3.0386,3.0386,3.0386,3.0386,3.072,3.0843,3.0843,3.1151,3.1305,4.2261,4.4047,4.5304,4.4736,4.3917,4.2243,3.8212,3.5703,3.2727,2.7424,0.0,2.375,2.3509,2.3224,2.4889,3.0568,0.0,3.5276,3.9998,4.1443,4.2238,4.2823,4.26,4.2321,4.2185,4.1478,4.1255,4.1719,4.1746,4.2174,4.3203,4.3771,4.4591,4.5553,4.5512,4.4905,4.3632,4.3843,4.3593,4.2941,4.309,4.313,4.313,4.325,4.2891,4.2195,4.1926,4.1333,4.0604,4.0262,4.0097,4.0132,4.0252,4.0296,4.0296,4.047,4.0505,4.0505,4.0505,4.0505,4.0505,4.0505,4.0505,4.0505,4.0505,4.0505,4.0505,4.0505,4.0505,4.0505,4.0505,4.0505,4.0505,4.0505,4.0505,4.0505,4.0505,4.0505,4.0105,3.8785,3.8508,3.8077,3.6722,3.6507,3.6507,3.6507,3.6507,3.6507,3.6507,3.5429,3.4628,3.4628,3.3367,3.2536,3.2536,3.2444,3.2136,3.1551,3.152,3.1274,3.0694,3.0663,3.0663,3.0663,3.0663,3.0663,3.0663,3.1243,3.152,3.1547,3.2105,3.2382,4.4257,4.5454,4.6112,4.595,4.4676,4.2192,3.7674,3.3841,0.0,0.0,2.2767,2.1257,2.262,2.337,2.5462,3.0539,0.0,0.0,0.0,0.0,4.2098,0.0,0.0,0.0,0.0,0.0,0.0,0.0,0.0,4.1807,4.2821,4.3026,4.3484,4.4545,4.4054,4.346,4.2754,4.2278,4.1739,4.1071,4.1852,4.2252,4.2252,4.2941,4.2545,4.1288,4.1989,0.0,4.0169,4.0457,4.0583,4.0559,4.037,4.0296,4.0296,4.047,4.0505,4.0505,4.0505,4.0505,4.0505,4.0505,4.0505,4.0505,4.0505,4.0505,4.0505,4.0505,4.0505,4.0505,4.0505,4.0505,4.0505,4.0505,4.0505,4.0505,4.0505,4.0505,4.0105,3.8785,3.8508,3.8077,3.6722,3.6507,3.6507,3.6507,3.6507,3.6507,3.6507,3.5799,3.5337,3.5337,3.4075,3.3244,3.3244,3.2721,3.2351,3.2228,3.2228,3.2167,3.2044,3.2044,3.2044,3.2044,3.2044,3.2044,3.2044,3.2167,3.2228,3.2228,3.2351,3.2382,4.3478,4.4703,4.5858,4.5138,4.3006,3.9799,3.4996,0.0,0.0,0.0,2.0197,1.9256,2.1448,0.0,0.0,0.0,0.0,0.0,0.0,0.0,0.0,0.0,0.0,0.0,0.0,0.0,0.0,0.0,0.0,4.172,4.2744,4.3321,4.3393,4.3042,4.3296,4.2726,4.1249,4.1495,4.1237,4.0603,4.1071,4.1239,4.1281,4.1699,4.1761,4.1512,4.1634,0.0,4.1233,4.1107,4.1055,4.1062,4.1055,4.1043,4.1018,4.0903,4.0856,4.083,4.0562,4.0505,4.0505,4.0505,4.0505,4.0505,4.0505,4.0505,4.0505,4.0505,4.0505,4.0505,4.0505,4.0505,4.0505,4.0505,4.0505,4.0505,4.0505,4.0505,4.0105,3.8785,3.8508,3.8077,3.6722,3.6507,3.6507,3.6507,3.6507,3.6507,3.6507,3.6199,3.5861,3.5552,3.4568,3.3798,3.3429,3.3121,3.2782,3.2413,3.2382,3.2382,3.2382,3.2382,3.2382,3.2382,3.2382,3.2382,3.2382,3.2382,3.2382,3.2382,3.2382,3.2382,4.2393,4.384,4.543,4.3994,4.1123,3.7376,3.2311,2.8081,0.0,0.0,1.8324,1.8084,2.0509,0.0,2.1513,0.0,0.0,0.0,0.0,0.0,0.0,0.0,0.0,0.0,0.0,0.0,0.0,0.0,0.0,0.0,4.2431,4.3225,4.2998,4.1591,4.223,4.17,3.9841,4.0491,4.0514,4.0,4.0216,4.0303,4.0303,4.0518,4.0986,4.1657,4.1372,0.0,4.2257,4.1825,4.1632,4.1632,4.1671,4.1716,4.1663,4.1419,4.1387,4.1331,4.083,4.0685,4.0685,4.072,4.0628,4.0505,4.0505,4.0505,4.0505,4.0505,4.0505,4.0536,4.0689,4.072,4.072,4.072,4.0597,4.0505,4.0505,4.0505,4.0136,3.897,3.86,3.8138,3.6907,3.6599,3.6507,3.6507,3.6507,3.6507,3.6507,3.6507,3.6292,3.5768,3.5121,3.4505,3.3891,3.3583,3.3183,3.2659,3.2475,3.2382,3.2382,3.2382,3.2382,3.2382,3.2382,3.2382,3.2382,3.2382,3.2382,3.2382,3.2382,3.2382,4.283,4.4498,4.5314,4.3371,4.0396,3.6609,3.1241,0.0,0.0,1.9482,1.8147,1.831,2.0126,1.9647,2.032,0.0,0.0,2.6796,0.0,0.0,0.0,0.0,0.0,0.0,0.0,0.0,0.0,0.0,0.0,0.0,4.1448,4.1547,4.1284,4.0582,4.018,3.9601,3.8851,3.8444,3.8201,3.8148,3.897,3.9343,3.9387,4.0216,4.0646,4.0774,4.1587,0.0,0.0,4.2248,4.2321,4.2261,4.1851,4.1716,4.1686,4.1819,4.1973,4.2132,4.1362,4.1184,4.125,4.1423,4.1063,4.0505,4.0505,4.0505,4.0505,4.0505,4.0505,4.0628,4.134,4.1494,4.1494,4.1494,4.1001,4.0505,4.0505,4.0505,4.029,3.9521,3.8939,3.8262,3.7523,3.6907,3.6507,3.6507,3.6507,3.6507,3.6507,3.6507,3.6476,3.6415,3.5799,3.5398,3.5306,3.4137,3.3367,3.3306,3.2721,3.2382,3.2382,3.2382,3.2382,3.2382,3.2382,3.2382,3.2382,3.2382,3.2382,3.2382,3.2382,3.2382,3.8929,4.1453,4.3557,4.1669,3.8471,3.4621,3.0205,0.0,2.2519,1.9174,1.7928,1.7725,1.8659,1.8281,1.86,0.0,0.0,0.0,0.0,0.0,0.0,0.0,0.0,0.0,0.0,0.0,0.0,0.0,0.0,0.0,4.0801,4.0775,4.0514,3.9939,3.9364,3.8789,3.8214,3.8004,3.79,3.79,3.8258,3.844,3.844,3.8774,3.9237,3.9826,4.0774,0.0,0.0,4.2862,4.3166,4.3175,4.2973,4.2891,4.2861,4.2485,4.2485,4.265,4.2059,4.1851,4.1918,4.213,4.1945,4.1628,4.1735,4.1494,4.1186,4.1186,4.0812,4.0566,4.0843,4.097,4.1063,4.1494,4.1063,4.0505,4.0505,4.0505,4.029,3.9613,3.9275,3.8785,3.7677,3.7277,3.6969,3.6569,3.6507,3.6507,3.6507,3.6507,3.6507,3.6507,3.6261,3.5922,3.5522,3.4968,3.4475,3.4104,3.3398,3.2998,3.2998,3.2598,3.2382,3.2382,3.2382,3.2382,3.2382,3.2382,3.2382,3.2382,3.2382,3.2382,3.5251,3.8354,4.1183,3.9654,3.6311,3.2446,0.0,0.0,2.0954,1.8597,1.7625,1.7303,1.7564,1.7406,1.7512,0.0,0.0,2.0832,0.0,0.0,0.0,0.0,0.0,0.0,0.0,0.0,0.0,0.0,0.0,0.0,4.0697,4.0357,3.9913,3.9364,3.8919,3.8449,3.7926,3.79,3.79,3.79,3.79,3.8037,3.8285,3.8037,3.8711,4.0043,4.0432,0.0,0.0,4.325,4.3596,4.3596,4.3675,4.3636,4.3536,4.3094,4.3029,4.3122,4.2575,4.2369,4.2474,4.2695,4.2622,4.2504,4.3015,4.2448,4.1555,4.134,4.1217,4.1151,4.137,4.1432,4.1494,4.1832,4.137,4.0751,4.0536,4.0505,4.0351,3.989,3.9613,3.9216,3.8262,3.7769,3.7338,3.6876,3.663,3.6507,3.6507,3.6507,3.6507,3.6507,3.6507,3.6292,3.583,3.5614,3.5306,3.4844,3.4106,3.3737,3.3737,3.3244,3.2998,3.2998,3.2998,3.2906,3.269,3.269,3.2598,3.2382,3.2382,3.2382,3.2803,3.6037,3.8363,3.7621,3.4206,3.0207,0.0,0.0,1.9342,1.7586,1.722,1.7199,1.722,1.7199,1.7408,1.8009,0.0,0.0,0.0,0.0,0.0,0.0,0.0,0.0,0.0,0.0,0.0,0.0,0.0,0.0,4.1298,4.0226,3.9337,3.8736,3.871,3.8449,3.7926,3.79,3.79,3.79,3.79,3.8349,3.9166,3.8258,3.9397,4.1893,0.0,0.0,0.0,4.329,4.329,4.3329,4.3596,4.3557,4.3329,4.3596,4.3675,4.3585,4.2823,4.265,4.2757,4.3145,4.3024,4.2916,4.4205,4.3156,4.1463,4.072,4.1489,4.2725,4.3408,4.3562,4.3408,4.2756,4.2078,4.1401,4.0659,4.0505,4.0505,4.0474,3.9951,3.949,3.9459,3.8385,3.7492,3.7492,3.6907,3.6507,3.6507,3.6507,3.6507,3.6507,3.6507,3.6507,3.6476,3.5861,3.5521,3.5491,3.4874,3.4505,3.4505,3.4474,3.4474,3.4474,3.4474,3.4135,3.3398,3.3398,3.3059,3.2382,3.2382,3.2382,2.7668,3.0207,3.1962,3.0881,2.9039,2.6673,2.3652,0.0,1.9316,1.7565,1.7199,1.7199,1.7199,1.7199,1.7643,1.9054,1.9394,0.0,0.0,0.0,0.0,0.0,0.0,0.0,0.0,0.0,0.0,0.0,0.0,0.0,4.0723,4.0017,3.952,3.9337,3.8579,3.8083,3.79,3.79,3.79,3.79,3.79,3.8011,3.8304,3.8639,3.9254,0.0,0.0,0.0,0.0,4.325,4.3557,4.3596,4.3675,4.3636,4.3557,4.3478,4.3557,4.3675,4.3434,4.3374,4.3452,4.3846,4.3388,4.2727,4.2945,4.2799,4.245,4.1893,4.2155,4.2756,4.3439,4.3285,4.2848,4.2663,4.2078,4.1401,4.0659,4.0505,4.0505,4.0505,4.032,4.0043,3.9551,3.8785,3.8046,3.7584,3.6938,3.6507,3.6507,3.6507,3.6507,3.6507,3.6507,3.6507,3.6507,3.6292,3.6168,3.6168,3.5552,3.5183,3.5183,3.4751,3.4505,3.4505,3.4505,3.4382,3.4166,3.4166,3.3767,3.309,3.309,3.2844,0.0,2.6059,2.7556,2.6994,2.5694,0.0,0.0,0.0,1.8506,1.7434,1.7199,1.7199,1.7199,1.7199,1.7565,1.8636,1.9002,0.0,0.0,0.0,0.0,0.0,0.0,0.0,0.0,0.0,0.0,0.0,0.0,0.0,4.0775,4.0043,3.9599,3.9599,3.8501,3.79,3.79,3.79,3.79,3.79,3.79,3.8057,3.8395,3.8594,3.9282,0.0,0.0,0.0,0.0,4.325,4.3557,4.3557,4.3636,4.3636,4.3557,4.3478,4.3518,4.3557,4.3557,4.3557,4.3596,4.3949,4.3676,4.3136,4.2789,4.2463,4.2295,4.2498,4.2677,4.2904,4.3577,4.3424,4.3057,4.2812,4.2303,4.1725,4.1295,4.0808,4.0566,4.0843,4.0689,4.0351,3.9951,3.9305,3.8662,3.7984,3.7307,3.6784,3.6538,3.6507,3.6507,3.6507,3.6507,3.6507,3.6507,3.6507,3.6507,3.6507,3.6107,3.5891,3.5891,3.5491,3.5275,3.5275,3.5275,3.5152,3.4874,3.4628,3.4258,3.3798,3.3798,3.3429,0.0,2.3212,2.4573,2.5066,2.3602,2.1747,2.0699,0.0,0.0,1.7199,1.7199,1.7199,1.7251,1.7225,1.7251,1.7356,1.7878,0.0,0.0,0.0,0.0,0.0,0.0,0.0,0.0,0.0,0.0,4.1324,4.1272,0.0,4.1324,4.0226,3.9599,3.9599,3.8501,3.79,3.79,3.79,3.79,3.79,3.79,3.8304,3.9077,3.8349,3.9397,0.0,0.0,4.1657,0.0,4.325,4.329,4.3329,4.3557,4.3518,4.3329,4.3596,4.3518,4.329,4.329,4.329,4.3329,4.3536,4.3732,4.3819,4.3388,4.2281,4.1468,4.2713,4.3047,4.3198,4.3836,4.3957,4.3745,4.3077,4.2558,4.2187,4.2157,4.1255,4.0655,4.1366,4.0935,4.0505,4.0505,3.992,3.9308,3.8662,3.8015,3.7338,3.6661,3.6569,3.6538,3.6507,3.6507,3.6507,3.6507,3.6507,3.6507,3.6507,3.6507,3.6507,3.6507,3.6507,3.6507,3.6507,3.6507,3.6168,3.5553,3.4967,3.4628,3.4566,3.4566,3.4197,1.8192,0.0,1.9054,1.9185,1.8819,1.8349,0.0,0.0,0.0,0.0,0.0,0.0,0.0,1.7512,1.7643,1.8976,1.9706,2.0491,2.1616,0.0,0.0,0.0,0.0,0.0,0.0,0.0,4.0827,4.1272,4.088,4.0827,4.1298,4.0226,3.9599,3.9599,3.8501,3.79,3.79,3.79,3.79,3.79,3.79,3.8037,3.8239,3.8684,3.9254,3.9956,4.1113,4.1893,4.2374,4.305,4.329,4.329,4.3369,4.3369,4.329,4.3369,4.3329,4.329,4.329,4.329,4.324,4.2839,4.2844,4.296,4.2659,4.2922,4.3312,4.349,4.3629,4.3775,4.3957,4.3623,4.3047,4.2379,4.1748,4.1176,4.0659,4.033,4.0217,4.0546,4.0454,4.0366,4.0505,3.992,3.9428,3.9308,3.8692,3.8015,3.7338,3.7246,3.7061,3.6538,3.6507,3.6507,3.6507,3.6507,3.6507,3.6507,3.6507,3.6507,3.6507,3.6507,3.6507,3.6507,3.6507,3.6415,3.6261,3.6107,3.5768,3.5275,3.5275,3.4905,1.7488,1.7529,1.7617,1.7617,1.7617,1.7617,1.7617,0.0,0.0,0.0,0.0,0.0,0.0,0.0,0.0,0.0,2.0309,0.0,0.0,0.0,0.0,0.0,0.0,0.0,0.0,0.0,4.0958,4.1298,4.101,4.0853,4.0906,4.0069,3.9494,3.9207,3.8344,3.79,3.79,3.79,3.79,3.79,3.79,3.7769,3.7482,3.797,3.8272,3.8483,3.9773,4.0627,4.1215,4.2273,4.2792,4.291,4.317,4.329,4.329,4.329,4.329,4.329,4.329,4.329,4.323,4.291,4.2899,4.2938,4.286,4.3217,4.3675,4.3557,4.3596,4.3675,4.3675,4.3404,4.299,4.2327,4.1768,4.12,4.0873,4.0364,4.0137,4.0548,4.037,4.0187,4.0261,4.0025,3.9757,3.9419,3.9118,3.8723,3.8046,3.7677,3.7369,3.6999,3.6661,3.6507,3.6507,3.6507,3.6507,3.6507,3.6507,3.6507,3.6507,3.6507,3.6507,3.6507,3.6507,3.6507,3.6507,3.6507,3.6292,3.5953,3.5953,3.5614,1.7896,1.8211,1.8407,1.8122,1.8079,1.8087,1.7983,0.0,0.0,0.0,0.0,0.0,0.0,1.7669,0.0,0.0,0.0,0.0,0.0,0.0,0.0,0.0,0.0,0.0,4.0853,4.101,4.1089,4.1167,4.101,4.0775,4.0435,3.9808,3.9233,3.8736,3.8187,3.7874,3.7769,3.7848,3.79,3.79,3.7821,3.7508,3.7011,3.6907,3.7008,3.7346,0.0,0.0,3.9801,4.1093,4.1726,4.1941,4.2555,4.2832,4.2832,4.3071,4.314,4.317,4.326,4.329,4.329,4.329,4.329,4.329,4.329,4.329,4.329,4.329,4.329,4.329,4.329,4.323,4.303,4.241,4.1866,4.1498,4.1468,4.074,4.0243,4.0855,4.0491,4.0066,4.0011,4.0152,4.0043,3.9432,3.9477,3.9398,3.8688,3.8137,3.7769,3.7677,3.7061,3.663,3.663,3.6569,3.6507,3.6507,3.6507,3.6507,3.6507,3.6507,3.6507,3.6507,3.6507,3.6507,3.6507,3.6507,3.6507,3.6507,3.6507,3.6199,1.8431,1.9287,1.9683,1.8198,1.7978,1.7957,0.0,0.0,0.0,0.0,0.0,0.0,0.0,1.981,2.0674,0.0,0.0,2.8647,0.0,0.0,0.0,0.0,0.0,4.054,3.9233,3.9573,4.0069,4.0514,3.9651,3.9494,4.0357,3.9416,3.8815,3.871,3.8187,3.7665,3.7142,3.7639,3.79,3.79,3.7377,3.709,3.6985,3.6462,3.6289,3.6384,0.0,3.823,3.802,3.9452,3.9782,3.9527,4.0292,4.0587,4.0724,4.2049,4.256,4.262,4.315,4.329,4.329,4.329,4.329,4.329,4.329,4.329,4.329,4.329,4.329,4.329,4.329,4.291,4.2381,4.1722,4.1063,4.0583,4.0583,4.0471,4.0424,4.0697,4.0674,4.0468,4.0066,4.0046,4.0016,3.9894,4.0039,3.9899,3.9195,3.9146,3.9,3.8415,3.7738,3.7338,3.7338,3.6815,3.6507,3.6507,3.6507,3.6507,3.6507,3.6507,3.6507,3.6507,3.6507,3.6507,3.6507,3.6507,3.6507,3.6507,3.6507,3.6445,1.8499,1.8865,1.9155,1.9211,1.9372,1.9261,0.0,0.0,0.0,0.0,0.0,0.0,0.0,0.0,2.2898,2.6791,0.0,3.2202,3.5025,3.6332,3.7351,0.0,0.0,4.02,3.9677,3.9886,4.0017,3.9991,3.9494,3.9285,3.9494,3.871,3.8135,3.7795,3.7534,3.7116,3.6515,3.7116,3.7246,3.6933,3.6985,3.6671,3.607,3.5783,3.5495,3.525,0.0,3.6646,3.6633,3.7951,3.8435,3.842,3.9162,3.9715,4.0275,4.1802,4.262,4.294,4.32,4.329,4.329,4.329,4.329,4.329,4.329,4.309,4.288,4.32,4.329,4.329,4.329,4.2851,4.2231,4.1572,4.0876,4.0307,3.9948,3.9858,3.9895,3.9967,4.0004,3.9914,3.9721,3.9768,3.9839,3.9839,4.0016,4.0034,3.9833,3.9535,3.9235,3.9059,3.8138,3.7492,3.7492,3.6876,3.6507,3.6507,3.6507,3.6507,3.6507,3.6507,3.6507,3.6507,3.6507,3.6507,3.6507,3.6507,3.6507,3.6507,3.6507,3.6507,1.8697,1.8625,1.8852,1.989,0.0,0.0,0.0,0.0,0.0,0.0,0.0,0.0,0.0,2.3082,0.0,3.079,3.33,3.5338,3.7508,3.7926,3.8449,3.9651,3.9808,3.986,3.9991,4.0017,3.9834,3.9442,3.9285,3.9076,3.8736,3.8057,3.7482,3.7011,3.6854,3.6515,3.5913,3.6488,3.6567,3.6096,3.6436,3.6149,3.5286,3.5155,3.4842,3.4424,3.5025,3.5288,3.5292,3.6491,3.7044,3.7247,3.8102,3.9132,4.0305,4.1671,4.2551,4.312,4.323,4.329,4.329,4.329,4.329,4.329,4.329,4.3,4.2701,4.314,4.329,4.329,4.329,4.2851,4.2231,4.1572,4.0995,4.0487,3.9978,3.9888,3.9888,3.9888,3.9888,3.9828,3.9679,3.9757,3.9896,4.0046,4.0015,4.0041,4.0436,3.986,3.9535,3.9705,3.8692,3.7892,3.7738,3.7246,3.6907,3.6722,3.6569,3.6507,3.6507,3.6507,3.6507,3.6507,3.6507,3.6507,3.6507,3.6507,3.6507,3.6507,3.6507,3.6507,1.9204,1.9628,1.9949,1.9496,1.9615,0.0,2.3158,2.3287,0.0,2.4338,0.0,0.0,0.0,2.734,3.0388,3.2986,3.5757,3.8187,3.9939,0.0,4.0853,4.0409,4.0357,3.9965,3.8919,3.8841,3.8815,3.8789,3.8318,3.8214,3.8684,3.7665,3.7037,3.7011,3.6462,3.5913,3.5365,3.5887,3.6149,3.6096,3.5626,3.5391,3.5286,3.4711,3.445,3.4424,3.5025,3.4701,3.3866,3.4994,3.5284,3.5174,3.6509,3.8409,4.0472,4.1205,4.1901,4.256,4.312,4.329,4.329,4.329,4.329,4.329,4.329,4.326,4.323,4.329,4.329,4.329,4.329,4.2851,4.2231,4.1572,4.1354,4.1294,4.1302,4.1272,4.1272,4.1272,4.1272,4.1055,4.0427,4.0337,4.0583,4.1183,4.0407,4.0015,4.083,4.0522,4.027,4.0413,3.9767,3.9123,3.8477,3.8385,3.8108,3.7461,3.6846,3.6507,3.6507,3.6507,3.6507,3.6507,3.6507,3.6507,3.6507,3.6507,3.6507,3.6507,3.6507,3.6507,1.9046,2.0046,2.0946,2.1019,2.1868,0.0,0.0,2.502,2.6085,2.6495,2.6844,0.0,0.0,0.0,3.2489,3.4789,3.6698,3.8501,4.0174,4.0331,4.0305,4.0409,4.0122,3.9599,3.8789,3.871,3.8423,3.7717,3.7456,3.7273,3.709,3.6358,3.594,3.594,3.573,3.5312,3.4737,3.5312,3.5417,3.5051,3.5208,3.5103,3.4737,3.4502,3.4397,3.4397,3.4293,3.4005,3.3587,3.3666,3.3816,3.4233,3.6164,3.8026,3.9753,4.0964,4.1841,4.25,4.312,4.329,4.329,4.329,4.329,4.323,4.2851,4.2731,4.2731,4.2731,4.2731,4.2731,4.2731,4.2291,4.1632,4.0935,4.0756,4.0756,4.0756,4.0756,4.0876,4.1294,4.1055,4.0816,4.0965,4.0995,4.1085,4.1354,4.068,4.0347,4.0916,4.0477,4.0191,4.047,3.989,3.9247,3.8569,3.8508,3.8231,3.7554,3.7246,3.6938,3.6507,3.6507,3.6507,3.6507,3.6507,3.6507,3.6507,3.6507,3.6507,3.6507,3.6507,3.6507,1.8835,1.9834,2.0985,2.1582,0.0,0.0,2.5654,2.6746,2.7984,2.9197,2.9457,0.0,0.0,0.0,0.0,0.0,3.7011,3.8632,3.9965,3.9834,3.9677,3.986,3.9547,3.9102,3.8501,3.8449,3.8057,3.7063,3.7011,3.675,3.6149,3.56,3.5286,3.5286,3.5103,3.4816,3.4397,3.4816,3.4711,3.4136,3.4554,3.4554,3.4136,3.3953,3.3849,3.3849,3.3456,3.3221,3.3012,3.3054,3.3726,3.492,3.6939,3.8292,3.9354,4.0628,4.1542,4.2171,4.2791,4.303,4.303,4.303,4.288,4.2641,4.2231,4.2231,4.241,4.241,4.241,4.241,4.241,4.2081,4.1572,4.0876,4.0876,4.1025,4.1025,4.1025,4.1145,4.1632,4.1324,4.1175,4.1662,4.1722,4.1773,4.1953,4.1265,4.0838,4.117,4.0703,4.0365,4.0501,4.0074,3.9613,3.9152,3.9121,3.8877,3.8169,3.8138,3.7646,3.6538,3.6507,3.6507,3.6507,3.6507,3.6507,3.6507,3.6507,3.6599,3.6815,3.6815,3.6938,1.8644,1.9086,1.988,0.0,0.0,0.0,2.9322,2.8701,2.8699,3.2751,0.0,3.1823,3.1823,0.0,0.0,3.4214,3.6828,3.8919,3.952,3.9599,3.9364,3.8789,3.871,3.8475,3.7952,3.79,3.7639,3.7037,3.6985,3.6724,3.6123,3.5574,3.5286,3.5286,3.4711,3.4397,3.4371,3.4371,3.411,3.3587,3.3587,3.3587,3.3561,3.296,3.2698,3.2698,3.2672,3.2359,3.1888,3.3254,3.5133,3.7346,3.8816,3.9373,3.9499,4.0157,4.0816,4.1512,4.2171,4.2381,4.2381,4.2381,4.1961,4.1422,4.1422,4.1871,4.241,4.2381,4.241,4.241,4.241,4.241,4.2231,4.1572,4.1931,4.241,4.241,4.241,4.241,4.241,4.241,4.241,4.241,4.241,4.262,4.32,4.2222,4.146,4.1648,4.1297,4.0883,4.0532,4.0505,4.0505,4.0505,4.0505,4.0197,3.9521,3.949,3.86,3.6569,3.6507,3.6507,3.6507,3.6507,3.6507,3.6507,3.6507,3.6846,3.7492,3.7523,3.7861,2.0538,2.2308,0.0,0.0,0.0,0.0,0.0,3.0419,0.0,0.0,0.0,3.3509,3.3143,0.0,0.0,3.5495,3.6671,3.7848,3.8841,3.8658,3.8475,3.8684,3.837,3.7926,3.7325,3.7273,3.6854,3.5887,3.5809,3.5547,3.4946,3.4737,3.4476,3.411,3.3927,3.3613,3.3195,3.3195,3.3117,3.296,3.2568,3.2568,3.296,3.2777,3.2698,3.2672,3.2254,3.1954,3.1927,3.3304,3.4929,3.6671,3.8025,3.89,3.9499,4.0157,4.0516,4.0786,4.1482,4.1722,4.1722,4.1722,4.1572,4.1294,4.0816,4.1474,4.2291,4.1841,4.2342,4.294,4.253,4.2701,4.2761,4.1654,4.1931,4.241,4.241,4.241,4.253,4.294,4.2671,4.253,4.297,4.303,4.312,4.326,4.2222,4.1168,4.0565,4.0512,4.0506,4.047,4.0505,4.0505,4.0505,4.0505,4.0197,3.9521,3.949,3.8816,3.7277,3.7184,3.6969,3.6507,3.6507,3.6507,3.6507,3.6969,3.7307,3.7523,3.7984,3.8323,2.1246,0.0,0.0,0.0,0.0,0.0,0.0,0.0,0.0,0.0,0.0,3.5051,3.4972,3.5129,0.0,3.6332,3.6959,3.7612,3.8292,3.8109,3.8031,3.8344,3.79,3.7403,3.7037,3.6776,3.6279,3.5365,3.5286,3.5025,3.4424,3.4188,3.3927,3.3613,3.3352,3.3064,3.2698,3.2698,3.2568,3.2359,3.1954,3.1876,3.2019,3.2019,3.2019,3.1993,3.1653,3.1812,3.2438,3.3851,3.5334,3.6864,3.8186,3.876,3.9003,3.9748,3.9936,4.0017,4.0733,4.0995,4.0935,4.0696,4.0606,4.0487,3.9798,4.0516,4.1602,4.1452,4.1953,4.2581,4.2701,4.2641,4.2432,4.1931,4.2282,4.2761,4.2761,4.2761,4.288,4.323,4.303,4.288,4.323,4.312,4.294,4.294,4.1833,4.0808,4.0353,4.0233,4.0226,4.0401,4.047,4.0505,4.0505,4.0505,4.032,3.992,3.989,3.9431,3.8354,3.78,3.743,3.7307,3.703,3.703,3.7307,3.7707,3.8046,3.8323,3.8723,3.9062,2.1365,0.0,0.0,0.0,0.0,0.0,0.0,0.0,0.0,0.0,0.0,3.6253,3.675,3.6044,3.573,3.6828,3.7403,3.7769,3.7821,3.7769,3.7769,3.7821,3.7299,3.6907,3.6854,3.6358,3.5783,3.5182,3.5155,3.4868,3.4267,3.377,3.3483,3.343,3.2908,3.2594,3.2542,3.2542,3.228,3.1719,3.1719,3.1458,3.0973,3.0973,3.1048,3.1086,3.1011,3.1882,3.3368,3.4586,3.5927,3.7331,3.8615,3.862,3.8028,3.8802,3.9033,3.9042,3.9929,4.0217,4.0127,3.9529,3.932,3.92,3.8571,3.9349,4.0546,4.1205,4.1414,4.1743,4.294,4.2372,4.1662,4.2261,4.2821,4.323,4.329,4.329,4.329,4.329,4.329,4.329,4.329,4.2851,4.244,4.2321,4.1294,4.0591,4.0601,4.0298,4.0142,4.0292,4.0401,4.0505,4.0597,4.0536,4.0536,4.0597,4.0536,4.0228,3.9613,3.8385,3.7954,3.8508,3.7892,3.7892,3.8508,3.8569,3.8908,3.949,3.9551,3.992,0.0,2.5257,0.0,0.0,0.0,0.0,0.0,0.0,0.0,0.0,0.0,3.6018,3.573,3.5809,3.6175,3.6881,3.6724,3.6645,3.7142,3.6802,3.6671,3.7142,3.6671,3.6123,3.5704,3.5547,3.5051,3.4031,3.3953,3.3692,3.3091,3.296,3.2672,3.2189,3.2058,3.181,3.1365,3.1365,3.1287,3.1182,3.1182,3.1104,3.0973,3.0973,3.1347,3.1846,3.1272,3.2173,3.4099,3.4314,3.4946,3.5839,3.6658,3.6519,3.5943,3.67,3.7252,3.7806,3.8561,3.8811,3.8811,3.8661,3.8601,3.8571,3.8422,3.9349,4.0546,4.1205,4.1782,4.2261,4.253,4.241,4.2231,4.2381,4.25,4.2701,4.32,4.329,4.329,4.329,4.329,4.329,4.329,4.317,4.2761,4.1782,4.1841,4.1498,4.0088,4.0311,4.0485,4.0323,4.0331,4.0616,4.134,4.0812,4.0751,4.134,4.0812,4.0443,4.029,3.949,3.8908,3.8508,3.8385,3.8354,3.8508,3.9031,3.9336,3.949,4.0043,4.0351,0.0,0.0,0.0,0.0,0.0,0.0,0.0,0.0,0.0,0.0,0.0,3.6018,3.573,3.5913,3.6201,3.6515,3.6305,3.6201,3.6515,3.6305,3.6227,3.6541,3.607,3.56,3.5338,3.4816,3.4241,3.3639,3.3326,3.3012,3.2698,3.2437,3.2111,3.1823,3.1536,3.1287,3.0973,3.0973,3.0973,3.0973,3.0973,3.0973,3.0973,3.0973,3.1235,3.1579,3.1542,3.2182,3.3311,3.3959,3.4427,3.4838,3.5504,3.5508,3.5252,3.6007,3.6496,3.6895,3.7669,3.7913,3.7853,3.7584,3.7883,3.8332,3.8003,3.8871,4.0068,4.0726,4.1145,4.1542,4.1841,4.1692,4.1602,4.2261,4.241,4.259,4.314,4.329,4.329,4.329,4.329,4.329,4.329,4.306,4.2432,4.1115,4.1205,4.1093,4.0154,4.0414,4.077,4.0952,4.1132,4.1464,4.1904,4.1669,4.1678,4.2048,4.1432,4.1032,4.1032,4.0351,3.9797,3.9459,3.9154,3.9154,3.9459,3.9797,3.9982,3.9982,4.032,4.0505,0.0,0.0,0.0,0.0,0.0,0.0,0.0,0.0,0.0,0.0,0.0,3.6008,3.5983,3.6018,3.6008,3.5983,3.5887,3.5835,3.594,3.5887,3.5835,3.594,3.5469,3.5103,3.5025,3.4136,3.3509,3.33,3.2829,3.2489,3.2411,3.194,3.1667,3.1667,3.1235,3.0973,3.0973,3.0973,3.0973,3.0973,3.0973,3.0973,3.0973,3.0973,3.1048,3.1235,3.17,3.2037,3.2381,3.3417,3.3828,3.392,3.457,3.4759,3.4685,3.5625,3.5996,3.6154,3.6951,3.7255,3.7195,3.6776,3.7375,3.8153,3.7704,3.8452,3.9559,4.0217,4.0397,4.0516,4.1055,4.0816,4.0666,4.1811,4.2051,4.2252,4.311,4.329,4.329,4.329,4.329,4.329,4.329,4.288,4.2171,4.0935,4.0816,4.0816,4.0606,4.0815,4.1166,4.1656,4.2021,4.234,4.2469,4.2554,4.2663,4.2786,4.214,4.1709,4.1586,4.1032,4.0689,4.0689,4.0013,3.9951,4.0505,4.0505,4.0505,4.0505,4.0505,4.0505,0.0,0.0,0.0,0.0,0.0,0.0,0.0,0.0,0.0,0.0,0.0,3.568,3.5483,3.5577,3.568,3.544,3.4972,3.4816,3.5338,3.4946,3.4816,3.5338,3.4868,3.4345,3.3875,3.3692,3.3169,3.2111,3.1954,3.1693,3.1235,3.113,3.1104,3.1104,3.1026,3.0973,3.0973,3.0973,3.0973,3.0973,3.0973,3.0973,3.0973,3.0973,3.1357,3.1919,3.1394,3.1846,3.3003,3.2552,3.2363,3.2463,3.319,3.3076,3.2681,3.4031,3.4922,3.5554,3.6331,3.6596,3.6686,3.7135,3.7404,3.7644,3.8123,3.8811,3.9559,4.0217,4.0397,4.0427,4.0516,4.0457,4.0457,4.0606,4.0666,4.1145,4.2901,4.329,4.329,4.329,4.329,4.329,4.329,4.323,4.294,4.2261,4.2581,4.2482,4.1384,4.1782,4.2038,4.1708,4.1873,4.2339,4.3104,4.283,4.2848,4.3439,4.2848,4.2202,4.1617,4.1524,4.1463,4.1463,4.072,4.0413,4.0505,4.0505,4.0505,4.0505,4.0505,4.0505,2.2869,0.0,0.0,0.0,0.0,0.0,0.0,0.0,0.0,0.0,0.0,3.5073,3.4015,3.3938,3.4099,3.4323,3.3822,3.377,3.4659,3.4005,3.3666,3.4267,3.3796,3.3352,3.3117,3.2803,3.2346,3.185,3.151,3.1261,3.0999,3.0973,3.0973,3.0973,3.0973,3.0973,3.0973,3.0973,3.0973,3.0973,3.0973,3.0973,3.0973,3.0973,3.1198,3.1505,3.1579,3.1736,3.1992,3.2506,3.247,3.2182,3.2897,3.3248,3.3394,3.4075,3.4785,3.5448,3.5809,3.5938,3.5968,3.6267,3.6836,3.7464,3.7764,3.8571,3.9433,3.9768,3.9858,3.9858,3.9858,3.9858,3.9948,4.0307,4.0696,4.1294,4.2521,4.2791,4.2791,4.2791,4.309,4.317,4.2851,4.309,4.312,4.25,4.265,4.2581,4.2051,4.2231,4.244,4.2608,4.2801,4.3152,4.3647,4.3631,4.3721,4.411,4.3562,4.3002,4.2725,4.2355,4.2171,4.2171,4.1494,4.1124,4.1124,4.1124,4.0909,4.0505,4.0505,4.0505,0.0,0.0,0.0,0.0,0.0,0.0,0.0,0.0,0.0,0.0,3.5268,3.4472,3.3089,3.3087,3.3343,3.3354,3.3146,3.3225,3.389,3.3221,3.2855,3.33,3.296,3.2646,3.2489,3.2058,3.1745,3.1588,3.1235,3.0973,3.0973,3.0843,3.0843,3.0973,3.0712,3.0686,3.0973,3.0973,3.0973,3.0973,3.0843,3.0843,3.0973,3.0843,3.0843,3.1011,3.1579,3.1589,3.1357,3.247,3.272,3.2434,3.3178,3.3837,3.4312,3.4543,3.4971,3.5457,3.5294,3.5326,3.5487,3.5472,3.6253,3.7225,3.7554,3.8362,3.92,3.9343,3.9373,3.9373,3.9373,3.9373,3.9559,4.0038,4.0666,4.1414,4.2402,4.253,4.244,4.262,4.288,4.294,4.25,4.291,4.312,4.25,4.241,4.241,4.241,4.241,4.259,4.303,4.3467,4.3754,4.391,4.4181,4.4343,4.4496,4.411,4.3778,4.3624,4.3094,4.2848,4.2848,4.2355,4.2017,4.1863,4.1863,4.1586,4.1028,4.1028,4.1028,0.0,0.0,0.0,0.0,0.0,0.0,0.0,0.0,0.0,0.0,3.4366,3.4094,3.3326,3.4136,3.4489,3.3001,3.3327,3.3495,3.2896,3.2725,3.2698,3.2725,3.2698,3.2489,3.1902,3.1823,3.1588,3.1078,3.0999,3.0973,3.0973,3.0477,3.0424,3.0973,2.9928,2.9938,3.0973,3.0973,3.0973,3.0973,3.0424,3.0477,3.0973,3.0424,3.0477,3.0973,3.1048,3.1431,3.2037,3.211,3.2541,3.3213,3.3973,3.4279,3.438,3.5166,3.5457,3.5392,3.4643,3.4872,3.5481,3.5346,3.5878,3.6746,3.7973,3.8392,3.8571,3.923,3.9373,3.9373,3.9373,3.9373,3.9403,3.9469,3.9978,4.0965,4.2841,4.2791,4.259,4.311,4.2821,4.244,4.241,4.291,4.312,4.25,4.241,4.241,4.241,4.241,4.241,4.244,4.3196,4.3675,4.3714,4.4065,4.4305,4.4305,4.4465,4.4271,4.3624,4.3562,4.3562,4.3562,4.3531,4.3156,4.2571,4.2571,4.254,4.2509,4.2509,4.2509,0.0,0.0,0.0,0.0,0.0,0.0,0.0,0.0,0.0,0.0,3.3504,3.3614,3.3262,3.3578,3.3668,3.3004,3.2772,3.2724,3.2712,3.2071,3.1731,3.2058,3.181,3.1522,3.1313,3.1287,3.1209,3.0999,3.0973,3.0817,3.0451,3.0205,3.0022,2.9902,2.9483,2.9519,2.9876,2.9938,2.9938,2.9938,2.9693,2.9876,3.0424,3.0205,3.0451,3.1011,3.1505,3.1846,3.2146,3.2613,3.3248,3.3973,3.4773,3.5067,3.5067,3.4806,3.5067,3.5392,3.4576,3.4839,3.5484,3.5433,3.5919,3.6567,3.7015,3.7734,3.8452,3.8691,3.908,3.9373,3.9373,3.9373,3.9619,4.0487,4.0846,4.1444,4.2961,4.315,4.294,4.2761,4.2851,4.2851,4.247,4.259,4.2761,4.294,4.2641,4.256,4.294,4.3,4.3,4.3,4.3249,4.3518,4.3675,4.3832,4.4026,4.4266,4.4343,4.4365,4.4271,4.424,4.424,4.424,4.424,4.3932,4.3217,4.3217,4.3002,4.2602,4.2602,4.2602,0.0,0.0,0.0,0.0,0.0,0.0,0.0,0.0,0.0,0.0,3.294,3.3404,3.3317,3.3106,3.2911,3.2745,3.2563,3.2482,3.2505,3.1634,3.113,3.1496,3.1209,3.0973,3.0973,3.0973,3.0973,3.0973,3.0973,0.0,3.0127,2.9918,2.9483,2.8726,2.9065,2.9205,2.9022,2.9205,2.931,2.931,2.931,2.9588,3.01,3.01,3.0451,3.1048,3.1773,3.2218,3.2506,3.3003,3.3768,3.471,3.4706,3.5034,3.5392,3.461,3.4806,3.5392,3.4576,3.4839,3.5457,3.5166,3.5561,3.6207,3.6417,3.7075,3.7853,3.8272,3.8721,3.914,3.9313,3.9373,3.9709,4.0786,4.1235,4.1683,4.2761,4.3,4.294,4.2731,4.2851,4.288,4.247,4.259,4.2761,4.297,4.2641,4.256,4.294,4.3,4.3,4.3,4.317,4.3369,4.3557,4.3636,4.3832,4.4181,4.4228,4.4381,4.4572,4.461,4.461,4.461,4.461,4.4394,4.3963,4.3963,4.3716,4.3279,4.3279,4.3279,0.0,0.0,0.0,0.0,0.0,0.0,2.6352,0.0,2.9988,0.0,3.2556,3.3395,3.3454,3.296,3.2446,3.2151,3.2692,3.2869,3.2128,3.1442,3.1011,3.1011,3.1011,3.0973,3.0973,3.0973,3.0973,3.0973,3.0973,3.0738,3.01,2.9562,2.8699,2.7542,2.8647,2.8996,2.8394,2.8935,2.9284,2.9284,2.9284,2.9562,3.01,3.01,3.0451,3.1048,3.1773,3.2506,3.3178,3.3213,3.4104,3.5326,3.3831,3.4138,3.5359,3.4576,3.4806,3.5359,3.4576,3.4839,3.5359,3.461,3.4872,3.5639,3.6267,3.6477,3.6776,3.8003,3.8392,3.8571,3.926,3.9373,3.9553,4.0277,4.0905,4.1572,4.2261,4.241,4.259,4.317,4.2821,4.244,4.244,4.291,4.309,4.253,4.241,4.241,4.241,4.244,4.244,4.244,4.294,4.329,4.329,4.3557,4.3754,4.3988,4.4181,4.4381,4.4572,4.461,4.461,4.461,4.461,4.461,4.461,4.461,4.461,4.461,4.461,4.461,2.1885,0.0,0.0,0.0,0.0,0.0,2.3813,2.4593,2.5963,2.9512,3.0511,3.1153,3.248,3.2991,3.3015,3.243,3.1985,3.1533,3.0907,3.0901,3.1003,3.1065,3.1045,3.0973,3.0973,3.0973,3.0973,0.0,3.0973,3.0555,2.9562,2.8569,2.7829,2.7516,2.7803,2.7941,2.7758,2.7915,2.8229,2.8656,2.8656,2.917,3.01,3.01,3.0718,3.1809,3.2001,3.2506,3.3248,3.3768,3.4245,3.4643,3.4806,3.4438,3.3865,3.4177,3.4447,3.461,3.438,3.4839,3.5457,3.5231,3.5326,3.5549,3.5729,3.6417,3.7225,3.7584,3.8392,3.917,3.9343,3.9373,3.9709,4.0846,4.0876,4.1115,4.2731,4.2701,4.259,4.317,4.314,4.306,4.306,4.2821,4.2731,4.303,4.2671,4.256,4.3,4.306,4.306,4.306,4.32,4.329,4.329,4.3369,4.3596,4.3988,4.4065,4.4258,4.4572,4.461,4.461,4.461,4.461,4.461,4.461,4.461,4.461,4.461,4.461,4.461,0.0,0.0,0.0,0.0,0.0,0.0,2.2519,2.2899,2.3991,0.0,2.8092,2.8547,3.0102,3.0071,2.9925,3.0335,2.9982,2.9981,3.1032,3.1143,3.1047,3.0775,3.0717,3.0596,3.0304,3.0477,3.0634,3.0634,3.0634,3.0137,2.8996,2.802,2.749,2.749,2.749,2.749,2.749,2.7758,2.8046,2.842,2.8882,2.9483,3.01,3.0335,3.0919,3.1663,3.1992,3.2326,3.2791,3.3561,3.3837,3.3871,3.4036,3.3934,3.3699,3.4143,3.4509,3.4806,3.4806,3.51,3.5519,3.5519,3.5519,3.5519,3.5519,3.6207,3.7007,3.6902,3.7866,3.8973,3.9301,3.9373,3.9619,4.0367,4.0487,4.0726,4.1863,4.2013,4.2222,4.311,4.329,4.329,4.329,4.303,4.288,4.323,4.3,4.291,4.323,4.329,4.329,4.329,4.329,4.329,4.329,4.3369,4.3636,4.3988,4.4065,4.4297,4.4572,4.461,4.461,4.461,4.461,4.461,4.461,4.461,4.461,4.461,4.461,4.461,0.0,0.0,0.0,0.0,0.0,0.0,2.2321,2.2594,2.3313,2.5463,2.5666,2.5868,2.7185,2.5948,2.5317,2.7111,2.7427,2.856,3.1748,3.1663,3.106,3.0494,3.0344,3.0054,2.9487,2.9781,2.9996,2.9996,2.9944,2.9483,2.8472,2.7837,2.749,2.749,2.749,2.7516,2.7594,2.8124,2.8472,2.8595,2.964,3.0127,3.0205,3.0764,3.1048,3.1161,3.1736,3.2074,3.2254,3.2826,3.3108,3.3143,3.2577,3.308,3.4211,3.438,3.4839,3.5392,3.5457,3.5519,3.5519,3.5519,3.5519,3.5519,3.5579,3.6058,3.6581,3.657,3.7412,3.8501,3.9228,3.9373,3.9469,3.9619,4.0038,4.0457,4.0696,4.1115,4.1863,4.305,4.323,4.32,4.329,4.329,4.329,4.329,4.329,4.329,4.329,4.329,4.329,4.329,4.329,4.329,4.3329,4.3557,4.3793,4.4026,4.422,4.4381,4.4572,4.461,4.461,4.461,4.461,4.461,4.461,4.461,4.461,4.461,4.461,4.461,0.0,0.0,0.0,0.0,0.0,0.0,2.3528,2.2513,2.2261,0.0,2.4579,2.4027,2.5901,2.5858,2.5687,2.6075,2.6945,2.8338,3.0569,3.1123,3.1256,3.1165,3.0677,3.0261,3.0123,2.9707,2.9457,2.9457,2.9013,2.8621,2.842,2.7837,2.749,2.749,2.749,2.7758,2.8203,2.8368,2.8856,2.9761,2.9996,3.0335,3.0817,3.0947,3.132,3.1882,3.1394,3.1882,3.2932,3.2506,3.2648,3.3248,3.3699,3.3699,3.3561,3.4806,3.4938,3.4643,3.5294,3.5519,3.5519,3.5519,3.5519,3.5609,3.6118,3.6746,3.743,3.8478,3.8948,3.9192,3.9337,3.9373,3.9679,4.0756,4.0696,4.0846,4.2393,4.2462,4.244,4.314,4.291,4.2731,4.32,4.329,4.329,4.329,4.329,4.329,4.329,4.329,4.329,4.329,4.329,4.3369,4.3596,4.3675,4.3832,4.422,4.4297,4.4381,4.4572,4.461,4.461,4.461,4.461,4.461,4.461,4.461,4.461,4.461,4.461,4.461,0.0,0.0,0.0,2.4275,0.0,0.0,0.0,2.2631,2.2213,2.4031,2.3101,2.2344,2.3571,0.0,2.3086,2.4086,2.4785,2.5819,2.7774,2.9175,3.0002,2.9985,2.9425,2.8867,2.8541,2.8719,2.886,2.8839,2.8577,2.8255,2.7968,2.7646,2.749,2.749,2.7811,2.8098,2.842,2.8961,2.9536,3.01,3.0424,3.0712,3.0973,3.0973,3.1198,3.1542,3.1161,3.1653,3.2613,3.2254,3.2755,3.3802,3.4177,3.3871,3.3388,3.4935,3.4971,3.4413,3.5198,3.5519,3.5519,3.5519,3.5729,3.6058,3.6387,3.6862,3.76,3.8996,3.9119,3.89,3.9301,3.9373,3.9679,4.0666,4.0636,4.0756,4.2073,4.2102,4.2111,4.2731,4.262,4.262,4.32,4.329,4.329,4.329,4.329,4.329,4.329,4.329,4.329,4.329,4.329,4.3329,4.3518,4.4016,4.4313,4.4143,4.4641,4.4864,4.4603,4.461,4.461,4.461,4.461,4.461,4.461,4.461,4.461,4.461,4.461,4.461,0.0,0.0,0.0,0.0,0.0,2.3671,0.0,0.0,0.0,0.0,0.0,0.0,0.0,0.0,0.0,0.0,0.0,0.0,0.0,2.6423,0.0,2.8004,2.7481,2.6974,2.6729,2.7519,2.8168,2.8388,2.82,2.7889,2.7516,2.749,2.7542,2.7646,2.815,2.8525,2.8726,2.9631,3.0153,3.0257,3.0764,3.0973,3.0973,3.0973,3.0973,3.1011,3.1161,3.1653,3.229,3.229,3.3213,3.4509,3.4211,3.3905,3.3796,3.4868,3.4938,3.461,3.5294,3.5519,3.5519,3.5639,3.6207,3.6866,3.6866,3.7227,3.7872,3.9079,3.8936,3.8575,3.9228,3.9373,3.9553,4.0247,4.0487,4.0756,4.1482,4.1654,4.1923,4.25,4.259,4.2731,4.32,4.329,4.329,4.329,4.329,4.329,4.329,4.3409,4.3469,4.3469,4.3589,4.3718,4.3758,4.4599,4.4868,4.4308,4.5047,4.5303,4.4825,4.4949,4.501,4.501,4.501,4.501,4.501,4.501,4.4856,4.461,4.461,4.461,0.0,0.0,0.0,0.0,2.5672,0.0,0.0,0.0,2.3121,2.3091,0.0,0.0,0.0,0.0,0.0,0.0,0.0,0.0,2.2204,2.2951,2.4095,2.5747,2.535,2.5383,2.6504,2.6796,2.734,2.8411,2.7491,2.7053,2.7464,2.749,2.7758,2.8255,2.8368,2.8882,2.9892,3.0022,3.0361,3.0895,3.0947,3.0973,3.0973,3.0973,3.0973,3.1048,3.17,3.2398,3.3073,3.3073,3.3968,3.5228,3.3865,3.4104,3.5166,3.4643,3.4839,3.5392,3.5457,3.5519,3.5609,3.6178,3.7195,3.8182,3.8182,3.862,3.9211,3.9373,3.9337,3.9265,3.9373,3.9373,3.9553,4.0247,4.0846,4.1444,4.2141,4.2701,4.308,4.317,4.32,4.32,4.329,4.329,4.329,4.329,4.329,4.329,4.329,4.3798,4.4197,4.4197,4.4736,4.5147,4.5352,4.5453,4.5445,4.5166,4.5275,4.5362,4.5464,4.6049,4.6357,4.6357,4.6357,4.6357,4.6357,4.6357,4.5741,4.461,4.461,4.461,0.0,0.0,0.0,0.0,0.0,0.0,2.6014,0.0,2.4296,0.0,0.0,0.0,0.0,0.0,0.0,0.0,2.063,0.0,0.0,0.0,2.1839,0.0,0.0,0.0,2.6402,2.5022,2.4988,2.7356,2.6388,2.5929,2.6472,2.7124,2.7785,2.8394,2.876,2.9301,3.01,3.0477,3.0738,3.0973,3.0973,3.0973,3.0973,3.0973,3.1235,3.1663,3.1992,3.2506,3.3178,3.3178,3.3589,3.4104,3.3422,3.3865,3.4773,3.4413,3.4514,3.4872,3.5359,3.5519,3.5669,3.6686,3.7375,3.7973,3.8751,3.92,3.9373,3.9373,3.9373,3.9373,3.9373,3.9373,3.9679,4.0726,4.1175,4.1654,4.2701,4.315,4.329,4.329,4.329,4.329,4.329,4.329,4.329,4.329,4.329,4.329,4.329,4.3529,4.3708,4.3708,4.4347,4.4747,4.4828,4.5796,4.6223,4.5748,4.5926,4.6094,4.6172,4.6449,4.6603,4.6603,4.6603,4.6603,4.6603,4.6603,4.6296,4.5741,4.5741,4.5741,3.0209,0.0,0.0,0.0,0.0,0.0,0.0,0.0,0.0,0.0,0.0,0.0,0.0,0.0,0.0,0.0,0.0,0.0,0.0,0.0,0.0,0.0,0.0,0.0,0.0,2.3466,2.3327,2.6268,0.0,2.485,2.621,2.6901,2.7773,2.8905,2.9302,2.9797,3.0335,3.0987,3.1198,3.0973,3.1198,3.1283,3.1283,3.1283,3.17,3.2398,3.2613,3.3003,3.3492,3.3492,3.363,3.3796,3.3353,3.3768,3.461,3.438,3.4447,3.471,3.5294,3.5729,3.6178,3.7105,3.7644,3.8153,3.9074,3.9373,3.9373,3.9373,3.9373,3.9373,3.9373,3.9373,3.9709,4.0846,4.1302,4.1683,4.2821,4.317,4.329,4.329,4.329,4.329,4.329,4.329,4.329,4.329,4.329,4.329,4.329,4.3439,4.3618,4.3798,4.4507,4.4997,4.5207,4.6482,4.7004,4.6417,4.668,4.688,4.688,4.7065,4.7157,4.7157,4.7157,4.7157,4.7157,4.7157,4.7157,4.7127,4.6757,4.6603,0.0,0.0,0.0,3.1738,0.0,0.0,0.0,0.0,2.6371,0.0,0.0,0.0,0.0,0.0,0.0,0.0,0.0,0.0,0.0,0.0,0.0,0.0,0.0,0.0,0.0,2.2435,2.3154,0.0,2.3687,0.0,2.736,2.701,2.7802,3.018,3.0121,3.0335,3.0947,3.17,3.17,3.1011,3.17,3.2037,3.2037,3.2037,3.247,3.3213,3.3939,3.4245,3.4279,3.4279,3.471,3.5294,3.3796,3.4138,3.5359,3.4576,3.4806,3.5457,3.5519,3.6327,3.7345,3.7404,3.8302,3.9313,3.9373,3.9373,3.9373,3.9373,3.9373,3.9373,3.9373,3.9373,3.9553,4.0277,4.0905,4.1602,4.2291,4.288,4.329,4.329,4.329,4.329,4.329,4.329,4.329,4.329,4.329,4.329,4.329,4.3898,4.4526,4.5155,4.6022,4.681,4.743,4.7776,4.7756,4.7293,4.7466,4.7558,4.7558,4.8204,4.8543,4.8543,4.8543,4.8543,4.8543,4.8543,4.8543,4.8512,4.7188,4.6603,0.0,0.0,3.2493,3.318,0.0,0.0,0.0,0.0,0.0,0.0,0.0,0.0,0.0,0.0,0.0,0.0,0.0,0.0,0.0,0.0,0.0,0.0,0.0,0.0,0.0,0.0,0.0,0.0,0.0,0.0,2.6274,2.6891,2.8363,3.0932,3.0406,3.0847,3.2434,3.2218,3.1965,3.1736,3.247,3.2577,3.211,3.2613,3.3248,3.3939,3.4211,3.4312,3.4312,3.4312,3.4177,3.3968,3.3939,3.4245,3.4677,3.438,3.4806,3.5519,3.5519,3.5789,3.6297,3.7135,3.7704,3.8242,3.914,3.9373,3.9373,3.9373,3.9373,3.9529,3.9948,4.0068,4.0337,4.1482,4.1901,4.2261,4.2851,4.314,4.329,4.329,4.329,4.329,4.329,4.329,4.329,4.329,4.329,4.329,4.329,4.3858,4.4447,4.485,4.5924,4.6773,4.7171,4.7817,4.8179,4.8173,4.8224,4.8266,4.8266,4.8481,4.8604,4.8604,4.8604,4.8604,4.8604,4.8604,4.8604,4.8604,4.8142,4.7927,3.4086,3.3966,0.0,3.4393,3.3213,0.0,3.1757,0.0,0.0,0.0,0.0,0.0,0.0,0.0,0.0,0.0,0.0,0.0,0.0,2.0612,0.0,0.0,0.0,0.0,0.0,0.0,0.0,0.0,0.0,0.0,0.0,2.7106,2.8816,3.1659,3.1159,3.1577,3.3178,3.272,3.2506,3.2506,3.3248,3.3353,3.2897,3.3388,3.4007,3.471,3.471,3.471,3.471,3.471,3.4442,3.407,3.4543,3.471,3.471,3.471,3.5067,3.5549,3.5759,3.5998,3.6357,3.7404,3.7913,3.8272,3.9134,3.9373,3.9433,3.9709,3.9768,3.9918,4.0576,4.0756,4.1025,4.2141,4.241,4.259,4.314,4.329,4.329,4.329,4.329,4.329,4.329,4.329,4.329,4.329,4.329,4.329,4.329,4.3858,4.4357,4.4549,4.5774,4.6815,4.7422,4.8026,4.8438,4.8563,4.8604,4.8604,4.8604,4.8604,4.8727,4.9004,4.8758,4.8727,4.9004,4.8727,4.8604,4.8604,4.8604,4.8604]}]]